[[{"header":{"parameterUnit":"m.s-1","parameterCategory":1,"la1":30.6,"la2":29.2853,"lo1":-89.7004,"lo2":-87.6739,"dy":0.0162,"dx":0.0183,"nx":112,"ny":82,"refTime":"2023-09-13T12:00:00:Z","depth":0,"parameterNumber":2,"parameterNumberName":"U-component_of_WINDS"},"data":[0.0,0.0,0.0,0.0,0.0,0.0,0.0,0.0,0.0,0.0,0.0,0.0,0.0,0.0,0.0,0.0,0.0,0.0,0.0,0.0,0.0,0.0,0.0,0.0,0.0,0.0,0.0,0.0,0.0,0.0,0.0,0.0,0.0,0.0,0.0,0.0,0.0,0.0,0.0,0.0,0.0,0.0,0.0,0.0,0.0,0.0,0.0,0.0,0.0,0.0,0.0,0.0,0.0,0.0,0.0,0.0,0.0,0.0,0.0,0.0,0.0,0.0,0.0,0.0,0.0,0.0,0.0,0.0,0.0,0.0,0.0,0.0,0.0,0.0,0.0,0.0,0.0,0.0,0.0,0.0,0.0,0.0,0.0,0.0,0.0,0.0,0.0,0.0,0.0,0.0,-1.4439,-1.5843,-1.8473,-2.0791,-2.2346,-2.3584,-2.471,-2.5744,0.0,0.0,0.0,0.0,0.0,0.0,0.0,0.0,0.0,0.0,0.0,0.0,0.0,0.0,0.0,0.0,0.0,0.0,0.0,0.0,0.0,0.0,0.0,0.0,0.0,0.0,0.0,0.0,0.0,0.0,0.0,0.0,0.0,0.0,0.0,0.0,0.0,0.0,0.0,0.0,0.0,0.0,0.0,0.0,0.0,0.0,0.0,0.0,0.0,0.0,0.0,0.0,0.0,0.0,0.0,0.0,0.0,0.0,0.0,0.0,0.0,0.0,0.0,0.0,0.0,0.0,0.0,0.0,0.0,0.0,0.0,0.0,0.0,0.0,0.0,0.0,0.0,0.0,0.0,0.0,0.0,0.0,0.0,0.0,0.0,0.0,0.0,0.0,0.0,0.0,0.0,0.0,0.0,0.0,0.0,0.0,0.0,0.0,0.0,0.0,0.0,0.0,0.0,0.0,-1.7335,-2.0142,-2.2068,-2.3699,-2.4998,-2.6442,-2.7607,-2.8444,0.0,0.0,0.0,0.0,0.0,0.0,0.0,0.0,0.0,0.0,0.0,0.0,0.0,0.0,0.0,0.0,0.0,0.0,0.0,0.0,0.0,0.0,0.0,0.0,0.0,0.0,0.0,0.0,0.0,0.0,0.0,0.0,0.0,0.0,0.0,0.0,0.0,0.0,0.0,0.0,0.0,0.0,0.0,0.0,0.0,0.0,0.0,0.0,0.0,0.0,0.0,0.0,0.0,0.0,0.0,0.0,0.0,0.0,0.0,0.0,0.0,0.0,0.0,0.0,0.0,0.0,0.0,0.0,0.0,0.0,0.0,0.0,0.0,0.0,0.0,0.0,0.0,0.0,0.0,0.0,0.0,0.0,0.0,0.0,0.0,0.0,0.0,0.0,0.0,0.0,0.0,0.0,0.0,0.0,0.0,0.0,0.0,0.0,0.0,0.0,0.0,0.0,0.0,-1.8845,-2.0484,-2.273,-2.4311,-2.5696,-2.6913,-2.8247,-2.9421,-3.0342,-3.0399,0.0,0.0,0.0,0.0,0.0,0.0,0.0,0.0,0.0,0.0,0.0,0.0,0.0,0.0,0.0,0.0,0.0,0.0,0.0,0.0,0.0,0.0,0.0,0.0,0.0,0.0,0.0,0.0,0.0,0.0,0.0,0.0,0.0,0.0,0.0,0.0,0.0,0.0,0.0,0.0,0.0,0.0,0.0,0.0,0.0,0.0,0.0,0.0,0.0,0.0,0.0,0.0,0.0,0.0,0.0,0.0,0.0,0.0,0.0,0.0,0.0,0.0,0.0,0.0,0.0,0.0,0.0,0.0,0.0,0.0,0.0,0.0,0.0,0.0,0.0,0.0,0.0,0.0,0.0,0.0,0.0,0.0,0.0,0.0,0.0,0.0,0.0,0.0,0.0,0.0,0.0,0.0,0.0,0.0,0.0,0.0,0.0,0.0,0.0,0.0,0.0,0.0,-2.1708,-2.3098,-2.4591,-2.5966,-2.7263,-2.8354,-2.9766,-3.1018,-3.1969,-3.3219,0.0,0.0,0.0,0.0,0.0,0.0,0.0,0.0,0.0,0.0,0.0,0.0,0.0,0.0,0.0,0.0,0.0,0.0,0.0,0.0,0.0,0.0,0.0,0.0,0.0,0.0,0.0,0.0,0.0,0.0,0.0,0.0,0.0,0.0,0.0,0.0,0.0,0.0,0.0,0.0,0.0,0.0,0.0,0.0,0.0,0.0,0.0,0.0,0.0,0.0,0.0,0.0,0.0,0.0,0.0,0.0,0.0,0.0,0.0,0.0,0.0,0.0,0.0,0.0,0.0,0.0,0.0,0.0,0.0,0.0,0.0,0.0,0.0,0.0,0.0,0.0,0.0,0.0,0.0,0.0,0.0,0.0,0.0,0.0,0.0,0.0,0.0,0.0,0.0,0.0,0.0,0.0,0.0,0.0,0.0,0.0,0.0,0.0,0.0,0.0,0.0,0.0,-2.3306,-2.4573,-2.5928,-2.7198,-2.8377,-2.9416,-3.122,-3.2706,-3.3583,-3.4713,0.0,0.0,0.0,0.0,0.0,0.0,0.0,0.0,0.0,0.0,0.0,0.0,0.0,0.0,0.0,0.0,0.0,0.0,0.0,0.0,0.0,0.0,0.0,0.0,0.0,0.0,0.0,0.0,0.0,0.0,0.0,0.0,0.0,0.0,0.0,0.0,0.0,0.0,0.0,0.0,0.0,0.0,0.0,0.0,0.0,0.0,0.0,0.0,0.0,0.0,0.0,0.0,0.0,0.0,0.0,0.0,0.0,0.0,0.0,0.0,0.0,0.0,0.0,0.0,0.0,0.0,0.0,0.0,0.0,0.0,0.0,0.0,0.0,0.0,0.0,0.0,0.0,0.0,0.0,0.0,0.0,0.0,0.0,0.0,0.0,0.0,0.0,0.0,0.0,0.0,0.0,0.0,0.0,0.0,0.0,0.0,0.0,0.0,0.0,0.0,0.0,0.0,-2.4124,-2.5259,0.0,-2.8032,-2.9397,-3.0338,-3.2085,-3.3536,-3.4486,0.0,0.0,0.0,0.0,0.0,0.0,0.0,0.0,0.0,0.0,0.0,0.0,0.0,0.0,0.0,0.0,0.0,0.0,0.0,0.0,0.0,0.0,0.0,0.0,0.0,0.0,0.0,0.0,0.0,0.0,0.0,0.0,0.0,0.0,0.0,0.0,0.0,0.0,0.0,0.0,0.0,0.0,0.0,0.0,0.0,0.0,0.0,0.0,0.0,0.0,0.0,0.0,0.0,0.0,0.0,0.0,0.0,0.0,0.0,0.0,0.0,0.0,0.0,0.0,0.0,0.0,0.0,0.0,0.0,0.0,0.0,0.0,0.0,0.0,0.0,0.0,0.0,0.0,0.0,0.0,0.0,0.0,0.0,0.0,0.0,0.0,0.0,0.0,0.0,0.0,0.0,0.0,0.0,0.0,0.0,0.0,0.0,0.0,0.0,0.0,0.0,0.0,-2.3813,-2.4838,-2.585,0.0,-2.854,-2.9989,-3.0764,-3.2694,-3.4251,-3.5188,0.0,0.0,0.0,0.0,0.0,0.0,0.0,0.0,0.0,0.0,0.0,0.0,0.0,0.0,0.0,0.0,0.0,0.0,0.0,0.0,0.0,0.0,0.0,0.0,0.0,0.0,0.0,0.0,0.0,0.0,0.0,0.0,0.0,0.0,0.0,0.0,0.0,0.0,0.0,0.0,0.0,0.0,0.0,0.0,0.0,0.0,0.0,0.0,0.0,0.0,0.0,0.0,0.0,0.0,0.0,0.0,0.0,0.0,0.0,0.0,0.0,0.0,0.0,0.0,0.0,0.0,0.0,0.0,0.0,0.0,0.0,0.0,0.0,0.0,0.0,0.0,0.0,0.0,0.0,0.0,0.0,0.0,0.0,0.0,0.0,0.0,0.0,0.0,0.0,0.0,0.0,0.0,0.0,0.0,0.0,0.0,0.0,0.0,0.0,0.0,0.0,0.0,-2.4481,-2.5425,-2.6375,-2.7027,-2.8721,-3.0044,-3.0642,-3.3106,-3.4949,0.0,0.0,0.0,0.0,0.0,0.0,0.0,0.0,0.0,0.0,0.0,0.0,0.0,0.0,0.0,0.0,0.0,0.0,0.0,0.0,0.0,0.0,0.0,0.0,0.0,0.0,0.0,0.0,0.0,0.0,0.0,0.0,0.0,0.0,0.0,0.0,0.0,0.0,0.0,0.0,0.0,0.0,0.0,0.0,0.0,0.0,0.0,0.0,0.0,0.0,0.0,0.0,0.0,0.0,0.0,0.0,0.0,0.0,0.0,0.0,0.0,0.0,0.0,0.0,0.0,0.0,0.0,0.0,0.0,0.0,0.0,0.0,0.0,0.0,0.0,0.0,0.0,0.0,0.0,0.0,0.0,0.0,0.0,0.0,0.0,0.0,0.0,0.0,0.0,0.0,0.0,0.0,0.0,0.0,0.0,0.0,0.0,0.0,0.0,0.0,0.0,0.0,0.0,-2.4991,-2.5632,-2.6349,-2.703,-2.8971,-3.0454,-3.1006,-3.3245,-3.4964,-3.5891,0.0,0.0,0.0,0.0,0.0,0.0,0.0,0.0,0.0,0.0,0.0,0.0,0.0,0.0,0.0,0.0,0.0,0.0,0.0,0.0,0.0,0.0,0.0,0.0,0.0,0.0,0.0,0.0,0.0,0.0,0.0,0.0,0.0,0.0,0.0,0.0,0.0,0.0,0.0,0.0,0.0,0.0,0.0,0.0,0.0,0.0,0.0,0.0,0.0,0.0,0.0,0.0,0.0,0.0,0.0,0.0,0.0,0.0,0.0,0.0,0.0,0.0,0.0,0.0,0.0,0.0,0.0,0.0,0.0,0.0,0.0,0.0,0.0,0.0,0.0,0.0,0.0,0.0,0.0,0.0,0.0,0.0,0.0,0.0,0.0,0.0,0.0,0.0,0.0,0.0,0.0,0.0,0.0,0.0,0.0,0.0,0.0,0.0,0.0,0.0,0.0,0.0,-2.5397,-2.5892,-2.6443,-2.6967,-2.9014,-3.0485,-3.0927,-3.3005,-3.4638,-3.5472,0.0,0.0,0.0,0.0,0.0,0.0,0.0,0.0,0.0,0.0,0.0,0.0,0.0,0.0,0.0,0.0,0.0,0.0,0.0,0.0,0.0,0.0,0.0,0.0,0.0,0.0,0.0,0.0,0.0,0.0,0.0,0.0,0.0,0.0,0.0,0.0,0.0,0.0,0.0,0.0,0.0,0.0,0.0,0.0,0.0,0.0,0.0,0.0,0.0,0.0,0.0,0.0,0.0,0.0,0.0,0.0,0.0,0.0,0.0,0.0,0.0,0.0,0.0,0.0,0.0,0.0,0.0,0.0,0.0,0.0,0.0,0.0,0.0,0.0,0.0,0.0,0.0,0.0,0.0,0.0,0.0,0.0,0.0,0.0,0.0,0.0,0.0,0.0,0.0,0.0,0.0,0.0,0.0,0.0,0.0,0.0,0.0,0.0,0.0,0.0,0.0,0.0,-2.5757,-2.6163,-2.6575,-2.6849,-2.8832,-3.0241,-3.0526,-3.2491,-3.3971,-3.4627,0.0,0.0,0.0,0.0,0.0,0.0,0.0,0.0,0.0,0.0,0.0,0.0,0.0,0.0,0.0,0.0,0.0,0.0,0.0,0.0,0.0,0.0,0.0,0.0,0.0,0.0,0.0,0.0,0.0,0.0,0.0,0.0,0.0,0.0,0.0,0.0,0.0,0.0,0.0,0.0,0.0,0.0,0.0,0.0,0.0,0.0,0.0,0.0,0.0,0.0,0.0,0.0,0.0,0.0,0.0,0.0,0.0,0.0,0.0,0.0,-3.2912,0.0,0.0,0.0,0.0,0.0,0.0,0.0,0.0,0.0,0.0,0.0,0.0,0.0,0.0,0.0,0.0,0.0,0.0,0.0,0.0,0.0,0.0,0.0,0.0,0.0,0.0,0.0,0.0,0.0,0.0,0.0,0.0,0.0,0.0,0.0,0.0,0.0,0.0,0.0,0.0,0.0,-2.6056,-2.619,-2.6457,-2.6721,-2.8545,-2.9833,-3.0114,-3.1891,-3.3193,-3.3579,-3.4762,0.0,0.0,0.0,0.0,0.0,0.0,0.0,0.0,0.0,0.0,0.0,0.0,0.0,0.0,0.0,0.0,0.0,0.0,0.0,0.0,0.0,0.0,0.0,0.0,0.0,0.0,0.0,0.0,0.0,0.0,0.0,0.0,0.0,0.0,0.0,0.0,0.0,0.0,0.0,0.0,0.0,0.0,0.0,0.0,0.0,0.0,0.0,0.0,0.0,0.0,0.0,0.0,0.0,0.0,0.0,0.0,0.0,0.0,0.0,0.0,-3.1613,0.0,0.0,0.0,0.0,0.0,0.0,0.0,0.0,0.0,0.0,0.0,0.0,0.0,0.0,0.0,0.0,0.0,0.0,0.0,0.0,0.0,0.0,0.0,0.0,0.0,0.0,0.0,0.0,0.0,0.0,0.0,0.0,0.0,0.0,0.0,0.0,0.0,0.0,0.0,0.0,-2.6056,-2.6123,-2.627,-2.6484,-2.8209,-2.9441,-2.9657,-3.1287,-3.2407,-3.2698,-3.3607,0.0,0.0,0.0,0.0,0.0,0.0,0.0,0.0,0.0,0.0,0.0,0.0,0.0,0.0,0.0,0.0,0.0,0.0,0.0,0.0,0.0,0.0,0.0,0.0,0.0,0.0,0.0,0.0,0.0,0.0,0.0,0.0,0.0,0.0,0.0,0.0,0.0,0.0,0.0,0.0,0.0,0.0,0.0,0.0,0.0,0.0,0.0,0.0,0.0,0.0,0.0,0.0,0.0,-3.0364,-2.9933,-2.9496,-2.8957,-2.8707,-2.8771,-2.9435,-2.9962,-3.0343,-3.0778,0.0,0.0,0.0,0.0,0.0,0.0,0.0,0.0,0.0,0.0,0.0,0.0,0.0,0.0,0.0,0.0,0.0,0.0,0.0,0.0,0.0,0.0,0.0,0.0,-2.3409,-2.3703,-2.4324,0.0,0.0,0.0,0.0,0.0,0.0,0.0,0.0,0.0,0.0,0.0,-2.5825,-2.5893,-2.6015,-2.6122,-2.7712,-2.8855,-2.9096,-3.0486,-3.1474,-3.1806,-3.2454,-3.3093,0.0,0.0,0.0,0.0,0.0,0.0,0.0,0.0,0.0,0.0,0.0,0.0,0.0,0.0,0.0,0.0,0.0,0.0,0.0,0.0,0.0,0.0,0.0,0.0,0.0,0.0,0.0,0.0,0.0,0.0,0.0,0.0,-2.638,-2.6973,0.0,0.0,0.0,0.0,0.0,0.0,0.0,0.0,0.0,0.0,0.0,0.0,0.0,-3.0183,-2.9973,-2.9687,-2.9402,-2.9118,-2.8949,-2.8792,-2.8728,-2.8471,-2.8384,-2.8352,-2.8346,0.0,-2.9484,-2.9839,0.0,0.0,0.0,0.0,0.0,0.0,0.0,0.0,0.0,0.0,0.0,0.0,0.0,0.0,0.0,0.0,0.0,0.0,0.0,0.0,0.0,0.0,-2.4007,-2.3224,-2.3187,-2.3372,0.0,-2.4277,-2.5129,-2.5452,-2.5569,0.0,0.0,0.0,0.0,0.0,0.0,0.0,-2.5356,-2.5412,-2.5495,-2.5508,-2.6637,-2.7625,-2.8297,-2.9305,-3.0119,-3.0689,-3.1275,-3.1804,-3.2167,-3.2866,0.0,0.0,0.0,0.0,0.0,0.0,0.0,0.0,0.0,0.0,0.0,0.0,0.0,0.0,0.0,0.0,0.0,0.0,0.0,0.0,0.0,0.0,0.0,0.0,0.0,0.0,0.0,0.0,0.0,-2.5407,-2.6186,-2.6748,-2.761,-2.8365,0.0,0.0,0.0,0.0,0.0,0.0,0.0,0.0,0.0,-2.9856,-2.9501,-2.9188,-2.8853,-2.872,-2.8495,-2.8222,-2.8183,-2.8085,-2.7987,-2.7875,-2.7842,-2.7842,-2.7802,-2.802,-2.8514,-2.9135,-2.9685,-3.0103,0.0,0.0,0.0,0.0,-2.8611,-2.7729,-2.7043,-2.6514,-2.6139,-2.5861,0.0,0.0,0.0,0.0,0.0,0.0,0.0,0.0,0.0,0.0,-2.3897,-2.3298,-2.3224,-2.3335,-2.3446,-2.3959,-2.4565,0.0,-2.5128,-2.5141,-2.5481,0.0,0.0,0.0,0.0,-2.4824,-2.4595,-2.4709,-2.4823,-2.4908,-2.5907,-2.672,-2.7042,-2.813,-2.8987,-2.9345,-3.0021,-3.0585,-3.0984,-3.1603,-3.2133,0.0,0.0,0.0,0.0,0.0,0.0,0.0,0.0,0.0,0.0,0.0,0.0,0.0,0.0,0.0,0.0,0.0,0.0,0.0,0.0,0.0,0.0,0.0,0.0,0.0,0.0,0.0,0.0,-2.5312,-2.5886,-2.6508,-2.7255,-2.7941,0.0,0.0,0.0,0.0,0.0,0.0,-3.0131,-2.9716,-2.9341,-2.9044,-2.8739,-2.8417,-2.8157,-2.8137,-2.7973,-2.7723,-2.7723,-2.7623,-2.7469,-2.7469,-2.7436,-2.7369,-2.7369,-2.7469,-2.7656,-2.8444,-2.8931,-2.9205,-2.9411,-2.9178,-2.8707,-2.8147,-2.7365,-2.6492,-2.5953,-2.5558,-2.5288,-2.5076,-2.5028,-2.5028,-2.5028,0.0,0.0,0.0,0.0,-2.4707,-2.4298,-2.408,-2.3897,-2.3519,-2.3446,-2.3482,-2.3629,-2.3787,-2.4116,0.0,-2.4594,-2.4426,-2.4886,0.0,0.0,0.0,0.0,-2.3859,-2.3809,-2.3943,-2.4118,-2.4263,-2.5126,-2.5724,-2.5873,-2.6838,-2.7601,-2.8054,-2.8637,-2.9222,-2.9766,-3.0256,-3.069,-3.1084,0.0,0.0,0.0,0.0,0.0,0.0,0.0,0.0,0.0,0.0,0.0,0.0,0.0,0.0,0.0,0.0,0.0,0.0,0.0,0.0,0.0,0.0,0.0,0.0,0.0,0.0,0.0,0.0,0.0,-2.6198,-2.6985,0.0,0.0,0.0,0.0,-2.9341,-2.9243,-2.9162,-2.9162,-2.8844,-2.8573,-2.8352,-2.8039,-2.7842,-2.7842,-2.7656,-2.7523,-2.7523,-2.7523,-2.7436,-2.7302,-2.7302,-2.7214,-2.7024,-2.7024,-2.7024,-2.7079,-2.7623,-2.8072,-2.8352,-2.8163,-2.7887,-2.7504,-2.6896,-2.6252,-2.5571,-2.5064,-2.4718,-2.4526,-2.4309,-2.4261,-2.4261,-2.4261,-2.4261,0.0,0.0,-2.4225,-2.4225,-2.42,-2.42,-2.4127,-2.3934,-2.3861,-2.3861,-2.3897,-2.3897,-2.408,0.0,-2.4242,-2.3857,-2.4186,0.0,-2.298,-2.298,-2.298,-2.2962,-2.2969,-2.3245,-2.3514,-2.3616,-2.3982,-2.4436,-2.5013,-2.5259,-2.5826,-2.6895,-2.7173,-2.7645,-2.8357,-2.8538,-2.8812,-2.9146,-2.9617,0.0,0.0,0.0,0.0,0.0,0.0,0.0,0.0,0.0,0.0,0.0,0.0,0.0,0.0,0.0,0.0,0.0,0.0,0.0,0.0,0.0,0.0,0.0,0.0,0.0,0.0,0.0,0.0,-2.5594,-2.6208,0.0,-2.7142,-2.7663,-2.8078,-2.832,-2.8365,-2.8398,-2.8398,-2.8558,-2.8639,-2.8558,-2.8691,-2.8764,-2.8764,-2.8682,-2.8591,-2.8464,-2.8464,-2.8263,-2.7921,-2.7599,-2.7316,-2.7129,-2.6763,-2.6543,-2.6474,-2.6543,-2.685,-2.7242,-2.7048,-2.6676,-2.6208,-2.5732,-2.53,-2.4849,-2.4526,-2.4273,-2.4043,-2.3751,-2.3519,-2.3409,-2.3261,-2.3224,-2.3261,-2.3372,-2.3519,-2.3677,-2.3934,-2.4007,-2.4007,-2.408,-2.408,-2.408,-2.408,-2.408,-2.4061,-2.3918,-2.3525,-2.3225,-2.3325,-2.2667,-2.2142,-2.2142,-2.2142,-2.2173,-2.2235,-2.2482,-2.2714,-2.2927,-2.3198,-2.3454,-2.3747,-2.417,-2.4664,-2.5169,-2.5942,-2.6531,-2.6935,-2.7538,-2.792,-2.8019,-2.8538,-2.8907,0.0,0.0,0.0,0.0,0.0,0.0,0.0,0.0,0.0,0.0,0.0,0.0,0.0,0.0,0.0,0.0,0.0,0.0,0.0,0.0,0.0,0.0,0.0,0.0,0.0,0.0,-2.5052,-2.5194,-2.5652,-2.6035,-2.6302,-2.6756,-2.7159,-2.7467,-2.7683,-2.791,-2.8072,-2.8464,-2.8686,-2.8686,-2.8911,-2.9048,-2.9048,-2.9048,-2.8941,-2.8774,-2.8703,-2.8424,-2.7999,-2.7563,-2.7244,-2.7039,-2.6681,-2.6387,-2.6168,-2.5956,-2.5952,-2.606,-2.5965,-2.5699,-2.5265,-2.4886,-2.4539,-2.4273,-2.397,-2.3714,-2.3446,-2.3113,-2.2804,-2.2542,-2.2365,-2.2289,-2.2327,-2.2542,-2.2804,-2.3075,-2.3409,-2.3567,-2.3641,-2.3751,-2.3861,-2.3897,-2.3897,-2.3834,-2.3654,-2.3288,-2.3018,-2.274,-2.2545,-2.1895,-2.1403,-2.1383,-2.1403,-2.1466,-2.1549,-2.1769,-2.2006,-2.218,-2.2365,-2.2488,-2.2598,-2.2948,-2.3368,-2.3754,-2.4613,-2.5265,-2.5632,-2.6384,-2.6765,-2.6765,-2.7351,-2.7848,-2.8228,0.0,0.0,0.0,0.0,0.0,0.0,0.0,0.0,0.0,0.0,0.0,0.0,0.0,0.0,0.0,0.0,0.0,0.0,0.0,0.0,0.0,0.0,0.0,-2.4116,-2.4635,-2.4981,-2.4981,-2.5312,-2.5571,-2.5571,-2.5933,-2.64,-2.6825,-2.7268,-2.771,-2.8241,-2.8497,-2.8605,-2.8605,-2.863,-2.863,-2.863,-2.863,-2.8535,-2.833,-2.8122,-2.7816,-2.7421,-2.7198,-2.701,-2.681,-2.6786,-2.6511,-2.6092,-2.5849,-2.5406,-2.4813,-2.4933,-2.4897,-2.4718,-2.4309,-2.4043,-2.3824,-2.3409,-2.3001,-2.2628,-2.244,-2.208,-2.1728,-2.153,-2.1464,-2.1502,-2.17,-2.2042,-2.2402,-2.2628,-2.2815,-2.2964,-2.2964,-2.315,-2.3261,-2.3276,-2.3045,-2.2842,-2.2844,-2.2706,-2.2433,-2.1798,-2.1211,-2.0839,-2.0701,-2.0786,0.0,-2.0871,-2.1178,-2.1356,-2.1356,-2.1502,-2.1553,-2.1553,-2.1585,-2.1871,-2.2603,-2.315,-2.3776,-2.4518,-2.5023,-2.5252,-2.5312,-2.6,-2.6799,-2.765,0.0,0.0,0.0,0.0,0.0,0.0,0.0,0.0,0.0,0.0,0.0,0.0,0.0,0.0,0.0,0.0,0.0,0.0,0.0,0.0,0.0,0.0,-2.2964,-2.3677,-2.4032,-2.4213,-2.4213,-2.455,-2.4849,-2.5004,-2.5541,-2.6034,-2.6287,-2.6883,-2.7348,-2.7631,-2.8263,-2.8687,-2.8799,-2.9202,-2.9404,-2.9404,-2.9264,-2.9086,-2.8881,-2.8664,-2.8354,-2.7951,-2.7502,-2.7219,-2.6987,-2.6623,-2.6273,-2.5969,-2.5384,-2.4966,-2.4705,-2.4509,-2.4298,-2.4091,-2.3714,-2.3335,-2.2964,-2.2553,-2.2279,-2.2004,-2.1645,-2.1262,-2.0905,-2.0683,-2.0615,-2.0654,-2.0867,-2.1223,-2.1617,-2.1966,-2.2203,-2.2365,-2.2515,-2.2628,-2.2606,-2.2407,-2.2295,-2.2062,-2.1352,-2.1214,-2.1184,-2.123,-2.0731,-2.0302,-2.0269,-2.0302,0.0,-2.0334,-2.0399,-2.0516,-2.0656,-2.0709,-2.0773,-2.088,-2.088,-2.1001,-2.1374,-2.1901,-2.2586,-2.3426,-2.4023,-2.4636,-2.53,-2.5629,-2.607,0.0,0.0,0.0,0.0,0.0,0.0,0.0,0.0,0.0,0.0,0.0,0.0,0.0,0.0,0.0,0.0,0.0,0.0,0.0,0.0,0.0,0.0,-2.1873,-2.2042,-2.2531,-2.3213,-2.3641,-2.3641,-2.4189,-2.462,-2.4742,-2.5417,-2.604,-2.6377,-2.6928,-2.737,-2.774,-2.8248,-2.8613,-2.8741,-2.9024,-2.9184,-2.9184,-2.9079,-2.8882,-2.8554,-2.8355,-2.7995,-2.7458,-2.7088,-2.68,-2.657,-2.6263,-2.5933,-2.5599,-2.5166,-2.4652,0.0,0.0,0.0,0.0,0.0,-2.2306,-2.1738,-2.151,-2.1193,-2.0837,-2.0595,-2.0255,-1.9902,-1.9784,-1.9754,-1.9794,-2.001,-2.0333,-2.0731,-2.1088,-2.1328,-2.1492,-2.1634,-2.1711,-2.17,-2.1418,-2.1276,-2.099,-2.0276,-1.9902,0.0,-1.9887,-1.982,-1.9737,-1.9682,-1.9748,-1.9737,-1.9682,-1.9737,-1.9802,-1.9846,-1.9846,-1.9846,-1.9857,-1.9857,0.0,0.0,0.0,-2.1553,-2.2788,-2.3395,0.0,0.0,0.0,-2.5064,-2.5417,0.0,0.0,0.0,-2.7332,-2.709,0.0,0.0,0.0,0.0,0.0,0.0,0.0,0.0,0.0,0.0,0.0,0.0,0.0,0.0,0.0,0.0,-2.1136,-2.1011,-2.1011,-2.2159,-2.3078,-2.3227,-2.4026,-2.4582,-2.465,-2.5421,-2.6096,-2.6546,-2.6983,-2.7443,-2.7943,0.0,0.0,0.0,0.0,-2.8259,-2.8259,-2.8259,-2.8035,-2.7609,-2.7377,-2.694,-2.6404,-2.6196,-2.5999,-2.5812,-2.5812,-2.555,-2.5096,-2.5001,-2.4255,-2.3129,-2.3149,-2.299,-2.2654,-2.1918,-2.1116,-2.0382,-2.0382,0.0,0.0,-1.9529,-1.9262,-1.8962,-1.8962,-1.8962,-1.9002,-1.9192,-1.9499,-1.9863,-2.0108,-2.0333,-2.0489,-2.045,-2.0556,-2.0592,-2.0334,-2.0042,-1.9717,-1.9357,-1.8771,-1.8307,-1.8168,-1.8687,-1.911,-1.8998,-1.9088,-1.911,-1.8998,-1.9088,-1.9121,-1.9008,0.0,0.0,-1.8707,-1.8707,-1.8808,-1.8998,-1.9669,-2.0759,-2.2292,-2.2845,-2.3316,-2.3751,-2.3751,-2.3959,-2.4371,-2.4468,-2.4612,-2.4826,-2.5592,-2.5826,0.0,0.0,0.0,0.0,0.0,0.0,0.0,0.0,0.0,0.0,0.0,0.0,0.0,0.0,0.0,-2.0031,-1.9913,-1.9913,-1.9913,-2.0712,-2.1688,-2.2773,-2.3322,-2.3847,-2.4397,-2.4937,-2.5326,-2.5426,-2.5894,-2.6326,-2.6558,-2.6599,-2.6734,-2.6899,-2.6899,-2.6899,-2.6899,-2.6734,-2.6599,-2.6517,0.0,0.0,-2.5695,-2.5485,-2.5369,-2.5327,-2.5327,-2.5274,-2.5114,-2.4335,-2.3104,-2.167,-2.198,-2.1766,-2.1242,-2.0702,-2.0187,-1.9756,-1.9569,-1.9341,-1.9112,-1.9112,-1.8962,-1.8772,-1.8772,-1.8772,0.0,-1.8812,-1.9121,-1.9381,-1.9271,-1.9518,-1.9754,-1.9578,-1.9327,-1.9088,-1.9076,-1.861,-1.8154,-1.7839,-1.7592,-1.7407,-1.721,-1.7759,-1.8236,-1.8212,-1.8236,-1.8236,-1.8212,-1.8236,-1.8236,-1.8212,-1.8202,-1.8212,-1.8178,-1.8144,-1.8245,-1.8438,-1.9342,-2.0174,-2.0881,-2.1609,-2.2304,-2.2916,-2.2927,-2.315,-2.3519,-2.3398,-2.3434,-2.3655,-2.4719,-2.5135,0.0,0.0,0.0,0.0,0.0,0.0,0.0,0.0,0.0,0.0,0.0,-2.0489,0.0,0.0,-1.9539,-1.9341,-1.9231,-1.9216,-1.9366,-1.9841,-2.0659,-2.1878,-2.2743,-2.3428,-2.3861,-2.4427,-2.4786,-2.4786,-2.5062,-2.5232,-2.5348,-2.5348,-2.5432,-2.5631,-2.5631,-2.5726,-2.5863,-2.5737,-2.5558,-2.5348,-2.5094,-2.4754,-2.4317,-2.4188,-2.4016,-2.38,-2.38,-2.38,-2.3717,-2.2925,-2.2006,-2.1036,-2.0787,-2.0458,-2.004,-1.9736,-1.9341,-1.8984,-1.8865,-1.8625,-1.8345,-1.8345,-1.8193,-1.8049,-1.8049,-1.8049,-1.8089,-1.8161,-1.8345,-1.8505,-1.8514,-1.8643,-1.8754,-1.8665,-1.8372,-1.8098,-1.8117,-1.767,-1.7188,-1.6903,-1.6647,-1.6438,-1.6237,-1.6403,-1.6786,-1.7348,-1.7461,-1.7461,-1.7461,-1.7554,-1.7588,-1.7588,-1.7701,-1.7701,-1.7623,-1.752,-1.7554,-1.7759,-1.8404,-1.9082,-1.9735,-2.0443,-2.1114,-2.1728,-2.1977,-2.2214,-2.2402,-2.2515,-2.2542,-2.2569,-2.3243,-2.3669,0.0,0.0,0.0,0.0,0.0,0.0,0.0,0.0,-1.9717,-1.9717,-1.9559,-1.9411,-1.9362,-1.9103,-1.8882,-1.8794,-1.8754,-1.8783,-1.9041,-1.9383,-1.997,-2.0876,-2.2041,-2.2862,-2.3195,-2.375,-2.4102,-2.4102,-2.4102,-2.4102,-2.4102,-2.4102,-2.4188,-2.4317,-2.4307,-2.4445,-2.4669,-2.4669,-2.4456,-2.4102,-2.4059,-2.3627,-2.2877,-2.2843,-2.2624,-2.2183,-2.2085,-2.2041,-2.1924,-2.1255,-2.0777,-2.0374,-1.9591,-1.9117,-1.8892,-1.89,-1.8643,-1.8273,-1.8273,-1.7991,-1.7578,-1.7578,-1.7424,-1.727,-1.727,-1.727,-1.731,-1.7416,-1.7489,-1.7529,-1.7619,-1.7668,-1.7668,-1.7627,-1.7332,-1.7037,-1.7121,-1.6653,-1.6167,-1.6008,-1.5692,-1.5409,-1.5248,-1.5098,-1.5346,-1.6412,-1.6551,-1.6586,-1.6621,-1.676,-1.689,-1.6925,-1.7072,-1.7107,-1.6959,-1.6795,-1.676,-1.6925,-1.7254,-1.783,-1.8681,-1.9256,-1.9896,-2.0556,-2.0944,-2.1156,-2.1233,-2.152,-2.1624,-2.1489,-2.1603,-2.2107,-2.0177,-1.9943,-1.9795,-1.9795,-1.9608,-1.9411,0.0,0.0,-1.9112,-1.9112,-1.8922,-1.8772,-1.8554,-1.8523,-1.8402,-1.8152,-1.8396,-1.8619,-1.8662,-1.9264,-1.9834,-2.0175,-2.1053,-2.1834,-2.2456,-2.2585,-2.2614,-2.2614,-2.2614,-2.2614,-2.2614,-2.2614,-2.2658,-2.2658,-2.2658,-2.2702,-2.2702,-2.2702,-2.2702,-2.2614,-2.2448,-2.2315,-2.2183,-2.1989,-2.1722,-2.149,-2.0988,-2.0682,-2.0475,-1.9819,-1.9278,-1.8806,-1.8365,-1.7878,-1.7537,-1.82,-1.8184,-1.7781,-1.7781,-1.7497,-1.718,-1.718,-1.6976,-1.6779,-1.6779,-1.6779,-1.6738,-1.6599,-1.6665,-1.6739,-1.6386,-1.6435,-1.6517,-1.6345,-1.5823,-1.5459,-1.575,-1.5075,-1.4457,-1.4724,-1.451,-1.4274,-1.4274,-1.4238,-1.4489,-1.5267,-1.5382,-1.5453,-1.5638,-1.5674,-1.5771,-1.5939,-1.5974,-1.5974,-1.5974,-1.5939,-1.5939,-1.5974,-1.6167,-1.6687,-1.7637,-1.7913,-1.8589,-1.9698,-1.9795,-2.0001,-2.0362,-2.0226,-2.0226,-2.0391,-2.0216,-2.0865,-1.9262,0.0,0.0,0.0,-1.8913,-1.8794,-1.8794,-1.8594,-1.8442,-1.8442,-1.8362,-1.8282,-1.8201,-1.8161,-1.8112,0.0,-1.8348,-1.8665,-1.8938,-1.9401,-1.9821,-2.0169,-2.0535,-2.0989,-2.1552,-2.1615,-2.1615,-2.1615,-2.1615,-2.1615,-2.1615,-2.1615,-2.1615,-2.1615,-2.1615,-2.1516,-2.1338,-2.1338,-2.1204,-2.0917,-2.0881,-2.0664,-2.0402,-2.032,-2.0048,-1.9621,-1.9438,-1.9217,-1.8996,-1.8706,-1.8334,-1.795,-1.7765,-1.7412,-1.7063,-1.7537,-1.7442,-1.7098,-1.6968,-1.6771,-1.6492,-1.636,-1.6147,-1.594,-1.594,-1.5865,-1.5748,-1.5658,-1.5609,-1.5511,-1.5311,-1.536,-1.5394,-1.5311,-1.4783,-1.4397,-1.4686,-1.3954,-1.3288,-1.3557,-1.331,-1.3032,-1.3032,-1.3032,-1.3178,-1.3462,-1.4122,-1.4553,-1.4517,-1.4669,-1.4875,-1.5081,-1.5108,-1.5108,-1.5108,-1.4974,-1.4947,-1.4947,-1.5018,-1.5482,-1.6396,-1.6901,-1.7646,-1.8647,-1.9063,-1.9341,-1.9508,-1.9529,-1.9529,-1.9508,-1.9292,-1.955,-1.8411,0.0,0.0,-1.8331,-1.8241,-1.8112,-1.8031,-1.787,-1.7749,-1.7749,-1.7749,-1.7789,-1.791,-1.791,-1.791,-1.791,-1.831,-1.8718,-1.887,-1.9282,-1.9634,-1.9849,-1.9882,-2.0011,-2.0365,-2.0591,-2.069,-2.069,-2.0591,-2.0501,-2.0501,-2.0447,-2.0402,-2.0402,-2.0311,-2.0175,-1.9994,-1.9948,-1.972,-1.9392,-1.9392,-1.9217,-1.8912,-1.8819,-1.8535,-1.811,-1.7971,-1.7792,-1.7567,-1.752,-1.7279,-1.702,-1.702,-1.6815,-1.6485,-1.6524,-1.6542,-1.6526,-1.6219,-1.5948,-1.5665,-1.5401,-1.5228,-1.5061,-1.5061,-1.4943,-1.4831,-1.4748,-1.4573,-1.4405,-1.4272,-1.4272,-1.423,-1.4188,-1.3689,-1.3338,-1.3475,-1.2744,-1.215,-1.2285,-1.2027,-1.1818,-1.1892,-1.1892,-1.1892,-1.1892,-1.2696,-1.3324,-1.347,-1.3724,-1.3977,-1.4106,-1.4142,-1.4142,-1.4142,-1.4013,-1.3912,-1.3912,-1.4032,-1.4528,-1.5419,-1.6047,-1.6787,-1.7619,-1.8112,-1.8353,-1.8353,-1.8505,-1.8505,-1.8353,-1.8224,-1.8144,0.0,0.0,-1.7432,-1.7432,-1.7432,-1.7392,-1.718,-1.7131,-1.7139,-1.7139,-1.7139,-1.7253,-1.7659,-1.77,-1.77,-1.77,-1.8322,-1.8646,-1.8213,-1.8779,-1.9134,-1.8874,-1.8827,-1.8827,0.0,-1.9517,-1.9928,-1.9928,-1.9509,-1.9234,-1.9234,-1.9012,-1.8874,-1.8874,-1.8627,-1.8481,-1.8481,-1.8265,-1.8179,-1.8125,-1.8125,-1.8133,-1.8133,-1.7878,-1.7598,-1.7333,-1.6864,-1.648,-1.6237,-1.5967,-1.5872,-1.5866,-1.5866,-1.5631,-1.5337,-1.5044,-1.5491,-1.6124,-1.5587,-1.5151,-1.4692,-1.4524,-1.4307,-1.4139,-1.4139,-1.4139,-1.4062,-1.3815,-1.3737,-1.3652,-1.3264,-1.3137,-1.3094,-1.2833,-1.2342,-1.1954,-1.1976,-1.1364,-1.085,-1.085,-1.07,-1.0625,-1.0812,-1.085,-1.085,-1.085,-1.1037,-1.1558,-1.2526,-1.282,-1.2936,-1.2936,-1.2936,-1.2936,-1.2936,-1.2936,-1.2936,-1.2936,-1.336,-1.3977,-1.4778,-1.5298,-1.5915,-1.6722,-1.6771,-1.6779,-1.6779,-1.6771,-1.6771,-1.6779,-1.6771,-1.6771,-1.6812,0.0,-1.6894,-1.6771,-1.673,-1.6722,-1.664,-1.6509,-1.6427,-1.6427,-1.6558,-1.6681,-1.6804,-1.6968,-1.7057,-1.7057,-1.7488,-1.7822,-1.7648,-1.8112,-1.8458,-1.8365,-1.8319,0.0,0.0,0.0,0.0,-1.8896,-1.8758,-1.8627,-1.8504,-1.8357,-1.8265,-1.8071,-1.7785,-1.7512,-1.7232,-1.6951,-1.6763,-1.6581,-1.6581,-1.6581,-1.6581,-1.648,-1.6292,-1.6048,-1.5866,-1.5683,-1.5452,-1.5363,-1.5315,-1.5315,-1.5315,-1.5257,-1.5115,-1.4487,-1.443,-1.4628,-1.4356,-1.4153,-1.3984,-1.3815,-1.3688,-1.3603,-1.347,-1.33,-1.3082,-1.2699,-1.2583,-1.246,-1.202,-1.2057,-1.2057,-1.1671,-1.1216,-1.0818,-1.0651,-1.0006,-0.942,-0.942,-0.9344,-0.9344,-0.9382,-0.9642,-0.983,-0.9992,-1.0625,-1.126,-1.1744,-1.1966,-1.2114,-1.2114,-1.2114,-1.2114,-1.2114,-1.2114,-1.2114,-1.2114,-1.2548,-1.3072,-1.3717,-1.4304,-1.4943,-1.5636,-1.5767,-1.5858,-1.5858,-1.5858,-1.5858,-1.5809,-1.5684,-1.5643,-1.5989,-1.6031,-1.6113,-1.5989,-1.5948,-1.5899,-1.5809,-1.5643,-1.547,-1.547,-1.5643,-1.5858,-1.6023,-1.6188,-1.636,-1.636,-1.6722,-1.694,-1.6764,-1.7151,-1.738,-1.7286,-1.7286,-1.7286,0.0,0.0,0.0,-1.7971,-1.7831,-1.7645,-1.7419,-1.7333,-1.7185,-1.7037,-1.6756,-1.648,-1.615,-1.5913,-1.5683,-1.5404,-1.5404,-1.5356,-1.5255,-1.5255,-1.5112,-1.486,-1.486,-1.4729,-1.455,-1.455,-1.4454,-1.4406,-1.4406,-1.4298,-1.4058,-1.3383,-1.3068,-1.3016,-1.32,-1.3222,-1.3179,-1.2875,-1.279,-1.2747,-1.2534,-1.2277,-1.2015,-1.1714,-1.1548,-1.1381,-1.0939,-1.0939,-1.0939,-1.0458,-1.0053,-0.9736,-0.9495,-0.8895,-0.8404,-0.8298,-0.8284,-0.8284,-0.8356,-0.8656,-0.8922,-0.9127,-0.9798,-1.0432,-1.0925,-1.1149,-1.126,-1.126,-1.126,-1.126,-1.126,-1.126,-1.126,-1.126,-1.1807,-1.2329,-1.2731,-1.3398,-1.3986,-1.4468,-1.4601,-1.4692,-1.4692,-1.4692,-1.4692,-1.4685,-1.4559,-1.4475,-1.5082,-1.5048,-1.5048,-1.5048,-1.5048,-1.4957,-1.4699,-1.4482,-1.4356,-1.4356,-1.4524,-1.4776,0.0,0.0,-1.5609,-1.5609,-1.5935,-1.6043,-1.5606,-1.5906,-1.6055,0.0,0.0,0.0,0.0,0.0,0.0,-1.7044,0.0,-1.6393,-1.6143,-1.5872,-1.573,-1.5737,-1.5486,-1.5337,-1.5343,-1.5118,-1.4885,-1.4646,-1.4592,-1.4448,-1.4202,-1.4202,-1.4052,-1.3806,-1.3806,-1.3673,-1.3443,-1.3443,-1.3249,-1.305,-1.3039,-1.2741,-1.2267,-1.179,-1.1469,-1.1423,-1.2014,-1.2277,-1.2235,-1.18,-1.1628,-1.1585,-1.1327,-1.1111,-1.0939,-1.0895,-1.0679,-1.0376,-0.9903,-0.9816,-0.968,-0.9235,-0.8961,-0.8737,-0.8391,-0.812,-0.7818,-0.749,-0.745,-0.7518,-0.7706,-0.7931,-0.8127,-0.8289,-0.8513,-0.9003,-1.003,-1.0331,-1.0443,-1.0443,-1.0443,-1.0443,-1.0443,-1.0443,-1.0443,-1.0455,-1.1122,-1.164,-1.1926,-1.2552,-1.3045,-1.3307,-1.3307,-1.3307,-1.3307,-1.3307,-1.3307,-1.3307,-1.3307,-1.3307,-1.4117,-1.4195,-1.4314,-1.4117,-1.4075,-1.4033,-1.3984,-1.3815,-1.3646,-1.3646,-1.3815,-1.3984,0.0,0.0,0.0,-1.4517,-1.4817,0.0,-1.4854,-1.5179,0.0,-1.5022,0.0,-1.4879,-1.4682,-1.4682,0.0,0.0,-1.5092,-1.5391,-1.5112,-1.5022,-1.4879,-1.4682,-1.4634,-1.4484,-1.4286,-1.3817,-1.3582,-1.3485,-1.3141,-1.2948,-1.2899,-1.2657,-1.2559,-1.2462,-1.2462,-1.2462,-1.237,-1.237,-1.2322,-1.2252,-1.1884,-1.1682,-1.1492,-1.074,-1.0391,-1.031,-0.992,-1.0371,-1.1025,-1.0939,-1.0895,-1.0809,-1.0376,-1.0111,-0.9845,-0.9283,-0.9109,-0.8934,-0.8448,-0.85,-0.85,-0.8057,-0.7758,-0.7588,-0.7331,-0.7021,-0.6777,-0.6698,-0.6755,-0.6907,-0.7092,-0.7288,-0.7407,-0.7288,-0.7595,-0.8169,-0.9193,-0.949,-0.9604,-0.9604,-0.9722,-0.9846,-0.9846,-0.9846,-0.9878,-1.0048,-1.0296,-1.0575,-1.0921,-1.1298,-1.1714,-1.2143,-1.1929,-1.1929,-1.2143,-1.1929,-1.1843,-1.1843,-1.1843,-1.1843,-1.3483,-1.3561,-1.3639,-1.3476,-1.344,-1.344,-1.344,-1.3264,-1.3094,-1.3094,-1.3264,0.0,-1.344,-1.3646,0.0,0.0,0.0,0.0,-1.4141,-1.44,-1.4454,0.0,-1.4064,0.0,-1.3769,-1.3576,-1.3329,0.0,-1.3848,-1.4238,-1.3871,-1.3871,-1.3823,-1.3624,-1.3528,-1.3335,-1.3087,-1.2754,-1.2516,-1.2268,-1.198,-1.1683,-1.1331,-1.1184,-1.1037,-1.0939,0.0,-1.0939,-1.0939,-1.0939,-1.0835,-1.0646,-1.0389,-1.0146,-0.9875,-0.9254,-0.8988,-0.8811,-0.8312,-0.854,-0.9109,-0.9458,-0.955,-0.9462,-0.9109,-0.8842,-0.858,-0.8189,-0.7973,-0.7797,-0.7445,-0.7492,-0.7496,-0.7092,-0.6859,-0.6653,-0.65,-0.6237,-0.597,-0.5851,-0.5967,-0.6133,-0.618,-0.6367,-0.6486,-0.6479,-0.6633,-0.7015,-0.7698,-0.819,-0.8537,-0.8618,-0.8737,-0.8851,-0.8927,-0.8904,-0.8927,-0.9041,-0.9249,-0.9424,-0.9667,-1.0134,-1.0511,-1.0766,-1.0766,-1.0766,-1.0766,-1.0636,-1.0549,-1.0549,-1.0414,-1.0458,-1.3009,-1.2966,-1.2973,-1.3009,-1.2966,-1.2966,-1.2966,-1.279,-1.2662,-1.2662,0.0,-1.3052,-1.3052,-1.3179,-1.3307,-1.3264,0.0,-1.3701,-1.3377,-1.3602,-1.369,-1.3346,-1.305,-1.2856,-1.2807,-1.237,-1.2127,-1.2024,-1.264,-1.2888,-1.2613,-1.2565,-1.2511,-1.2511,-1.2219,-1.1975,-1.1731,-1.1683,-1.1375,-1.0907,-1.0858,-1.0449,-0.973,-0.973,-0.9584,-0.9343,-0.9343,-0.9343,-0.9343,-0.9343,-0.9154,-0.8825,-0.8754,-0.8477,-0.7996,-0.7706,-0.752,-0.7312,-0.7051,-0.6962,-0.7051,-0.7801,-0.8069,-0.8021,-0.7749,-0.7529,-0.7356,-0.7268,-0.7092,-0.683,-0.6615,-0.6571,-0.6482,-0.6254,-0.608,-0.5874,-0.5765,-0.5516,-0.5267,-0.5007,-0.517,-0.5302,-0.5272,-0.5373,-0.5571,-0.5761,-0.58,-0.5836,-0.6028,-0.6802,-0.7391,-0.7548,-0.7612,-0.7739,-0.7889,-0.7872,-0.7873,-0.7897,-0.8151,-0.8331,-0.8355,-0.8987,-0.9384,-0.9471,-0.9646,-0.9646,-0.9471,-0.9384,-0.9379,-0.9336,-0.9109,-0.9109,-1.2454,-1.2375,-1.2246,-1.2454,-1.2332,-1.2209,-1.2209,-1.2326,0.0,0.0,-1.2619,-1.279,-1.279,-1.279,-1.279,-1.2619,-1.2936,-1.3099,0.0,0.0,-1.3001,0.0,0.0,0.0,0.0,0.0,0.0,0.0,-1.0194,-1.0641,-1.1438,-1.1282,-1.1126,-1.1126,-1.0685,-1.0395,-1.0346,-0.9903,-0.9584,-0.9384,-0.8954,-0.8597,-0.8415,-0.8179,-0.8088,-0.804,-0.804,0.0,-0.804,-0.804,-0.7975,-0.7893,-0.7578,-0.7361,-0.7255,-0.6818,-0.6627,-0.6561,-0.6346,-0.6124,-0.6074,-0.7007,-0.7272,-0.7231,-0.7054,-0.6789,-0.6517,-0.6118,-0.5855,-0.5636,-0.5366,-0.5322,-0.5322,-0.5233,-0.5102,-0.4921,-0.4903,-0.4612,-0.4344,-0.436,-0.438,-0.4539,-0.4891,-0.5012,-0.5054,-0.5136,-0.5177,-0.518,-0.5185,-0.5921,-0.6433,-0.6472,-0.6741,-0.69,-0.6936,-0.7049,-0.7161,-0.7341,-0.7225,-0.7311,-0.7661,-0.7962,-0.8288,-0.8675,-0.8592,-0.8592,-0.8675,-0.8321,-0.8097,-0.8097,-0.8053,-0.7965,-1.1935,-1.1849,-1.1682,-1.1977,-1.1849,-1.1639,-1.1639,0.0,0.0,0.0,-1.2198,-1.2332,-1.2332,-1.224,0.0,-1.2063,-1.2221,-1.218,0.0,0.0,0.0,0.0,0.0,0.0,0.0,0.0,-0.927,-0.9019,-0.8718,-0.8966,-0.9912,-0.9805,-0.9706,-0.9558,-0.9312,-0.9076,-0.889,-0.8649,-0.8371,-0.8116,-0.7835,-0.756,-0.7255,-0.7114,-0.7023,-0.6838,-0.6738,-0.6643,-0.6643,-0.6552,-0.6464,-0.6398,-0.6199,-0.6091,-0.5978,-0.5741,-0.5675,-0.5675,-0.5544,-0.5366,-0.5235,-0.5725,-0.5944,-0.5985,-0.5899,-0.5766,-0.5589,-0.528,-0.5104,-0.4926,-0.4518,-0.4429,-0.4385,-0.4293,-0.4028,-0.3717,-0.3583,-0.3331,-0.311,-0.3045,-0.3244,-0.3486,-0.3655,-0.3857,-0.4068,-0.4237,-0.4279,-0.4365,-0.4617,-0.4976,-0.539,-0.5879,-0.61,-0.6219,-0.6339,-0.6347,-0.6417,-0.653,-0.6514,-0.6583,-0.6782,-0.7098,-0.7319,-0.7397,-0.7445,-0.7401,-0.7272,-0.7003,-0.6915,-0.6915,-0.6779,-0.6738,-1.1198,-1.1154,-1.1068,-1.1284,-1.1111,-1.0939,-1.0939,-1.1111,0.0,0.0,-1.1553,-1.1688,-1.1688,0.0,-1.1429,0.0,-1.1355,-1.118,0.0,0.0,0.0,0.0,0.0,0.0,0.0,-0.8474,0.0,-0.7982,-0.7481,-0.7531,-0.8329,-0.8379,-0.823,-0.7982,-0.7902,-0.7733,-0.7476,-0.7395,-0.7216,-0.6842,-0.6842,-0.659,-0.6191,-0.6191,-0.6051,-0.5867,-0.5585,-0.5491,-0.5491,-0.526,-0.512,-0.4997,-0.4952,-0.4856,-0.4741,-0.4696,-0.4696,-0.4696,-0.4696,-0.4567,-0.4391,-0.4346,-0.4523,-0.4786,-0.4786,-0.4741,-0.4654,-0.4433,-0.4346,-0.421,-0.3715,-0.358,-0.3491,-0.3267,-0.2956,-0.2598,-0.2284,-0.206,-0.1917,-0.1843,-0.2099,-0.2389,-0.2435,-0.2684,-0.2981,-0.328,-0.328,-0.345,-0.3958,-0.4,-0.4339,-0.5151,-0.5383,-0.5538,-0.5658,-0.5686,-0.5713,-0.5713,-0.5805,-0.5858,-0.5858,-0.626,-0.639,-0.621,-0.6384,-0.6299,-0.5949,-0.5905,-0.5858,-0.5858,-0.5633,-0.5589,-0.999,-1.0077,-1.012,-1.0077,-0.9903,-0.9777,-0.9777,0.0,0.0,-1.0381,-1.0593,-1.0722,-1.0722,-1.0722,0.0,0.0,0.0,-1.0059,0.0,0.0,0.0,0.0,0.0,0.0,0.0,-0.7288,0.0,-0.6587,-0.6084,-0.6137,-0.6942,-0.6992,-0.6842,-0.6587,-0.6282,-0.6125,-0.6066,-0.5774,-0.5571,-0.5414,-0.5414,-0.5314,-0.5129,-0.5129,-0.5129,-0.5084,-0.4864,-0.4777,0.0,-0.4504,-0.4408,-0.4357,-0.4129,-0.4034,-0.3981,-0.3803,-0.3712,-0.3712,-0.3712,-0.3537,-0.3317,-0.3136,-0.3492,-0.3983,-0.3983,-0.3892,-0.3669,-0.3405,-0.3226,-0.3001,-0.2686,-0.2508,-0.2284,-0.2017,-0.1929,-0.1794,-0.1345,-0.1211,-0.121,-0.1163,-0.1207,-0.1385,-0.1785,-0.1918,-0.2006,-0.2271,-0.2314,-0.2493,-0.2984,-0.3028,-0.3206,-0.3737,-0.4463,-0.4803,-0.4669,-0.4893,-0.5085,-0.5085,-0.5095,-0.5099,-0.5099,-0.5369,-0.5505,-0.5505,-0.5505,-0.5505,-0.546,-0.5233,-0.5099,-0.5099,-0.5055,-0.4832,-0.92,-0.9113,-0.8942,-0.9026,-0.8803,-0.854,-0.8723,0.0,-0.9113,-0.9414,-0.9632,-0.9715,-0.9589,-0.9458,-0.9301,0.0,0.0,0.0,-0.8364,0.0,0.0,0.0,0.0,0.0,0.0,0.0,-0.5887,-0.5486,-0.5083,-0.4883,-0.4883,-0.5489,-0.5663,-0.5201,-0.5065,-0.4892,-0.4633,-0.4502,-0.4392,-0.4258,-0.4258,-0.4193,-0.416,-0.416,-0.416,-0.416,-0.3896,-0.3808,0.0,-0.3358,-0.3224,-0.3179,-0.2955,-0.2864,-0.2864,-0.2774,-0.264,-0.2505,-0.2505,-0.2283,-0.1928,-0.1837,-0.1792,-0.1925,-0.264,-0.2819,-0.2685,-0.242,-0.2287,-0.2152,-0.1748,-0.1479,-0.1255,-0.1031,-0.0852,-0.0628,-0.0269,-0.009,0.0,0.0,-0.0134,-0.0269,-0.0448,-0.0628,-0.0807,-0.1075,-0.112,-0.1299,-0.1748,-0.1837,-0.1882,-0.206,-0.3288,-0.4066,-0.3976,-0.4186,-0.434,-0.434,-0.4476,-0.4565,-0.4565,-0.4701,-0.4612,-0.4302,-0.4302,-0.4166,-0.3896,-0.3805,-0.3715,-0.3715,-0.3715,-0.3626,-0.8193,-0.8061,-0.7889,-0.7977,-0.7753,-0.7533,0.0,0.0,-0.8061,-0.8321,-0.8496,-0.8536,-0.8408,-0.8193,-0.8086,0.0,0.0,-0.7418,-0.731,-0.7122,0.0,0.0,0.0,-0.5939,0.0,-0.5236,-0.4782,-0.4232,-0.3979,-0.3618,-0.3149,-0.3847,-0.4173,-0.3924,-0.3829,-0.3659,-0.3371,-0.335,-0.3269,-0.3176,-0.3176,-0.3176,-0.3176,-0.3176,-0.3176,-0.3176,-0.2822,-0.2689,0.0,-0.2151,-0.1971,-0.1926,-0.1747,-0.1657,-0.1657,-0.1567,-0.1433,-0.1254,-0.1254,-0.103,-0.0762,-0.0712,-0.0445,-0.0355,-0.1145,-0.1463,-0.1523,-0.13,-0.1211,-0.1076,-0.0673,-0.0448,-0.0269,-0.009,0.009,0.0269,0.0448,0.0583,0.0718,0.0718,0.0583,0.0493,0.0493,0.0314,0.0134,-0.0045,-0.009,-0.0224,-0.0628,-0.0673,-0.0673,-0.0762,-0.1836,-0.264,-0.2908,-0.3132,-0.331,-0.3401,-0.3582,-0.3671,-0.3671,-0.3671,-0.3537,-0.3183,-0.3183,-0.3002,-0.2688,-0.2688,-0.2688,-0.2688,-0.2688,-0.2597,-0.6881,-0.6969,-0.7051,-0.6881,-0.6795,-0.6795,0.0,0.0,-0.6881,-0.7098,-0.7139,-0.7139,-0.7139,-0.7095,-0.7148,-0.7209,0.0,0.0,-0.6401,-0.5934,0.0,0.0,0.0,-0.509,-0.4834,-0.4081,-0.3377,-0.2875,-0.2573,0.0,-0.2012,-0.201,-0.2255,-0.2795,-0.2502,-0.231,-0.2309,-0.2263,-0.2194,-0.2193,-0.2193,-0.2193,-0.2193,-0.2193,-0.2193,-0.2193,-0.1658,-0.1436,0.0,-0.0897,-0.0718,-0.0718,-0.0493,-0.0403,-0.0403,-0.0134,0.0,0.0,0.0,0.0,0.0,0.0219,0.0305,0.0347,0.0509,0.0304,0.0,0.0,0.0179,0.0403,0.0628,0.0673,0.0673,0.0673,0.0673,0.0673,0.0718,0.0718,0.0718,0.0718,0.0718,0.0718,0.0718,0.0673,0.0673,0.0673,0.0673,0.0628,0.0403,0.0403,0.0269,0.0,-0.0045,-0.0403,-0.1345,-0.1657,-0.1925,-0.2193,-0.2238,-0.2238,-0.2238,-0.2238,-0.2238,-0.2193,-0.2193,-0.2193,-0.2193,-0.2193,-0.2193,-0.2193,-0.2193,-0.1835,-0.6523,-0.6479,-0.6346,-0.6121,-0.5947,-0.5861,-0.5861,0.0,-0.5949,-0.6346,-0.6438,-0.6346,-0.6166,-0.6236,-0.6219,-0.5962,-0.5671,0.0,0.0,0.0,0.0,-0.3929,-0.3528,-0.3277,0.0,0.0,-0.2268,-0.1765,-0.1463,-0.1101,-0.0638,-0.0436,-0.0765,-0.1698,-0.1583,-0.1424,-0.1222,-0.1169,-0.1165,-0.1165,-0.1165,-0.1121,-0.0986,-0.0986,-0.0851,-0.0672,-0.0538,-0.0448,0.0,-0.009,0.0045,0.009,0.0269,0.0359,0.0359,0.0448,0.0583,0.0762,0.0762,0.0852,0.0986,0.1024,0.1056,0.1085,0.112,0.0817,0.0431,0.0481,0.0527,0.0617,0.067,0.0718,0.0762,0.0942,0.0987,0.1031,0.1166,0.1166,0.1166,0.1166,0.1166,0.1166,0.1166,0.1166,0.1166,0.1166,0.1166,0.1166,0.1076,0.1076,0.1031,0.0987,0.1121,0.0762,-0.0359,-0.0672,-0.0896,-0.0986,-0.1121,-0.1165,-0.1165,-0.1165,-0.103,-0.0717,-0.0717,-0.0538,-0.0224,-0.0224,-0.0224,-0.0224,-0.0224,0.0,0.0,-0.5725,-0.5636,-0.5369,-0.5238,0.0,0.0,0.0,-0.5104,-0.5505,-0.5549,-0.5518,-0.5335,-0.5398,-0.5357,-0.5122,-0.481,0.0,0.0,0.0,0.0,-0.2518,0.0,0.0,0.0,-0.1413,-0.1059,-0.0605,-0.0351,-0.005,0.0292,0.0429,0.0187,-0.0457,-0.0503,-0.0364,-0.0179,-0.0179,-0.0179,-0.0179,-0.0179,-0.009,0.0,0.0,0.009,0.0269,0.0359,0.0403,0.0,0.0673,0.0762,0.0807,0.0897,0.0987,0.0987,0.0987,0.1076,0.1211,0.1211,0.13,0.1389,0.1422,0.1434,0.1482,0.1553,0.126,0.0887,0.09,0.0946,0.095,0.097,0.0975,0.1021,0.1164,0.1211,0.1256,0.139,0.1391,0.1391,0.1391,0.1391,0.1391,0.1391,0.148,0.157,0.157,0.1615,0.1705,0.1705,0.1705,0.1705,0.1705,0.1839,0.166,0.0897,0.0583,0.0359,0.0179,0.0045,0.0,0.0,0.0,0.0134,0.0538,0.0538,0.0673,0.0987,0.0987,0.0987,0.0987,0.1076,0.1256,0.0,-0.4701,0.0,0.0,0.0,0.0,0.0,0.0,0.0,-0.4535,-0.4587,-0.4574,-0.457,-0.4591,-0.4557,-0.4526,-0.4118,-0.3705,0.0,-0.2722,0.0,0.0,-0.0857,0.0,-0.0353,-0.0101,0.0152,0.0455,0.0695,0.0828,0.0859,0.0795,0.0779,0.0763,0.0762,0.0762,0.0718,0.0718,0.0718,0.0718,0.0718,0.0718,0.0718,0.0718,0.0718,0.0,0.1031,0.1121,0.0,0.13,0.1391,0.1391,0.1391,0.1391,0.1391,0.1391,0.1391,0.1391,0.1391,0.1391,0.1385,0.1441,0.156,0.1706,0.1901,0.1662,0.1342,0.1343,0.1344,0.1351,0.1423,0.1474,0.1482,0.1469,0.1477,0.1478,0.1524,0.1524,0.1524,0.1524,0.1524,0.1524,0.1524,0.1705,0.1884,0.1839,0.2064,0.2199,0.2199,0.2199,0.2199,0.2199,0.2199,0.2199,0.2199,0.1974,0.166,0.1211,0.1166,0.1166,0.1166,0.1166,0.1256,0.148,0.148,0.1525,0.1525,0.1525,0.1525,0.1525,0.1747,0.2014,-0.2422,0.0,-0.3848,-0.3628,-0.3451,-0.327,0.0,0.0,0.0,0.0,0.0,-0.3576,-0.3355,-0.3349,-0.3294,-0.2935,-0.263,-0.2307,-0.1813,0.0,0.0,0.0,0.0252,0.0454,0.0505,0.0556,0.0707,0.101,0.1092,0.1168,0.1337,0.131,0.1375,0.1526,0.1525,0.1256,0.0718,0.0718,0.0718,0.0718,0.0718,0.0807,0.0987,0.0987,0.1076,0.1256,0.13,0.1345,0.1345,0.1391,0.1391,0.1391,0.1391,0.1391,0.1391,0.1391,0.1391,0.1391,0.1391,0.1391,0.1471,0.176,0.2104,0.2403,0.2545,0.2217,0.1765,0.1754,0.1762,0.1812,0.2022,0.2076,0.2131,0.2353,0.2409,0.2419,0.2546,0.2553,0.2553,0.2553,0.2553,0.2553,0.2553,0.2598,0.2555,0.2378,0.2379,0.2379,0.2199,0.2199,0.2199,0.2199,0.2334,0.2424,0.2424,0.2243,0.2064,0.193,0.193,0.193,0.193,0.193,0.2019,0.2243,0.2424,0.2558,0.2558,0.2558,0.2558,0.2557,0.2561,0.2585,-0.1256,-0.2105,-0.2908,-0.2644,-0.2466,-0.2291,0.0,0.0,0.0,0.0,0.0,-0.2195,-0.2071,-0.2092,-0.2014,-0.1686,-0.1403,0.0,0.0,0.0,0.0808,0.096,0.1162,0.1364,0.0,0.1464,0.1615,0.1716,0.1736,0.1801,0.1862,0.1825,0.1926,0.2111,0.2109,0.1885,0.1391,0.1391,0.1391,0.1391,0.1391,0.148,0.1615,0.1615,0.166,0.1749,0.1749,0.1749,0.1749,0.1749,0.1705,0.157,0.157,0.1525,0.1391,0.1391,0.148,0.157,0.157,0.1793,0.2184,0.2672,0.3006,0.3297,0.3662,0.3476,0.3064,0.2586,0.2436,0.2489,0.2672,0.273,0.2787,0.3019,0.3079,0.314,0.3384,0.3442,0.3452,0.3528,0.3534,0.3534,0.3534,0.3535,0.3494,0.3361,0.3318,0.3272,0.3183,0.3183,0.3183,0.3183,0.3272,0.3318,0.3318,0.3227,0.2914,0.2379,0.2334,0.2334,0.2334,0.2334,0.2469,0.2694,0.2802,0.2919,0.3006,0.2979,0.3051,0.3224,0.3186,0.3211,-0.0448,-0.112,-0.1747,-0.1614,-0.1529,-0.1358,-0.0876,0.0,0.0,0.0,0.0,0.0,0.0,-0.0886,0.0,0.0,0.0,0.0,0.0808,0.1162,0.1415,0.1667,0.197,0.0,0.2122,0.2372,0.2522,0.2522,0.2577,0.2581,0.2492,0.2491,0.2533,0.2752,0.2794,0.2745,0.2601,0.2422,0.2378,0.2422,0.2422,0.2422,0.2422,0.2378,0.2333,0.2333,0.0,0.0,0.2288,0.2288,0.2153,0.1973,0.1973,0.1838,0.1614,0.1614,0.1793,0.1973,0.2062,0.251,0.3213,0.3796,0.415,0.4402,0.4938,0.5028,0.4787,0.3834,0.3482,0.342,0.3491,0.3509,0.3568,0.3814,0.3833,0.3942,0.4291,0.4355,0.4422,0.4542,0.4568,0.4577,0.4577,0.4596,0.461,0.452,0.452,0.4476,0.4431,0.4387,0.4387,0.4387,0.4387,0.4387,0.4387,0.4387,0.3981,0.2902,0.2822,0.2777,0.2725,0.2723,0.2854,0.3068,0.3014,0.3069,0.3239,0.3225,0.3364,0.3695,0.3726,0.3845,0.0448,0.0359,0.0134,-0.0448,-0.0273,0.0092,0.0185,0.0,0.0,0.0,0.0,0.0,0.0,0.0151,0.0252,0.0,0.0,0.1061,0.0,0.0,0.197,0.222,0.0,0.2675,0.2675,0.2928,0.3079,0.3079,0.3271,0.3424,0.3415,0.3543,0.3708,0.3864,0.4087,0.4233,0.4293,0.3494,0.3181,0.3401,0.3401,0.3401,0.3357,0.3136,0.3048,0.3048,0.0,0.2778,0.2778,0.2778,0.2778,0.2734,0.2734,0.2689,0.2689,0.2689,0.2689,0.2778,0.3178,0.3669,0.4192,0.4793,0.5266,0.5644,0.5941,0.6091,0.6169,0.5808,0.5231,0.4732,0.4943,0.4984,0.5053,0.5382,0.5451,0.5488,0.5616,0.5644,0.565,0.5667,0.5795,0.5907,0.5907,0.6002,0.5941,0.5542,0.5497,0.5319,0.4966,0.4877,0.4877,0.4877,0.4877,0.4877,0.4877,0.4877,0.4749,0.4446,0.4166,0.3955,0.3838,0.3836,0.3804,0.3738,0.3725,0.376,0.376,0.3996,0.4114,0.4195,0.4321,0.4362,0.0673,0.0807,0.0854,0.05,0.0505,0.0698,0.0999,0.0,0.0,0.0,0.0,0.0,0.0,0.0,0.1314,0.1415,0.0,0.212,0.2222,0.2624,0.2925,0.0,0.0,0.388,0.388,0.4232,0.4483,0.4483,0.4597,0.465,0.4651,0.4705,0.4834,0.502,0.5155,0.5364,0.5683,0.5125,0.4707,0.4338,0.4338,0.4338,0.4338,0.4206,0.4162,0.4162,0.0,0.4028,0.4028,0.4028,0.3937,0.3803,0.3803,0.3757,0.3667,0.3757,0.389,0.4111,0.4559,0.505,0.5534,0.6046,0.6418,0.6724,0.7007,0.7151,0.713,0.7087,0.6383,0.5661,0.5774,0.5774,0.587,0.6175,0.6234,0.6274,0.6502,0.6532,0.6559,0.664,0.6753,0.6797,0.6797,0.6766,0.6639,0.6425,0.63,0.6129,0.5872,0.5872,0.5912,0.5998,0.6037,0.608,0.6163,0.6273,0.5901,0.4853,0.4588,0.4437,0.4391,0.4434,0.4443,0.4399,0.4567,0.4695,0.4824,0.5142,0.5444,0.5649,0.5876,0.6012,0.0852,0.1035,0.118,0.1205,0.0,0.1176,0.1608,0.0,0.0,0.0,0.0,0.0,0.0,0.2071,0.0,0.2172,0.2574,0.2976,0.3127,0.3578,0.3929,0.4128,0.4782,0.5186,0.5284,0.5684,0.5984,0.5984,0.6034,0.6046,0.6007,0.6051,0.6144,0.6267,0.6359,0.6534,0.6835,0.683,0.6341,0.5447,0.5421,0.5453,0.5497,0.5453,0.5408,0.5408,0.5364,0.5319,0.5319,0.5319,0.5228,0.5003,0.5003,0.4914,0.4823,0.4959,0.5179,0.5487,0.5894,0.6296,0.6738,0.7228,0.7414,0.7572,0.7878,0.7942,0.7842,0.7829,0.7236,0.6603,0.6532,0.6511,0.6553,0.6753,0.6791,0.6863,0.7147,0.7217,0.7295,0.7388,0.7482,0.755,0.755,0.7454,0.7357,0.7315,0.7112,0.6988,0.6902,0.6933,0.7038,0.7201,0.7275,0.7381,0.7503,0.7631,0.7083,0.5709,0.5437,0.5349,0.5325,0.5406,0.5481,0.5454,0.5704,0.5877,0.605,0.6408,0.6726,0.7057,0.7304,0.7473,0.13,0.141,0.1485,0.1468,0.1665,0.0,0.1955,0.2139,0.0,0.0,0.0,0.0,0.0,0.2371,0.2472,0.2725,0.2975,0.3425,0.4178,0.0,0.4983,0.5729,0.6084,0.6384,0.6631,0.6933,0.7086,0.7086,0.7335,0.7475,0.7465,0.767,0.7806,0.7756,0.7938,0.7965,0.7875,0.8146,0.7773,0.6843,0.6719,0.6745,0.6962,0.6735,0.6691,0.6647,0.6428,0.6296,0.6296,0.6296,0.6296,0.6251,0.6251,0.6251,0.6251,0.6251,0.6425,0.6688,0.6915,0.718,0.7489,0.7977,0.8145,0.8154,0.8251,0.828,0.8231,0.8048,0.7942,0.7817,0.7492,0.7403,0.7403,0.7442,0.7446,0.745,0.7462,0.7624,0.7748,0.7765,0.8051,0.8325,0.8325,0.8393,0.8431,0.823,0.8189,0.8102,0.7847,0.7949,0.8098,0.8094,0.8324,0.8464,0.8507,0.833,0.8203,0.8071,0.7726,0.7559,0.7464,0.7467,0.7443,0.7289,0.7326,0.733,0.7368,0.76,0.7716,0.7716,0.793,0.8057,0.1615,0.1777,0.1954,0.1993,0.0,0.0,0.0,0.0,0.0,0.0,0.0,0.0,0.0,0.0,0.3478,0.3728,0.4427,0.5129,0.5582,0.6182,0.6631,0.698,0.7381,0.7683,0.7779,0.8031,0.818,0.818,0.8276,0.8326,0.8326,0.8428,0.8502,0.8441,0.8536,0.8555,0.85,0.8497,0.8416,0.8255,0.7955,0.7837,0.7922,0.7688,0.76,0.7593,0.7405,0.7319,0.7319,0.7319,0.7319,0.7319,0.7319,0.7319,0.7319,0.7319,0.7492,0.7669,0.7757,0.7981,0.8204,0.8384,0.8428,0.846,0.8483,0.8593,0.8634,0.8442,0.8476,0.8542,0.8169,0.7974,0.7886,0.8038,0.7953,0.7872,0.7872,0.7949,0.7991,0.7991,0.812,0.8247,0.8361,0.8444,0.8496,0.8541,0.8559,0.8518,0.8431,0.8454,0.8579,0.87,0.8886,0.9105,0.9192,0.9139,0.919,0.9354,0.8513,0.7976,0.7955,0.8016,0.8044,0.8018,0.8254,0.8353,0.8353,0.873,0.8966,0.9126,0.9348,0.9542,0.19,0.2071,0.2254,0.0,0.0,0.0,0.0,0.0,0.0,0.0,0.0,0.0,0.0,0.0,0.0,0.0,0.5682,0.6381,0.6734,0.7381,0.7932,0.8081,0.8432,0.8684,0.8779,0.8928,0.9076,0.9076,0.9076,0.9076,0.9076,0.9076,0.9076,0.9076,0.9076,0.9076,0.9076,0.8965,0.9009,0.9199,0.8889,0.8729,0.8621,0.8463,0.8413,0.8406,0.8332,0.8282,0.8278,0.822,0.8167,0.812,0.812,0.812,0.812,0.812,0.8208,0.8336,0.8336,0.8472,0.8696,0.8696,0.874,0.8828,0.8828,0.8911,0.9013,0.888,0.897,0.9024,0.8813,0.8554,0.8319,0.8475,0.8379,0.8286,0.8286,0.8325,0.8404,0.8404,0.8438,0.8518,0.8648,0.8671,0.872,0.886,0.8882,0.8882,0.8882,0.8941,0.9087,0.9313,0.9442,0.9611,0.9785,0.9799,0.9932,1.018,0.9356,0.8815,0.8694,0.8833,0.8935,0.8935,0.9252,0.9442,0.9442,0.9749,1.0001,1.0144,1.0321,1.0488,0.2117,0.2256,0.0,0.0,0.0,0.0,0.0,0.0,0.0,0.0,0.0,0.0,0.0,0.0,0.0,0.5942,0.6484,0.703,0.7531,0.8081,0.863,0.9137,0.9187,0.9331,0.9579,0.9579,0.9579,0.9579,0.9579,0.9579,0.9579,0.9579,0.9579,0.9579,0.9579,0.9579,0.9579,0.9579,0.9579,0.9579,0.9579,0.9441,0.91,0.91,0.91,0.91,0.9096,0.9096,0.9084,0.8897,0.8723,0.8616,0.8616,0.8616,0.8612,0.8612,0.8612,0.8612,0.8612,0.874,0.8911,0.8911,0.9087,0.9305,0.9305,0.9305,0.9305,0.9305,0.9305,0.9345,0.9563,0.9141,0.8727,0.8727,0.8723,0.8723,0.8723,0.8841,0.9005,0.9005,0.9164,0.9282,0.9286,0.9286,0.9286,0.9291,0.9291,0.9291,0.9296,0.9479,0.9691,0.998,0.9999,1.0089,1.0303,1.0322,1.0407,1.0607,1.0621,1.0436,1.0018,1.0208,1.0322,1.0322,1.0516,1.0621,1.0621,1.0621,1.0621,1.0621,1.0621,1.0579,0.244,0.0,0.0,0.288,0.0,0.0,0.0,0.0,0.0,0.0,0.0,0.0,0.0,0.0,0.0,0.7341,0.7832,0.8326,0.8684,0.9031,0.9278,0.948,0.948,0.9529,0.9579,0.9579,0.9579,0.9579,0.9579,0.9579,0.9579,0.9579,0.9579,0.9579,0.9579,0.9579,0.9579,0.9579,0.9579,0.9579,0.9579,0.9571,0.9466,0.9336,0.9326,0.9318,0.9153,0.9096,0.9092,0.9039,0.8986,0.8942,0.8942,0.8861,0.8747,0.8967,0.8932,0.8823,0.9043,0.913,0.9174,0.9174,0.9218,0.9305,0.9305,0.9388,0.9519,0.9519,0.965,0.982,0.9864,0.9732,0.9563,0.9377,0.9234,0.9123,0.9123,0.9164,0.9205,0.9205,0.9241,0.9329,0.9484,0.9507,0.9606,0.9946,0.9993,1.0045,1.0182,1.0258,1.0319,1.0426,1.0436,1.046,1.0526,1.0531,1.0559,1.0616,1.0621,1.0564,1.0441,1.0497,1.0531,1.0531,1.0588,1.0621,1.0621,1.0621,1.065,1.0801,1.0801,1.0877,0.2888,0.0,0.0,0.3309,0.3604,0.3987,0.0,0.0,0.0,0.0,0.0,0.6087,0.698,0.7431,0.0,0.8233,0.868,0.9031,0.9183,0.943,0.9579,0.9579,0.9579,0.9579,0.9579,0.9579,0.9579,0.9579,0.9579,0.9579,0.9579,0.9579,0.9579,0.9579,0.9579,0.9579,0.9579,0.9723,0.9776,0.9776,0.9871,0.992,0.9916,0.9608,0.9466,0.9458,0.9352,0.9314,0.9386,0.9386,0.9392,0.9423,0.9423,0.9351,0.925,0.9429,0.9405,0.9311,0.949,0.958,0.9665,0.9665,0.971,0.9799,0.9799,0.9889,1.0018,1.0018,1.0107,1.0241,1.0241,1.0241,1.017,0.9838,0.9734,0.97,0.97,0.9762,0.9819,0.9819,0.9819,0.9861,0.9993,1.0012,1.0097,1.0398,1.0441,1.0483,1.0556,1.0621,1.0621,1.0621,1.0621,1.0608,1.0693,1.0843,1.0923,1.1005,1.1104,1.1151,1.1151,1.0886,1.0702,1.0702,1.0919,1.101,1.101,1.1104,1.122,1.1351,1.1351,1.1419,0.3507,0.0,0.0,0.3768,0.4187,0.0,0.5586,0.0,0.0,0.5684,0.0,0.708,0.768,0.818,0.8581,0.8874,0.913,0.9331,0.9331,0.9529,0.9677,0.9677,0.9677,0.9677,0.9677,0.9677,0.9677,0.9677,0.9677,0.9677,0.9677,0.9677,0.9677,0.9677,0.9677,0.9677,0.9677,0.992,1.0019,1.0019,1.0265,1.0413,1.0359,0.9875,0.9677,0.9677,0.9677,0.9726,0.9857,0.9857,0.9901,0.9937,0.9937,0.9928,0.991,0.9957,0.9948,0.993,0.9977,1.0065,1.025,1.025,1.0389,1.0621,1.0621,1.0621,1.0621,1.0621,1.0621,1.0621,1.0621,1.0621,1.0526,1.0142,1.0203,1.0346,1.0346,1.0488,1.0621,1.0621,1.0621,1.0621,1.0621,1.0621,1.0626,1.0598,1.0617,1.0678,1.0678,1.0678,1.0678,1.0724,1.0724,1.0805,1.1001,1.1211,1.1432,1.1624,1.1878,1.198,1.198,1.1356,1.102,1.102,1.1444,1.1634,1.1634,1.1883,1.198,1.198,1.198,1.198,0.4311,0.4442,0.0,0.0,0.5438,0.6137,0.6736,0.0,0.7531,0.7232,0.7484,0.8035,0.8981,0.9278,0.9476,0.9965,1.0113,1.0117,1.0117,1.0167,1.0216,1.0216,1.0216,1.0216,1.0216,1.0216,1.0216,1.0216,1.0216,1.0216,1.0216,1.0216,1.0216,1.0216,1.0216,1.0216,1.0216,1.0314,1.0314,1.0314,1.0364,1.0413,1.0413,1.0265,1.0216,1.0216,1.0216,1.0239,1.0249,1.0249,1.0276,1.029,1.029,1.0193,1.01,1.0303,1.0251,1.0158,1.0389,1.0482,1.0528,1.0528,1.0575,1.0621,1.0621,1.0621,1.0621,1.0621,1.0621,1.0621,1.0621,1.0621,1.0597,1.0507,1.0521,1.0554,1.0554,1.0588,1.0621,1.0621,1.0621,1.0621,1.0621,1.0621,1.0631,1.0801,1.0962,1.1158,1.1351,1.14,1.1448,1.1689,1.1689,1.1709,1.1759,1.1813,1.1881,1.1927,1.198,1.198,1.198,1.1838,1.1764,1.1764,1.1858,1.1927,1.1927,1.198,1.198,1.198,1.198,1.198,0.5231,0.0,0.0,0.6418,0.0,0.0,0.8028,0.8676,0.9076,0.8825,0.8878,0.913,0.9673,0.9875,1.0068,1.0364,1.0413,1.0413,1.0413,1.0413,1.0413,1.0413,1.0413,1.0413,1.0413,1.0413,1.0413,1.0413,1.0413,1.0413,1.0413,1.0413,1.0413,1.0413,1.0413,1.0413,1.0413,1.0511,1.0605,1.0605,1.0703,1.0801,1.0757,1.0511,1.0413,1.0413,1.0413,1.0462,1.0605,1.0605,1.0654,1.0801,1.0801,1.0738,1.0642,1.0796,1.0775,1.0682,1.0825,1.0872,1.0872,1.0872,1.0872,1.0872,1.0872,1.0872,1.0872,1.0872,1.0967,1.1062,1.1062,1.1157,1.1252,1.1252,1.0986,1.0726,1.0726,1.0896,1.1062,1.1062,1.1205,1.1252,1.1252,1.1252,1.1292,1.1409,1.1516,1.1634,1.1785,1.178,1.1834,1.198,1.198,1.198,1.198,1.2127,1.2273,1.237,1.2467,1.2565,1.271,1.271,1.2467,1.2029,1.2127,1.2273,1.237,1.2467,1.2613,1.271,1.271,1.271,0.6372,0.0,0.7375,0.8021,0.8425,0.0,0.9221,0.9768,1.0117,1.0117,1.0117,1.0068,1.0117,1.0314,1.0462,1.0511,1.056,1.056,1.056,1.056,1.056,1.056,1.056,1.056,1.056,1.056,1.056,1.056,1.056,1.056,1.056,1.056,1.056,1.056,1.0556,1.0609,1.0609,1.09,1.1096,1.1096,1.134,1.1487,1.1443,1.0949,1.0654,1.056,1.056,1.0654,1.085,1.085,1.0998,1.1194,1.1194,1.1194,1.1194,1.1194,1.1194,1.1194,1.1194,1.1243,1.1292,1.1292,1.1292,1.1345,1.1345,1.1345,1.1345,1.1345,1.1492,1.1683,1.1683,1.1829,1.198,1.198,1.1554,1.1092,1.1092,1.1366,1.1683,1.1683,1.1834,1.198,1.198,1.198,1.198,1.198,1.198,1.2029,1.2073,1.2127,1.2175,1.2175,1.2224,1.2273,1.2273,1.2467,1.2662,1.291,1.3098,1.3249,1.3491,1.3491,1.3098,1.2273,1.2467,1.271,1.291,1.3104,1.3292,1.3491,1.3491,1.3539,0.0,0.0,0.8916,0.0,0.9418,0.9821,0.0,0.0,1.0708,0.0,1.0507,1.0413,1.0659,1.0703,1.0801,1.1051,1.1096,1.1096,1.1096,1.1096,1.1096,1.1096,1.1096,1.1096,1.1096,1.1096,1.1096,1.1096,1.1096,1.1096,1.1096,1.1096,1.1096,1.1096,1.134,1.1438,1.1438,1.1932,1.2175,1.2175,1.2467,1.2565,1.257,1.2273,1.1731,1.1096,1.1096,1.1096,1.1145,1.1145,1.1145,1.1194,1.1194,1.1194,1.1194,1.1194,1.1194,1.1194,1.1194,1.134,1.1536,1.1536,1.1683,1.1883,1.1883,1.1883,1.1883,1.1883,1.1932,1.1932,1.1932,1.198,1.198,1.198,1.1907,1.1838,1.1838,1.1907,1.1932,1.1932,1.198,1.198,1.198,1.198,1.198,1.198,1.198,1.2078,1.2322,1.2565,1.2759,1.2953,1.3152,1.3298,1.3298,1.3346,1.3346,1.3394,1.3443,1.3443,1.3491,1.3491,1.3443,1.3298,1.3346,1.3346,1.3394,1.3443,1.3443,1.3491,1.3491,1.363,0.928,0.9506,0.9719,0.0,1.0261,1.0511,1.0659,0.0,1.0998,1.0998,1.0949,1.09,1.0998,1.0998,1.1047,1.1194,1.1194,1.1194,1.1194,1.1194,1.1194,1.1194,1.1194,1.1194,1.1194,1.1194,1.1194,1.1194,1.1194,1.1194,1.1194,1.1194,1.1194,1.1194,1.1438,1.1683,1.1829,1.2322,1.2705,1.3039,1.3136,1.3184,1.3184,1.3087,1.2603,1.1883,1.1536,1.1438,1.1389,1.1243,1.1194,1.1194,1.1194,1.1292,1.1438,1.1438,1.1536,1.1639,1.1639,1.1736,1.1834,1.198,1.2127,1.2273,1.2419,1.2322,1.2224,1.2224,1.2224,1.2273,1.2419,1.2516,1.2705,1.299,1.3039,1.3087,1.3286,1.2754,1.2322,1.2565,1.2759,1.2856,1.2856,1.2856,1.2856,1.2856,1.2856,1.2856,1.3007,1.3104,1.3249,1.3298,1.3443,1.3491,1.3491,1.3491,1.3539,1.369,1.3738,1.3781,1.3919,1.3968,1.3968,1.3968,1.363,1.3588,1.3738,1.3738,1.3781,1.3968,1.4112,1.4304,0.0,0.0,1.0413,1.0801,1.09,1.0949,0.0,0.0,1.1194,0.0,1.1194,1.1194,1.1194,1.1194,1.1194,1.1194,1.1194,1.1194,1.1194,1.1194,1.1194,1.1194,1.1194,1.1194,1.1194,1.1194,1.1194,1.1194,1.1194,1.1194,1.1194,1.1194,1.1243,1.1296,1.1634,1.198,1.2268,1.2948,1.3565,1.4088,1.4088,1.4088,1.4088,1.3992,1.3661,1.3039,1.2311,1.1922,1.178,1.1585,1.1438,1.1389,1.1389,1.1541,1.1683,1.1683,1.1829,1.198,1.198,1.2078,1.2224,1.2516,1.2657,1.2851,1.3098,1.305,1.2899,1.2899,1.2899,1.2953,1.3147,1.3292,1.3528,1.4004,1.41,1.4148,1.425,1.3528,1.2948,1.3238,1.3485,1.3582,1.3491,1.3491,1.3491,1.3491,1.3491,1.3491,1.3491,1.3545,1.3588,1.3588,1.3684,1.3678,1.3678,1.3678,1.3781,1.3973,1.4022,1.4064,1.4298,1.4298,1.4346,1.4394,1.4016,1.3877,1.4118,1.4118,1.4262,1.4496,1.4777,1.507,0.0,1.1149,0.0,1.1145,0.0,0.0,0.0,0.0,0.0,1.1194,1.1194,1.1194,1.1194,1.1194,1.1194,1.1194,1.1194,1.1194,1.1194,1.1194,1.1194,1.1194,1.1194,1.1194,1.1194,1.1194,1.1194,1.1194,1.1194,1.1194,1.1194,1.1194,1.134,1.159,1.2078,1.2565,1.305,1.434,1.5201,1.5683,1.5683,1.5683,1.5683,1.5439,1.5194,1.4908,1.3607,1.2791,1.237,1.2322,1.2175,1.198,1.198,1.198,1.198,1.198,1.198,1.198,1.198,1.2322,1.2813,1.3001,1.3431,1.3854,1.4154,1.4202,1.4202,1.4202,1.4202,1.4202,1.4202,1.425,1.4298,1.4592,1.464,1.4592,1.4346,1.425,1.4154,1.3902,1.3854,1.3811,1.3539,1.3491,1.3491,1.3491,1.3491,1.3491,1.3491,1.3738,1.3883,1.3883,1.4112,1.425,1.425,1.425,1.425,1.4298,1.4298,1.4298,1.4298,1.4298,1.4442,1.4688,1.4646,1.464,1.4646,1.4646,1.479,1.5083,1.5255,1.5622,0.0,0.0,0.0,1.1194,1.1194,1.1194,1.1194,1.1194,1.1194,1.1194,1.1194,1.1194,1.1194,1.1194,1.1194,1.1194,1.1194,1.1194,1.1194,1.1194,1.1194,1.1194,1.1194,1.1194,1.1194,1.1194,1.1194,1.1194,1.134,1.1443,1.1443,1.1639,1.1834,1.2127,1.2613,1.3431,1.458,1.5384,1.5961,1.6298,1.6298,1.64,1.6548,1.6447,1.6393,1.6285,1.5798,1.4752,1.3329,1.3184,1.2937,1.2743,1.2888,1.2845,1.271,1.2894,1.2948,1.2953,1.2953,1.3195,1.357,1.3769,1.4244,1.4717,1.4956,1.501,1.501,1.501,1.4908,1.4819,1.4962,1.5146,1.5425,1.6048,1.6292,1.6339,1.6237,1.5575,1.4956,1.4717,1.4765,1.4771,1.455,1.4406,1.4256,1.4256,1.4112,1.4016,1.4016,1.4112,1.416,1.416,1.425,1.4298,1.4298,1.4298,1.4298,1.4298,1.4298,1.4394,1.4544,1.4544,1.4729,1.5153,1.5302,1.5302,1.5159,1.5159,1.5397,1.5825,1.6062,1.6527,1.1438,0.0,0.0,0.0,0.0,1.1634,1.1731,0.0,1.1731,1.1634,1.1541,1.1438,1.134,1.1243,1.1194,1.1194,1.1194,1.1243,1.134,1.134,1.1389,1.1585,1.1585,1.1634,1.1736,1.1736,1.1736,1.1736,1.1878,0.0,1.198,1.2214,1.2603,1.3136,1.3619,1.4484,1.5771,1.6292,1.6716,1.6965,1.7052,1.72,1.7347,1.7347,1.734,1.7232,1.7232,1.6285,1.4669,1.437,1.413,1.389,1.3992,1.395,1.3769,1.3859,1.3913,1.3877,1.3775,1.3919,1.4196,1.458,1.501,1.5527,1.5818,1.5961,1.6055,1.6055,1.5954,1.5859,1.6001,1.6237,1.6567,1.7099,1.7426,1.7567,1.7567,1.6763,1.6001,1.5764,1.5771,1.5724,1.5499,1.5166,1.4921,1.4921,1.4736,1.4592,1.4592,1.4592,1.4592,1.4592,1.449,1.4442,1.4442,1.4346,1.4298,1.4298,1.4298,1.4442,1.4688,1.4688,1.4968,1.5534,1.5825,1.5961,1.6055,1.5954,1.6143,1.6567,1.6958,1.7512,0.0,0.0,0.0,0.0,0.0,0.0,1.2759,0.0,1.2759,1.2467,1.2224,1.1927,1.1683,1.1438,1.1243,1.1243,1.1243,1.1292,1.1536,1.159,1.1834,1.237,1.2419,1.2516,1.2813,1.2813,1.2813,1.2813,1.2813,1.2861,1.2861,1.3033,1.365,1.4711,1.5194,1.5818,1.6629,1.7099,1.7426,1.7721,1.7994,1.8087,1.8087,1.8087,1.7955,1.7721,1.7721,1.7192,1.6237,1.594,1.571,1.5439,1.5242,1.5146,1.5099,1.4879,1.4736,1.4688,1.4442,1.4544,1.4831,1.5296,1.5812,1.6339,1.6878,1.7153,1.7326,1.7326,1.7326,1.7326,1.7326,1.7527,1.7721,1.7721,1.7955,1.8133,1.8133,1.7707,1.7279,1.7044,1.6817,1.6534,1.6292,1.5812,1.5432,1.5439,1.5261,1.5131,1.5131,1.5131,1.5131,1.5131,1.4885,1.4736,1.4688,1.4442,1.4298,1.4298,1.4298,1.4442,1.4688,1.4736,1.507,1.5832,1.6103,1.6615,1.7326,1.7131,1.7138,1.738,1.7893,1.8542,1.2743,0.0,0.0,0.0,0.0,0.0,0.0,0.0,1.2985,1.2937,1.2748,1.2565,1.2467,1.2419,1.237,1.237,1.1731,1.1292,1.1536,1.1785,1.2078,1.2559,1.2797,1.3033,1.3275,1.3323,1.3323,0.0,1.3474,1.3667,1.3865,1.443,1.5092,1.5758,1.6285,1.681,1.7394,1.7714,1.79,1.7994,1.804,1.8179,1.8381,1.8381,1.8419,1.8504,1.8504,1.8357,1.8025,1.7225,1.6756,1.6567,1.6662,1.648,1.6197,1.6339,1.6103,1.5771,1.5717,1.5866,1.6109,1.6251,1.6723,1.7293,1.7441,1.7667,1.7893,1.7893,1.7893,1.79,1.8141,1.8241,1.8334,1.8465,1.855,1.8596,1.8596,1.8504,1.8218,1.7621,1.7441,1.7293,1.7044,1.6763,1.648,1.6298,1.6055,1.5825,1.5642,1.5594,1.5547,1.535,1.5248,1.5064,1.4736,1.464,1.4496,1.4298,1.4298,1.4496,1.4981,1.5112,1.5588,1.6346,1.6965,1.7567,1.8164,1.7939,1.7986,1.8404,1.9096,1.9517,0.0,0.0,0.0,0.0,0.0,0.0,1.4956,1.4711,1.4364,0.0,1.3944,1.3715,1.3619,1.3522,1.3426,1.3426,1.2883,1.2446,1.2403,1.2554,1.2894,1.3619,1.3896,1.4226,1.4615,1.4711,1.4806,1.4806,1.4956,1.5146,1.5432,1.5812,1.6285,1.6817,1.7145,1.7473,1.7861,1.8141,1.828,1.828,1.8365,1.8458,1.8612,1.8612,1.8697,1.8781,1.8781,1.8781,1.8735,1.8172,1.78,1.7621,1.7613,1.7473,1.7239,1.7286,1.7099,1.6817,1.6716,1.6763,1.6911,1.7012,1.7434,1.7908,1.8009,1.8187,1.8411,1.8411,1.8411,1.8411,1.8566,1.8612,1.8658,1.8781,1.8781,1.8781,1.8781,1.8781,1.8689,1.8226,1.8102,1.7962,1.7815,1.7527,1.7239,1.7059,1.6817,1.6622,1.644,1.644,1.6298,1.5961,1.5818,1.5486,1.4933,1.4736,1.4592,1.4298,1.4394,1.464,1.5083,1.5397,1.5967,1.673,1.7488,1.8272,1.9096,1.8727,1.8781,1.9288,1.97,1.9973,0.0,0.0,0.0,0.0,0.0,0.0,1.6676,1.648,1.619,0.0,1.552,1.5092,1.4949,1.4704,1.4555,1.4555,1.4555,1.4322,1.3703,1.3655,1.404,1.5099,1.5391,1.5724,1.6285,1.6527,1.6683,1.6683,1.673,1.6817,1.7044,1.7091,1.7333,1.7768,1.7776,1.7908,1.8179,1.8427,1.8527,1.8527,1.8697,1.8781,1.8781,1.8781,1.8781,1.8781,1.8781,1.8781,1.8781,1.8781,1.8697,1.852,1.8272,1.8179,1.8133,1.7908,1.7815,1.7768,1.752,1.7426,1.7473,1.7721,1.7955,1.8226,1.8473,1.8651,1.8781,1.8781,1.8781,1.8781,1.8781,1.8781,1.8781,1.8781,1.8781,1.8781,1.8781,1.8781,1.8781,1.8781,1.8658,1.8527,1.8527,1.8148,1.7815,1.7768,1.7574,1.7426,1.738,1.738,1.7192,1.673,1.648,1.6008,1.5226,1.4981,1.4736,1.4442,1.4682,1.4981,1.5274,1.5737,1.6353,1.712,1.79,1.8866,1.9973,1.9554,1.9554,1.9973,2.0019,2.0155,0.0,0.0,0.0,0.0,0.0,0.0,1.7434,1.7012,1.6574,0.0,1.6332,1.6001,1.6197,1.6197,1.615,1.615,1.615,1.5764,1.4615,1.4609,1.5045,1.5859,1.6197,1.6581,1.7044,1.7138,1.7145,1.7145,1.734,1.7488,1.7581,1.7761,1.804,1.8342,1.8342,1.8473,1.8643,1.8743,1.8743,1.8743,1.8781,1.8781,1.8781,1.8781,1.8781,1.8781,1.8781,1.8781,1.8781,1.8781,1.8789,1.8743,1.8689,1.8643,1.8643,1.8596,1.8465,1.8342,1.8288,1.8288,1.8288,1.8342,1.8473,1.8689,1.8735,1.8781,1.8781,1.8781,1.8781,1.8781,1.8781,1.8781,1.8781,1.8781,1.8781,1.8781,1.8781,1.8781,1.8781,1.8781,1.8781,1.8743,1.8743,1.8643,1.8512,1.8381,1.8288,1.8195,1.7994,1.7939,1.7753,1.7239,1.7138,1.6716,1.5737,1.5818,1.5717,1.5201,1.5445,1.5784,1.6305,1.677,1.7286,1.7854,1.8966,1.9882,2.0518,2.0246,2.0246,2.0564,2.069,2.0817,0.0,0.0,0.0,1.8055,0.0,0.0,0.0,1.7861,1.7581,1.7714,1.7426,1.7185,1.7333,1.7333,1.7333,1.7333,1.7333,1.7138,1.6466,1.6183,1.6237,1.6857,1.7192,1.7481,1.7854,1.7994,1.8032,1.8032,1.8179,1.8226,1.8226,1.8365,1.8504,1.8658,1.8658,1.8697,1.8781,1.8781,1.8781,1.8781,1.8781,1.8781,1.8781,1.8781,1.8781,1.8781,1.8781,1.8781,1.8781,1.8781,1.8874,1.9012,1.8874,1.8781,1.8781,1.8781,1.8743,1.8658,1.8658,1.8658,1.8658,1.8789,1.8928,1.9004,1.9158,1.9104,1.9012,1.9012,1.9012,1.9012,1.9158,1.9204,1.9204,1.9204,1.9204,1.9204,1.9204,1.9204,1.9204,1.9204,1.9204,1.9112,1.8827,1.8781,1.8781,1.8651,1.8743,1.8743,1.8458,1.8589,1.8404,1.7753,1.7707,1.7333,1.648,1.6527,1.6473,1.6183,1.6386,1.6723,1.7138,1.7738,1.8388,1.9188,1.992,2.0464,2.0871,2.0835,2.0835,2.0871,2.0952,2.0997,0.0,0.0,0.0,0.0,0.0,1.8781,0.0,0.0,0.0,1.8574,1.8334,0.0,0.0,0.0,0.0,0.0,0.0,0.0,0.0,1.7699,0.0,1.7815,1.8048,1.828,1.852,1.8697,1.8781,1.8781,1.8781,1.8781,1.8781,1.8781,1.8781,1.8781,1.8781,1.8781,1.8781,1.8781,1.8781,1.8781,1.8781,1.8781,1.8781,1.8874,1.8874,1.8874,1.892,1.8966,1.8966,1.8966,1.9058,1.9242,1.8966,1.892,1.8966,1.8966,1.8966,1.8966,1.8966,1.8966,1.8966,1.9196,1.9288,1.9333,1.9533,1.9442,1.9288,1.9288,1.9288,1.9333,1.9533,1.9587,1.9587,1.9587,1.9587,1.9587,1.9587,1.9587,1.9587,1.9587,1.9587,1.9442,1.902,1.8966,1.8966,1.8966,1.915,1.9196,1.8974,1.915,1.9012,1.8357,1.8311,1.8032,1.7318,1.7365,1.7365,1.7257,1.7552,1.7831,1.8102,1.8796,1.9583,2.0473,2.0699,2.0925,2.1132,2.1338,2.1338,2.1096,2.1132,2.1132,0.0,0.0,0.0,0.0,1.8781,0.0,0.0,0.0,1.8574,1.8743,0.0,0.0,0.0,0.0,0.0,0.0,0.0,0.0,1.8735,1.8643,1.855,1.8435,1.8435,1.852,1.8735,1.8781,1.8781,1.8781,1.8781,1.8781,1.8781,1.8781,1.8781,1.8781,1.8781,1.8781,1.8781,1.8781,1.8781,1.8781,1.8781,1.8781,1.8827,1.9058,1.9142,1.9188,1.9396,1.9487,1.9487,1.9487,1.9541,1.9533,1.9242,1.9296,1.9487,1.9487,1.9487,1.9487,1.9487,1.9487,1.9487,1.9541,1.9533,1.9541,1.9587,1.9587,1.9533,1.9533,1.9533,1.9541,1.9587,1.9587,1.9587,1.9587,1.9587,1.9587,1.9587,1.9587,1.9587,1.9587,1.9587,1.9587,1.9541,1.9487,1.9487,1.9487,1.9541,1.9541,1.9487,1.9541,1.9442,1.9104,1.9096,1.8858,1.8295,1.8673,1.8858,1.8603,1.898,1.9392,1.9621,2.0184,2.0744,2.1257,2.1302,2.1437,2.1642,2.1651,2.1562,2.1347,2.1562,2.1642,0.0,0.0,0.0,0.0,0.0,0.0,1.8781,0.0,1.8697,0.0,0.0,0.0,0.0,0.0,0.0,0.0,1.8781,0.0,0.0,0.0,1.8781,0.0,0.0,0.0,1.8781,1.8781,1.8781,1.8781,1.8781,1.8781,1.8781,1.8781,1.8781,1.8781,1.8781,1.8781,1.8781,1.8781,1.8781,1.8781,1.8966,1.905,1.905,1.9296,1.9433,1.9433,1.9533,1.9587,1.9587,1.9587,1.9671,1.9799,1.9837,1.9754,1.9587,1.9587,1.9587,1.9587,1.9587,1.9587,1.9633,1.9762,1.9891,1.9982,1.9799,1.9754,1.9754,1.9754,1.9891,2.0027,2.0209,2.0337,2.0428,2.0428,2.0428,2.0428,2.0428,2.0428,2.0428,2.0428,2.0428,2.0428,2.0428,1.9936,1.9587,1.9587,1.9716,1.9754,1.9754,1.9891,1.9982,1.9837,1.9828,1.9737,1.95,1.9691,1.9874,1.9911,2.0221,2.0492,2.0736,2.0979,2.1248,2.1571,2.1562,2.1607,2.1696,2.1696,2.1651,2.1562,2.1651,2.1696,1.8781,0.0,0.0,0.0,0.0,0.0,0.0,0.0,0.0,0.0,0.0,0.0,0.0,0.0,0.0,0.0,0.0,1.892,0.0,1.8966,0.0,0.0,0.0,0.0,0.0,1.8781,1.8781,1.8781,1.8781,1.8781,1.8781,1.8781,1.8781,1.8781,1.8781,1.8827,1.892,1.892,1.8966,1.902,1.9196,1.9288,1.9333,1.9571,1.9716,1.9808,1.9853,1.9936,1.9982,1.9982,2.0065,2.0201,2.0419,2.0292,1.9982,1.9982,1.9982,1.9982,1.9982,1.9982,2.0027,2.0155,2.0329,2.0464,2.0246,2.0201,2.0201,2.0201,2.0337,2.0555,2.0736,2.0907,2.0997,2.0997,2.0997,2.0997,2.0997,2.0997,2.0997,2.0997,2.0997,2.0997,2.0997,2.0419,1.9982,1.9982,2.011,2.0201,2.0201,2.0374,2.051,2.051,2.051,2.051,2.051,2.0564,2.0708,2.097,2.1096,2.1284,2.1482,2.1482,2.1571,2.1696,2.1696,2.1696,2.1696,2.1696,2.1696,2.1696,2.1696,2.1696,0.0,0.0,0.0,1.9487,0.0,0.0,0.0,0.0,1.9587,0.0,0.0,0.0,0.0,0.0,0.0,0.0,0.0,0.0,0.0,0.0,0.0,0.0,0.0,0.0,0.0,1.8781,1.8781,1.8781,1.8781,1.8781,1.8781,1.8781,1.8781,1.8781,1.8781,1.892,1.9188,1.9188,1.9333,1.9587,1.9587,1.9587,1.9587,1.9799,2.0019,2.0292,2.0564,2.0781,2.0952,2.0952,2.0952,2.0952,2.0988,2.0952,2.0952,2.0952,2.0952,2.0952,2.0952,2.0952,2.0952,2.0952,2.0952,2.0997,2.0952,2.0952,2.0952,2.0952,2.0952,2.0997,2.0997,2.0997,2.0997,2.0997,2.0997,2.0997,2.0997,2.0997,2.0997,2.0997,2.0997,2.0997,2.0997,2.0997,2.0952,2.0952,2.0952,2.0952,2.0952,2.0952,2.0997,2.0997,2.0997,2.0997,2.0997,2.1203,2.1437,2.1651,2.1687,2.1696,2.1696,2.1696,2.1687,2.1696,2.1696,2.1696,2.1696,2.1696,2.1696,2.1696,2.1696,2.1696,0.0,0.0,1.9487,1.9587,0.0,0.0,0.0,0.0,0.0,0.0,0.0,0.0,0.0,0.0,0.0,0.0,0.0,0.0,0.0,0.0,0.0,0.0,0.0,0.0,0.0,0.0,1.935,1.935,1.915,1.915,1.9304,1.915,1.915,1.9304,1.935,1.935,1.9479,1.9479,1.9487,1.9587,1.9716,1.9891,2.0073,2.0337,2.0555,2.0772,2.0871,2.0952,2.0997,2.0997,2.0997,2.0997,2.1195,2.1248,2.1248,2.1087,2.0997,2.0997,2.0997,2.0997,2.0997,2.0997,2.0997,2.0997,2.0997,2.0997,2.0997,2.0997,2.1141,2.1248,2.1248,2.1374,2.1454,2.1454,2.1454,2.1454,2.1454,2.1454,2.1454,2.1454,2.1454,2.1454,2.1454,2.1454,2.1365,2.1042,2.0997,2.1042,2.1248,2.1248,2.1338,2.1463,2.1454,2.1454,2.1454,2.1562,2.1607,2.1696,2.1696,2.1696,2.1696,2.1696,2.1696,2.1696,2.1696,2.1696,2.1696,2.1696,2.1696,2.1696,2.1696,2.1696,1.9533,1.9762,0.0,1.999,2.0027,0.0,2.0119,0.0,0.0,0.0,0.0,0.0,0.0,0.0,0.0,0.0,0.0,0.0,0.0,1.9945,0.0,0.0,0.0,0.0,0.0,1.9587,1.9587,1.9587,1.9433,1.9433,1.9587,1.9433,1.9433,1.9587,1.9587,1.9633,1.9716,1.9808,1.9899,1.999,2.0201,2.0374,2.0555,2.0736,2.0916,2.1141,2.1141,2.1186,2.1266,2.1266,2.1266,2.1275,2.1428,2.1526,2.1472,2.132,2.1266,2.1266,2.1266,2.1266,2.1266,2.1266,2.1266,2.1266,2.1266,2.1266,2.1266,2.1266,2.1374,2.1526,2.1526,2.1607,2.1696,2.1696,2.1696,2.1696,2.1696,2.1696,2.1696,2.1696,2.1696,2.1696,2.1696,2.1696,2.1597,2.1275,2.1266,2.132,2.1472,2.1526,2.1571,2.1696,2.1696,2.1696,2.1696,2.1696,2.1696,2.1696,2.1696,2.1696,2.1696,2.1696,2.1696,2.1696,2.1696,2.1696,2.1696,2.1696,2.1696,2.1696,2.1696,2.1696]},{"header":{"parameterUnit":"m.s-1","parameterCategory":1,"la1":30.6,"la2":29.2853,"lo1":-89.7004,"lo2":-87.6739,"dy":0.0162,"dx":0.0183,"nx":112,"ny":82,"refTime":"2023-09-13T12:00:00:Z","depth":0,"parameterNumber":3,"parameterNumberName":"V-component_of_WINDS"},"data":[0.0,0.0,0.0,0.0,0.0,0.0,0.0,0.0,0.0,0.0,0.0,0.0,0.0,0.0,0.0,0.0,0.0,0.0,0.0,0.0,0.0,0.0,0.0,0.0,0.0,0.0,0.0,0.0,0.0,0.0,0.0,0.0,0.0,0.0,0.0,0.0,0.0,0.0,0.0,0.0,0.0,0.0,0.0,0.0,0.0,0.0,0.0,0.0,0.0,0.0,0.0,0.0,0.0,0.0,0.0,0.0,0.0,0.0,0.0,0.0,0.0,0.0,0.0,0.0,0.0,0.0,0.0,0.0,0.0,0.0,0.0,0.0,0.0,0.0,0.0,0.0,0.0,0.0,0.0,0.0,0.0,0.0,0.0,0.0,0.0,0.0,0.0,0.0,0.0,0.0,3.2525,3.169,3.0072,2.8616,2.7595,2.6308,2.5035,2.3798,0.0,0.0,0.0,0.0,0.0,0.0,0.0,0.0,0.0,0.0,0.0,0.0,0.0,0.0,0.0,0.0,0.0,0.0,0.0,0.0,0.0,0.0,0.0,0.0,0.0,0.0,0.0,0.0,0.0,0.0,0.0,0.0,0.0,0.0,0.0,0.0,0.0,0.0,0.0,0.0,0.0,0.0,0.0,0.0,0.0,0.0,0.0,0.0,0.0,0.0,0.0,0.0,0.0,0.0,0.0,0.0,0.0,0.0,0.0,0.0,0.0,0.0,0.0,0.0,0.0,0.0,0.0,0.0,0.0,0.0,0.0,0.0,0.0,0.0,0.0,0.0,0.0,0.0,0.0,0.0,0.0,0.0,0.0,0.0,0.0,0.0,0.0,0.0,0.0,0.0,0.0,0.0,0.0,0.0,0.0,0.0,0.0,0.0,0.0,0.0,0.0,0.0,0.0,0.0,3.1033,2.9171,2.7743,2.6494,2.5382,2.3757,2.2206,2.0761,0.0,0.0,0.0,0.0,0.0,0.0,0.0,0.0,0.0,0.0,0.0,0.0,0.0,0.0,0.0,0.0,0.0,0.0,0.0,0.0,0.0,0.0,0.0,0.0,0.0,0.0,0.0,0.0,0.0,0.0,0.0,0.0,0.0,0.0,0.0,0.0,0.0,0.0,0.0,0.0,0.0,0.0,0.0,0.0,0.0,0.0,0.0,0.0,0.0,0.0,0.0,0.0,0.0,0.0,0.0,0.0,0.0,0.0,0.0,0.0,0.0,0.0,0.0,0.0,0.0,0.0,0.0,0.0,0.0,0.0,0.0,0.0,0.0,0.0,0.0,0.0,0.0,0.0,0.0,0.0,0.0,0.0,0.0,0.0,0.0,0.0,0.0,0.0,0.0,0.0,0.0,0.0,0.0,0.0,0.0,0.0,0.0,0.0,0.0,0.0,0.0,0.0,0.0,3.0232,2.9051,2.733,2.6014,2.476,2.355,2.1773,1.9985,1.8141,1.7068,0.0,0.0,0.0,0.0,0.0,0.0,0.0,0.0,0.0,0.0,0.0,0.0,0.0,0.0,0.0,0.0,0.0,0.0,0.0,0.0,0.0,0.0,0.0,0.0,0.0,0.0,0.0,0.0,0.0,0.0,0.0,0.0,0.0,0.0,0.0,0.0,0.0,0.0,0.0,0.0,0.0,0.0,0.0,0.0,0.0,0.0,0.0,0.0,0.0,0.0,0.0,0.0,0.0,0.0,0.0,0.0,0.0,0.0,0.0,0.0,0.0,0.0,0.0,0.0,0.0,0.0,0.0,0.0,0.0,0.0,0.0,0.0,0.0,0.0,0.0,0.0,0.0,0.0,0.0,0.0,0.0,0.0,0.0,0.0,0.0,0.0,0.0,0.0,0.0,0.0,0.0,0.0,0.0,0.0,0.0,0.0,0.0,0.0,0.0,0.0,0.0,0.0,2.8419,2.7225,2.5857,2.4533,2.3234,2.1954,2.0172,1.8226,1.6158,1.3085,0.0,0.0,0.0,0.0,0.0,0.0,0.0,0.0,0.0,0.0,0.0,0.0,0.0,0.0,0.0,0.0,0.0,0.0,0.0,0.0,0.0,0.0,0.0,0.0,0.0,0.0,0.0,0.0,0.0,0.0,0.0,0.0,0.0,0.0,0.0,0.0,0.0,0.0,0.0,0.0,0.0,0.0,0.0,0.0,0.0,0.0,0.0,0.0,0.0,0.0,0.0,0.0,0.0,0.0,0.0,0.0,0.0,0.0,0.0,0.0,0.0,0.0,0.0,0.0,0.0,0.0,0.0,0.0,0.0,0.0,0.0,0.0,0.0,0.0,0.0,0.0,0.0,0.0,0.0,0.0,0.0,0.0,0.0,0.0,0.0,0.0,0.0,0.0,0.0,0.0,0.0,0.0,0.0,0.0,0.0,0.0,0.0,0.0,0.0,0.0,0.0,0.0,2.7227,2.6008,2.4658,2.328,2.1923,2.0645,1.8992,1.7116,1.504,1.191,0.0,0.0,0.0,0.0,0.0,0.0,0.0,0.0,0.0,0.0,0.0,0.0,0.0,0.0,0.0,0.0,0.0,0.0,0.0,0.0,0.0,0.0,0.0,0.0,0.0,0.0,0.0,0.0,0.0,0.0,0.0,0.0,0.0,0.0,0.0,0.0,0.0,0.0,0.0,0.0,0.0,0.0,0.0,0.0,0.0,0.0,0.0,0.0,0.0,0.0,0.0,0.0,0.0,0.0,0.0,0.0,0.0,0.0,0.0,0.0,0.0,0.0,0.0,0.0,0.0,0.0,0.0,0.0,0.0,0.0,0.0,0.0,0.0,0.0,0.0,0.0,0.0,0.0,0.0,0.0,0.0,0.0,0.0,0.0,0.0,0.0,0.0,0.0,0.0,0.0,0.0,0.0,0.0,0.0,0.0,0.0,0.0,0.0,0.0,0.0,0.0,0.0,2.6558,2.5425,0.0,2.3107,2.2002,2.0754,1.9374,1.7551,1.5219,0.0,0.0,0.0,0.0,0.0,0.0,0.0,0.0,0.0,0.0,0.0,0.0,0.0,0.0,0.0,0.0,0.0,0.0,0.0,0.0,0.0,0.0,0.0,0.0,0.0,0.0,0.0,0.0,0.0,0.0,0.0,0.0,0.0,0.0,0.0,0.0,0.0,0.0,0.0,0.0,0.0,0.0,0.0,0.0,0.0,0.0,0.0,0.0,0.0,0.0,0.0,0.0,0.0,0.0,0.0,0.0,0.0,0.0,0.0,0.0,0.0,0.0,0.0,0.0,0.0,0.0,0.0,0.0,0.0,0.0,0.0,0.0,0.0,0.0,0.0,0.0,0.0,0.0,0.0,0.0,0.0,0.0,0.0,0.0,0.0,0.0,0.0,0.0,0.0,0.0,0.0,0.0,0.0,0.0,0.0,0.0,0.0,0.0,0.0,0.0,0.0,0.0,2.6916,2.5946,2.4909,0.0,2.3009,2.2089,2.0996,1.9839,1.8164,1.5805,0.0,0.0,0.0,0.0,0.0,0.0,0.0,0.0,0.0,0.0,0.0,0.0,0.0,0.0,0.0,0.0,0.0,0.0,0.0,0.0,0.0,0.0,0.0,0.0,0.0,0.0,0.0,0.0,0.0,0.0,0.0,0.0,0.0,0.0,0.0,0.0,0.0,0.0,0.0,0.0,0.0,0.0,0.0,0.0,0.0,0.0,0.0,0.0,0.0,0.0,0.0,0.0,0.0,0.0,0.0,0.0,0.0,0.0,0.0,0.0,0.0,0.0,0.0,0.0,0.0,0.0,0.0,0.0,0.0,0.0,0.0,0.0,0.0,0.0,0.0,0.0,0.0,0.0,0.0,0.0,0.0,0.0,0.0,0.0,0.0,0.0,0.0,0.0,0.0,0.0,0.0,0.0,0.0,0.0,0.0,0.0,0.0,0.0,0.0,0.0,0.0,0.0,2.631,2.537,2.4381,2.3598,2.2846,2.208,2.1208,2.0139,1.8681,0.0,0.0,0.0,0.0,0.0,0.0,0.0,0.0,0.0,0.0,0.0,0.0,0.0,0.0,0.0,0.0,0.0,0.0,0.0,0.0,0.0,0.0,0.0,0.0,0.0,0.0,0.0,0.0,0.0,0.0,0.0,0.0,0.0,0.0,0.0,0.0,0.0,0.0,0.0,0.0,0.0,0.0,0.0,0.0,0.0,0.0,0.0,0.0,0.0,0.0,0.0,0.0,0.0,0.0,0.0,0.0,0.0,0.0,0.0,0.0,0.0,0.0,0.0,0.0,0.0,0.0,0.0,0.0,0.0,0.0,0.0,0.0,0.0,0.0,0.0,0.0,0.0,0.0,0.0,0.0,0.0,0.0,0.0,0.0,0.0,0.0,0.0,0.0,0.0,0.0,0.0,0.0,0.0,0.0,0.0,0.0,0.0,0.0,0.0,0.0,0.0,0.0,0.0,2.5879,2.5189,2.441,2.3653,2.3408,2.3001,2.2218,2.1641,2.0493,1.8485,0.0,0.0,0.0,0.0,0.0,0.0,0.0,0.0,0.0,0.0,0.0,0.0,0.0,0.0,0.0,0.0,0.0,0.0,0.0,0.0,0.0,0.0,0.0,0.0,0.0,0.0,0.0,0.0,0.0,0.0,0.0,0.0,0.0,0.0,0.0,0.0,0.0,0.0,0.0,0.0,0.0,0.0,0.0,0.0,0.0,0.0,0.0,0.0,0.0,0.0,0.0,0.0,0.0,0.0,0.0,0.0,0.0,0.0,0.0,0.0,0.0,0.0,0.0,0.0,0.0,0.0,0.0,0.0,0.0,0.0,0.0,0.0,0.0,0.0,0.0,0.0,0.0,0.0,0.0,0.0,0.0,0.0,0.0,0.0,0.0,0.0,0.0,0.0,0.0,0.0,0.0,0.0,0.0,0.0,0.0,0.0,0.0,0.0,0.0,0.0,0.0,0.0,2.5508,2.495,2.4337,2.3754,2.3758,2.3604,2.2989,2.2736,2.1855,2.012,0.0,0.0,0.0,0.0,0.0,0.0,0.0,0.0,0.0,0.0,0.0,0.0,0.0,0.0,0.0,0.0,0.0,0.0,0.0,0.0,0.0,0.0,0.0,0.0,0.0,0.0,0.0,0.0,0.0,0.0,0.0,0.0,0.0,0.0,0.0,0.0,0.0,0.0,0.0,0.0,0.0,0.0,0.0,0.0,0.0,0.0,0.0,0.0,0.0,0.0,0.0,0.0,0.0,0.0,0.0,0.0,0.0,0.0,0.0,0.0,0.0,0.0,0.0,0.0,0.0,0.0,0.0,0.0,0.0,0.0,0.0,0.0,0.0,0.0,0.0,0.0,0.0,0.0,0.0,0.0,0.0,0.0,0.0,0.0,0.0,0.0,0.0,0.0,0.0,0.0,0.0,0.0,0.0,0.0,0.0,0.0,0.0,0.0,0.0,0.0,0.0,0.0,2.5146,2.4666,2.4192,2.3859,2.3979,2.3947,2.3582,2.3498,2.2914,2.169,0.0,0.0,0.0,0.0,0.0,0.0,0.0,0.0,0.0,0.0,0.0,0.0,0.0,0.0,0.0,0.0,0.0,0.0,0.0,0.0,0.0,0.0,0.0,0.0,0.0,0.0,0.0,0.0,0.0,0.0,0.0,0.0,0.0,0.0,0.0,0.0,0.0,0.0,0.0,0.0,0.0,0.0,0.0,0.0,0.0,0.0,0.0,0.0,0.0,0.0,0.0,0.0,0.0,0.0,0.0,0.0,0.0,0.0,0.0,0.0,2.8048,0.0,0.0,0.0,0.0,0.0,0.0,0.0,0.0,0.0,0.0,0.0,0.0,0.0,0.0,0.0,0.0,0.0,0.0,0.0,0.0,0.0,0.0,0.0,0.0,0.0,0.0,0.0,0.0,0.0,0.0,0.0,0.0,0.0,0.0,0.0,0.0,0.0,0.0,0.0,0.0,0.0,2.4835,2.4637,2.435,2.406,2.438,2.4484,2.4169,2.4306,2.4061,2.3349,2.125,0.0,0.0,0.0,0.0,0.0,0.0,0.0,0.0,0.0,0.0,0.0,0.0,0.0,0.0,0.0,0.0,0.0,0.0,0.0,0.0,0.0,0.0,0.0,0.0,0.0,0.0,0.0,0.0,0.0,0.0,0.0,0.0,0.0,0.0,0.0,0.0,0.0,0.0,0.0,0.0,0.0,0.0,0.0,0.0,0.0,0.0,0.0,0.0,0.0,0.0,0.0,0.0,0.0,0.0,0.0,0.0,0.0,0.0,0.0,0.0,2.7846,0.0,0.0,0.0,0.0,0.0,0.0,0.0,0.0,0.0,0.0,0.0,0.0,0.0,0.0,0.0,0.0,0.0,0.0,0.0,0.0,0.0,0.0,0.0,0.0,0.0,0.0,0.0,0.0,0.0,0.0,0.0,0.0,0.0,0.0,0.0,0.0,0.0,0.0,0.0,0.0,2.4835,2.4736,2.4551,2.4321,2.4738,2.4924,2.4666,2.511,2.5205,2.4696,2.3205,0.0,0.0,0.0,0.0,0.0,0.0,0.0,0.0,0.0,0.0,0.0,0.0,0.0,0.0,0.0,0.0,0.0,0.0,0.0,0.0,0.0,0.0,0.0,0.0,0.0,0.0,0.0,0.0,0.0,0.0,0.0,0.0,0.0,0.0,0.0,0.0,0.0,0.0,0.0,0.0,0.0,0.0,0.0,0.0,0.0,0.0,0.0,0.0,0.0,0.0,0.0,0.0,0.0,2.9709,2.9673,3.0081,2.9596,2.9404,2.9341,2.8675,2.8124,2.7683,2.717,0.0,0.0,0.0,0.0,0.0,0.0,0.0,0.0,0.0,0.0,0.0,0.0,0.0,0.0,0.0,0.0,0.0,0.0,0.0,0.0,0.0,0.0,0.0,0.0,3.3822,3.3617,3.3097,0.0,0.0,0.0,0.0,0.0,0.0,0.0,0.0,0.0,0.0,0.0,2.5048,2.5005,2.485,2.4681,2.5061,2.5305,2.5237,2.5866,2.6177,2.5928,2.5016,2.4099,0.0,0.0,0.0,0.0,0.0,0.0,0.0,0.0,0.0,0.0,0.0,0.0,0.0,0.0,0.0,0.0,0.0,0.0,0.0,0.0,0.0,0.0,0.0,0.0,0.0,0.0,0.0,0.0,0.0,0.0,0.0,0.0,3.1508,3.1029,0.0,0.0,0.0,0.0,0.0,0.0,0.0,0.0,0.0,0.0,0.0,0.0,0.0,2.8146,2.8568,2.892,2.921,2.9438,2.9523,2.9621,2.9684,2.9741,2.9716,2.9747,2.9806,0.0,2.8597,2.8254,0.0,0.0,0.0,0.0,0.0,0.0,0.0,0.0,0.0,0.0,0.0,0.0,0.0,0.0,0.0,0.0,0.0,0.0,0.0,0.0,0.0,0.0,3.3424,3.3949,3.3975,3.3848,0.0,3.3035,3.202,3.0807,2.9479,0.0,0.0,0.0,0.0,0.0,0.0,0.0,2.5467,2.5412,2.5328,2.5287,2.5443,2.5705,2.61,2.6386,2.6765,2.7211,2.6535,2.5869,2.5415,2.4375,0.0,0.0,0.0,0.0,0.0,0.0,0.0,0.0,0.0,0.0,0.0,0.0,0.0,0.0,0.0,0.0,0.0,0.0,0.0,0.0,0.0,0.0,0.0,0.0,0.0,0.0,0.0,0.0,0.0,3.2373,3.1695,3.1248,3.0463,2.9761,0.0,0.0,0.0,0.0,0.0,0.0,0.0,0.0,0.0,2.8208,2.8551,2.8871,2.9233,2.9418,2.9637,2.987,2.996,3.0052,3.0144,3.0221,3.0251,3.0251,3.0341,3.0113,2.9591,2.9008,2.8417,2.7887,0.0,0.0,0.0,0.0,2.9306,3.0195,3.0837,3.1319,3.1709,3.1936,0.0,0.0,0.0,0.0,0.0,0.0,0.0,0.0,0.0,0.0,3.3503,3.3899,3.3949,3.3873,3.3797,3.3435,3.2821,0.0,3.0416,2.9049,2.8175,0.0,0.0,0.0,0.0,2.5932,2.6203,2.6095,2.5987,2.5906,2.6021,2.62,2.6401,2.7047,2.7507,2.7726,2.763,2.7358,2.6875,2.6052,2.5332,0.0,0.0,0.0,0.0,0.0,0.0,0.0,0.0,0.0,0.0,0.0,0.0,0.0,0.0,0.0,0.0,0.0,0.0,0.0,0.0,0.0,0.0,0.0,0.0,0.0,0.0,0.0,0.0,3.2471,3.1966,3.1452,3.0807,3.016,0.0,0.0,0.0,0.0,0.0,0.0,2.7914,2.8384,2.8771,2.9044,2.9373,2.9685,2.9931,2.9976,3.0129,3.0387,3.0387,3.0477,3.0642,3.0642,3.0672,3.0732,3.0732,3.0642,3.0447,2.9713,2.9184,2.8826,2.8588,2.8798,2.9213,2.9726,3.0526,3.1363,3.1836,3.2203,3.2441,3.2605,3.2617,3.2617,3.2617,0.0,0.0,0.0,0.0,3.2861,3.3214,3.3372,3.3503,3.3745,3.3797,3.3771,3.3668,3.3581,3.3346,0.0,3.1198,2.983,2.9396,0.0,0.0,0.0,0.0,2.6849,2.6971,2.6826,2.6669,2.6537,2.6535,2.6638,2.6793,2.749,2.8026,2.8238,2.8512,2.8529,2.8247,2.7664,2.7092,2.6549,0.0,0.0,0.0,0.0,0.0,0.0,0.0,0.0,0.0,0.0,0.0,0.0,0.0,0.0,0.0,0.0,0.0,0.0,0.0,0.0,0.0,0.0,0.0,0.0,0.0,0.0,0.0,0.0,0.0,3.171,3.1043,0.0,0.0,0.0,0.0,2.8771,2.8926,2.9035,2.9035,2.9352,2.9588,2.9747,3.0068,3.0251,3.0251,3.0447,3.0568,3.0568,3.0568,3.0672,3.0791,3.0791,3.0895,3.1087,3.1087,3.1087,3.1014,3.0477,3.0038,2.9747,2.9872,3.0103,3.048,3.094,3.1564,3.2219,3.2664,3.2951,3.3069,3.3229,3.324,3.324,3.324,3.324,0.0,0.0,3.3266,3.3266,3.3309,3.3309,3.3361,3.3477,3.3529,3.3529,3.3503,3.3503,3.3372,0.0,3.1522,3.0262,3.0,0.0,2.763,2.763,2.763,2.767,2.774,2.7458,2.7229,2.7167,2.687,2.6961,2.7597,2.7505,2.7939,2.9158,2.914,2.9259,2.9687,2.9487,2.9192,2.883,2.829,0.0,0.0,0.0,0.0,0.0,0.0,0.0,0.0,0.0,0.0,0.0,0.0,0.0,0.0,0.0,0.0,0.0,0.0,0.0,0.0,0.0,0.0,0.0,0.0,0.0,0.0,0.0,0.0,3.2176,3.1652,0.0,3.0881,3.0388,2.9979,2.9777,2.9761,2.973,2.973,3.0358,3.0711,3.0759,3.138,3.1736,3.1736,3.1785,3.1893,3.2032,3.2032,3.2157,3.2404,3.1959,3.1842,3.1975,3.1544,3.1423,3.1481,3.1423,3.1161,3.0792,3.0911,3.1233,3.1652,3.199,3.2382,3.2827,3.3069,3.3256,3.3398,3.3607,3.3745,3.3822,3.3924,3.3949,3.3924,3.3848,3.3745,3.3658,3.3477,3.3424,3.3424,3.3372,3.3372,3.3372,3.3372,3.3372,3.3193,3.262,3.1575,3.075,3.0674,2.9407,2.8405,2.8405,2.8405,2.8381,2.8332,2.8137,2.7925,2.775,2.7524,2.7461,2.7621,2.7927,2.8248,2.8636,2.9387,2.9856,2.9914,3.0053,3.0072,2.9981,2.9487,2.9097,0.0,0.0,0.0,0.0,0.0,0.0,0.0,0.0,0.0,0.0,0.0,0.0,0.0,0.0,0.0,0.0,0.0,0.0,0.0,0.0,0.0,0.0,0.0,0.0,0.0,0.0,3.2574,3.2465,3.2104,3.1794,3.1625,3.119,3.0969,3.1114,3.0949,3.0929,3.1177,3.1613,3.1859,3.1859,3.2392,3.2689,3.2689,3.2689,3.2784,3.2956,3.3018,3.3207,3.3516,3.3141,3.305,3.3168,3.2729,3.244,3.2315,3.2486,3.2264,3.1824,3.1851,3.2092,3.2484,3.2726,3.3011,3.3256,3.345,3.3633,3.3797,3.4025,3.4209,3.4382,3.4521,3.457,3.4546,3.4382,3.4209,3.405,3.3822,3.3736,3.3684,3.3607,3.3529,3.3503,3.3503,3.326,3.2933,3.2498,3.1681,3.1013,3.0817,2.9792,2.899,2.9029,2.899,2.8944,2.8858,2.8692,2.8486,2.8326,2.818,2.8082,2.7968,2.8338,2.8601,2.8688,2.9726,3.0378,3.0479,3.0891,3.1131,3.1131,3.0644,3.0192,2.9811,0.0,0.0,0.0,0.0,0.0,0.0,0.0,0.0,0.0,0.0,0.0,0.0,0.0,0.0,0.0,0.0,0.0,0.0,0.0,0.0,0.0,0.0,0.0,3.3346,3.2915,3.2629,3.2629,3.2398,3.2219,3.2219,3.1953,3.2025,3.2687,3.2497,3.2661,3.3286,3.3145,3.3051,3.3051,3.3081,3.3081,3.3081,3.3081,3.3189,3.339,3.3514,3.3743,3.409,3.4269,3.4417,3.4548,3.4517,3.4162,3.3547,3.3686,3.341,3.2928,3.2715,3.2742,3.2951,3.3229,3.3398,3.3555,3.3822,3.4101,3.4349,3.4472,3.4658,3.4857,3.5048,3.5111,3.5088,3.4897,3.4682,3.4497,3.4349,3.4226,3.4126,3.4126,3.4,3.3924,3.3866,3.3219,3.2622,3.2549,3.1833,3.1019,3.049,2.9805,2.935,2.9496,2.9412,0.0,2.9328,2.9082,2.8928,2.8928,2.8795,2.8732,2.8732,2.8709,2.8958,2.9456,3.0169,3.0846,3.1382,3.2028,3.2394,3.2398,3.1823,3.1102,3.0241,0.0,0.0,0.0,0.0,0.0,0.0,0.0,0.0,0.0,0.0,0.0,0.0,0.0,0.0,0.0,0.0,0.0,0.0,0.0,0.0,0.0,0.0,3.4126,3.3658,3.3382,3.3251,3.3251,3.3027,3.2827,3.2734,3.2987,3.3172,3.3271,3.357,3.3772,3.3819,3.4058,3.4188,3.4094,3.4494,3.4733,3.4733,3.4876,3.505,3.527,3.5396,3.5645,3.5937,3.5519,3.5392,3.557,3.5012,3.4787,3.4698,3.4305,3.4128,3.4004,3.3349,3.3214,3.3388,3.3633,3.3873,3.4126,3.4399,3.4554,3.4706,3.4977,3.5211,3.5402,3.5554,3.5616,3.5594,3.5424,3.5234,3.5018,3.473,3.4602,3.4521,3.4423,3.4349,3.4153,3.3535,3.321,3.2708,3.1656,3.123,3.0967,3.0674,3.0093,2.9677,2.97,2.9677,0.0,2.9655,2.9611,2.9506,2.9432,2.9371,2.9325,2.9273,2.9273,2.9307,2.9351,3.0006,3.0593,3.1087,3.1664,3.2106,3.2382,3.2148,3.1766,0.0,0.0,0.0,0.0,0.0,0.0,0.0,0.0,0.0,0.0,0.0,0.0,0.0,0.0,0.0,0.0,0.0,0.0,0.0,0.0,0.0,0.0,3.4835,3.4682,3.4366,3.3933,3.3684,3.3684,3.3678,3.3655,3.359,3.4038,3.44,3.461,3.4778,3.4953,3.511,3.5354,3.5413,3.5334,3.5682,3.5879,3.5879,3.599,3.6148,3.6383,3.6538,3.6815,3.7193,3.6859,3.6803,3.6994,3.6565,3.6273,3.6055,3.5692,3.5289,0.0,0.0,0.0,0.0,0.0,3.4513,3.4873,3.5015,3.5184,3.5374,3.5583,3.58,3.5997,3.6062,3.6101,3.6079,3.5915,3.5756,3.5549,3.527,3.5148,3.5071,3.4961,3.4913,3.4644,3.3782,3.3317,3.2712,3.1522,3.109,0.0,3.0844,3.0375,3.0032,3.0092,3.0049,3.0032,3.0092,3.0032,2.9989,2.9984,2.9984,2.9984,3.0,3.0,0.0,0.0,0.0,3.1068,3.1727,3.2349,0.0,0.0,0.0,3.259,3.2241,0.0,0.0,0.0,3.0556,3.0822,0.0,0.0,0.0,0.0,0.0,0.0,0.0,0.0,0.0,0.0,0.0,0.0,0.0,0.0,0.0,0.0,3.5264,3.5316,3.5316,3.47,3.4214,3.4113,3.4392,3.4622,3.4717,3.515,3.5673,3.6287,3.6135,3.6253,3.683,0.0,0.0,0.0,0.0,3.6662,3.6662,3.6662,3.6784,3.7057,3.7252,3.7594,3.7972,3.8116,3.8274,3.8448,3.8448,3.8059,3.747,3.7416,3.6645,3.5446,3.4401,3.4084,3.4308,3.4738,3.523,3.5661,3.5661,0.0,0.0,3.6156,3.6322,3.6523,3.6523,3.6523,3.6502,3.6381,3.6195,3.6019,3.5905,3.5756,3.5667,3.5689,3.5515,3.5133,3.4264,3.3438,3.2653,3.1821,3.124,3.0925,3.1075,3.072,3.0435,3.0551,3.0472,3.0435,3.0551,3.0472,3.0452,3.0568,0.0,0.0,3.0753,3.0753,3.0692,3.0551,3.1099,3.1814,3.2741,3.3475,3.3767,3.3607,3.3607,3.3435,3.3087,3.2991,3.2884,3.2722,3.2102,3.1964,0.0,0.0,0.0,0.0,0.0,0.0,0.0,0.0,0.0,0.0,0.0,0.0,0.0,0.0,0.0,3.5859,3.5924,3.5924,3.5924,3.6147,3.6095,3.549,3.5319,3.5438,3.5915,3.654,3.6936,3.7081,3.7589,3.786,3.7841,3.7812,3.774,3.7623,3.7623,3.7623,3.7623,3.774,3.7812,3.787,0.0,0.0,3.8455,3.8595,3.8694,3.8722,3.8722,3.864,3.8488,3.8107,3.7336,3.6333,3.509,3.4833,3.5178,3.5498,3.5771,3.6011,3.6135,3.628,3.6423,3.6423,3.6523,3.6643,3.6643,3.6643,0.0,3.6623,3.644,3.6259,3.6339,3.6229,3.6101,3.6152,3.5689,3.4974,3.3976,3.323,3.25,3.1691,3.1494,3.1485,3.1615,3.131,3.1035,3.1072,3.1035,3.1035,3.1072,3.1035,3.1035,3.1072,3.1055,3.1072,3.1092,3.1112,3.1052,3.0915,3.1257,3.1819,3.2619,3.3196,3.3697,3.4134,3.4151,3.4,3.3745,3.3806,3.3781,3.3626,3.2803,3.2535,0.0,0.0,0.0,0.0,0.0,0.0,0.0,0.0,0.0,0.0,0.0,3.5577,0.0,0.0,3.6174,3.628,3.636,3.6523,3.6907,3.712,3.6984,3.6322,3.6663,3.7041,3.7275,3.7886,3.8259,3.8259,3.8592,3.8761,3.8662,3.8662,3.8606,3.8451,3.8451,3.8411,3.8343,3.8427,3.8523,3.8662,3.8827,3.9044,3.9295,3.9375,3.948,3.961,3.961,3.961,3.9569,3.9017,3.8309,3.7467,3.6554,3.6067,3.5876,3.6067,3.628,3.6468,3.653,3.6652,3.6794,3.6794,3.6891,3.7005,3.7005,3.7005,3.6985,3.6928,3.6794,3.6713,3.6731,3.6687,3.6609,3.6632,3.6058,3.5233,3.4254,3.3496,3.2756,3.1958,3.1893,3.2002,3.2126,3.202,3.182,3.154,3.15,3.15,3.15,3.1426,3.1406,3.1406,3.1366,3.1366,3.1387,3.1445,3.1426,3.131,3.1796,3.2395,3.3007,3.3606,3.4203,3.4857,3.4747,3.4618,3.4497,3.4423,3.4382,3.4341,3.3818,3.3569,0.0,0.0,0.0,0.0,0.0,0.0,0.0,0.0,3.6032,3.6032,3.6118,3.622,3.6224,3.6406,3.6564,3.6588,3.6806,3.7164,3.7777,3.8042,3.7958,3.7467,3.8176,3.8715,3.8698,3.9139,3.9428,3.9428,3.9428,3.9428,3.9428,3.9428,3.9375,3.9295,3.9279,3.9216,3.9098,3.9098,3.9232,3.9428,3.9454,3.9714,4.0128,4.017,4.0294,4.0538,4.057,4.0594,4.059,3.9974,3.9387,3.8827,3.8243,3.752,3.6779,3.6599,3.6687,3.6851,3.6851,3.6989,3.7166,3.7166,3.726,3.7353,3.7353,3.7353,3.7334,3.7242,3.7186,3.7167,3.7147,3.7145,3.7145,3.7164,3.644,3.552,3.4719,3.3861,3.3055,3.2371,3.2352,3.2488,3.2607,3.2655,3.2539,3.2037,3.1965,3.1947,3.1929,3.1856,3.1765,3.1747,3.169,3.1671,3.1728,3.1838,3.1856,3.1747,3.228,3.2924,3.3615,3.4121,3.4723,3.5515,3.5379,3.5297,3.5251,3.5031,3.4944,3.4981,3.4911,3.4617,3.5754,3.5885,3.5989,3.5989,3.6114,3.622,0.0,0.0,3.6423,3.6423,3.6544,3.6643,3.671,3.6748,3.6809,3.6911,3.7509,3.7965,3.8053,3.928,4.011,3.9918,3.9595,3.9593,4.0097,4.0226,4.0277,4.0277,4.0277,4.0277,4.0277,4.0277,4.0252,4.0252,4.0252,4.0228,4.0228,4.0228,4.0228,4.0277,4.0392,4.0466,4.0538,4.071,4.0853,4.0954,4.1192,4.1368,4.1405,4.0748,4.0532,4.0559,3.9838,3.9116,3.837,3.7213,3.6873,3.7069,3.7069,3.7204,3.7373,3.7373,3.7466,3.7576,3.7576,3.7576,3.7594,3.7613,3.7541,3.7487,3.7685,3.7685,3.7649,3.7703,3.6609,3.5448,3.5169,3.4059,3.3051,3.2782,3.2878,3.3024,3.3024,3.3039,3.293,3.2555,3.2522,3.2489,3.2422,3.2404,3.2335,3.2231,3.2214,3.2214,3.2214,3.2231,3.2231,3.2214,3.2249,3.2839,3.4152,3.4229,3.4777,3.5998,3.5989,3.5898,3.5717,3.5749,3.5749,3.5677,3.5732,3.5334,3.6322,0.0,0.0,0.0,3.6527,3.6588,3.6588,3.669,3.6788,3.6788,3.6829,3.6869,3.6908,3.6928,3.693,0.0,3.7619,3.8269,3.8722,3.9779,4.0639,4.1012,4.0852,4.0752,4.0855,4.0866,4.0866,4.0866,4.0866,4.0866,4.0866,4.0866,4.0866,4.0866,4.0866,4.0896,4.099,4.099,4.1059,4.1162,4.1202,4.1333,4.1485,4.1547,4.1679,4.1839,4.1924,4.2047,4.2169,4.1892,4.1544,4.1158,4.0856,4.0285,3.9478,3.837,3.7726,3.7411,3.7449,3.7558,3.7703,3.7739,3.781,3.7897,3.7897,3.795,3.802,3.8036,3.8035,3.8033,3.8135,3.8136,3.8101,3.8135,3.6937,3.5745,3.5564,3.4428,3.3412,3.324,3.3361,3.3512,3.3512,3.3512,3.3455,3.3321,3.3068,3.288,3.2896,3.285,3.2736,3.262,3.2586,3.2586,3.2586,3.2669,3.2703,3.2703,3.267,3.3295,3.4765,3.4653,3.52,3.6597,3.6426,3.628,3.6212,3.6156,3.6156,3.6212,3.6284,3.6101,3.6826,0.0,0.0,3.6866,3.6888,3.693,3.697,3.7048,3.7106,3.7106,3.7106,3.7087,3.7029,3.7029,3.7029,3.7029,3.7855,3.8699,3.9341,4.0313,4.1163,4.1731,4.1801,4.1719,4.1525,4.1413,4.1386,4.1386,4.1413,4.1458,4.1458,4.1463,4.1485,4.1485,4.1529,4.1596,4.1683,4.1705,4.1813,4.1945,4.1945,4.2047,4.2228,4.2269,4.2374,4.2536,4.2595,4.2691,4.2805,4.2824,4.25,4.1994,4.1994,4.1488,4.0673,3.977,3.8852,3.8008,3.7864,3.7915,3.8054,3.8119,3.8168,3.8234,3.8234,3.8302,3.8387,3.8419,3.8465,3.8528,3.8556,3.8556,3.8572,3.8588,3.7356,3.6153,3.604,3.4894,3.3842,3.3752,3.3845,3.3959,3.3934,3.3934,3.3934,3.3934,3.362,3.3397,3.3339,3.3235,3.3129,3.3032,3.3016,3.3016,3.3016,3.3114,3.3178,3.3178,3.336,3.402,3.5252,3.5314,3.5898,3.7147,3.693,3.6811,3.6811,3.6713,3.6713,3.6811,3.6853,3.6893,0.0,0.0,3.7278,3.7278,3.7278,3.7297,3.7373,3.7374,3.7392,3.7392,3.7392,3.7318,3.7127,3.7108,3.7108,3.7108,3.8413,3.9534,3.9736,4.1088,4.2107,4.2267,4.2287,4.2287,0.0,4.1973,4.178,4.178,4.1956,4.2082,4.2082,4.2205,4.2267,4.2267,4.2333,4.2376,4.2376,4.2512,4.257,4.2571,4.2571,4.2589,4.2589,4.2634,4.275,4.29,4.3087,4.3214,4.3285,4.3427,4.3462,4.3443,4.3443,4.2947,4.2139,4.1332,4.0225,3.9048,3.8339,3.8219,3.8399,3.8462,3.8523,3.8585,3.8585,3.8585,3.8634,3.8743,3.8792,3.8822,3.8935,3.8979,3.8993,3.9059,3.7843,3.6655,3.6586,3.5368,3.4281,3.4281,3.4328,3.4351,3.4293,3.4281,3.4281,3.4281,3.4221,3.4049,3.3726,3.3615,3.3591,3.3591,3.3591,3.3591,3.3591,3.3591,3.3591,3.3591,3.4244,3.4924,3.5568,3.626,3.6932,3.7559,3.7558,3.7576,3.7576,3.7558,3.7558,3.7576,3.7558,3.7558,3.754,0.0,3.7503,3.7558,3.7577,3.7559,3.7595,3.7632,3.7667,3.7667,3.7631,3.7577,3.7522,3.7449,3.7429,3.7429,3.8821,3.9912,3.999,4.1407,4.245,4.249,4.251,0.0,0.0,0.0,0.0,4.2192,4.2254,4.2333,4.243,4.2472,4.2512,4.2573,4.2673,4.2806,4.292,4.3032,4.3105,4.3196,4.3196,4.3196,4.3196,4.3214,4.3286,4.3355,4.3443,4.3531,4.3634,4.3686,4.3703,4.3703,4.3703,4.3537,4.3131,4.1778,4.1033,4.0464,3.9046,3.8621,3.8683,3.8743,3.8788,3.8818,3.8844,3.8902,3.8956,3.9082,3.9161,3.9221,3.9317,3.9285,3.9285,3.9401,3.8171,3.6965,3.6993,3.5776,3.4701,3.4701,3.4722,3.4722,3.4711,3.462,3.4567,3.4561,3.4351,3.4148,3.3985,3.3908,3.3855,3.3855,3.3855,3.3855,3.3855,3.3855,3.3855,3.3855,3.4591,3.5314,3.5969,3.6664,3.7336,3.7982,3.7948,3.7932,3.7932,3.7932,3.7932,3.7931,3.7983,3.8,3.7898,3.788,3.7845,3.7898,3.7915,3.7915,3.7931,3.8,3.805,3.805,3.8,3.7932,3.7862,3.7792,3.7739,3.7739,3.9157,4.0274,4.0347,4.1793,4.2881,4.2919,4.2919,4.2919,0.0,0.0,0.0,4.2595,4.2653,4.2731,4.2844,4.29,4.2939,4.2976,4.3087,4.3214,4.3339,4.3426,4.3531,4.3651,4.3651,4.3667,4.3682,4.3682,4.3732,4.3777,4.3777,4.3862,4.3963,4.3963,4.3995,4.4011,4.4011,4.3841,4.3426,4.2124,4.1446,4.097,3.9452,3.895,3.8964,3.9045,3.9073,3.9087,3.9156,3.9237,3.9298,3.9389,3.9458,3.9527,3.9611,3.9611,3.9611,3.9721,3.8696,3.7648,3.7387,3.6349,3.5343,3.5067,3.501,3.501,3.4973,3.4879,3.4812,3.482,3.4596,3.439,3.4257,3.4185,3.4148,3.4148,3.4148,3.4148,3.4148,3.4148,3.4148,3.4148,3.516,3.5932,3.633,3.7316,3.8038,3.8442,3.8412,3.8399,3.8399,3.8399,3.8399,3.838,3.8428,3.846,3.8289,3.8323,3.8323,3.8323,3.8323,3.8338,3.8417,3.8478,3.8525,3.8525,3.8462,3.8366,0.0,0.0,3.8035,3.8035,3.9441,4.0597,4.0788,4.2262,4.3374,0.0,0.0,0.0,0.0,0.0,0.0,4.2995,0.0,4.3268,4.332,4.3462,4.3513,4.3532,4.358,4.3612,4.3631,4.3751,4.3851,4.3931,4.3929,4.3976,4.4036,4.4036,4.4064,4.4121,4.4121,4.4203,4.4314,4.4314,4.4373,4.4411,4.4374,4.3891,4.3133,4.2334,4.1531,4.0672,3.9605,3.9237,3.9251,3.9363,3.9414,3.9427,3.9502,3.9563,3.9611,3.9623,3.9682,3.9762,3.9903,3.9924,3.9937,4.0002,3.9404,3.8614,3.785,3.701,3.6197,3.5428,3.5237,3.5182,3.5122,3.5051,3.5027,3.5029,3.4955,3.4812,3.455,3.4461,3.4427,3.4427,3.4427,3.4427,3.4427,3.4427,3.4427,3.4465,3.5956,3.6776,3.6705,3.8206,3.8989,3.8921,3.8921,3.8921,3.8921,3.8921,3.8921,3.8921,3.8921,3.8921,3.8655,3.8606,3.8541,3.8655,3.867,3.8686,3.8683,3.8743,3.8803,3.8803,3.8743,3.8683,0.0,0.0,0.0,3.8444,3.9896,0.0,4.1089,4.257,0.0,4.3783,0.0,4.3832,4.3878,4.3878,0.0,0.0,4.3677,4.3614,4.3732,4.3783,4.3832,4.3878,4.3894,4.3923,4.3968,4.4158,4.4252,4.4281,4.4364,4.4421,4.4435,4.4505,4.4532,4.456,4.456,4.456,4.4605,4.4605,4.4619,4.4557,4.3969,4.3599,4.3265,4.1907,4.1291,4.0969,4.016,3.9743,3.9587,3.9611,3.9623,3.9647,3.9762,3.981,3.9857,4.0011,4.0051,4.0091,4.0176,4.0205,4.0205,4.0276,3.9678,3.9035,3.8845,3.7652,3.6565,3.6361,3.5794,3.5327,3.5251,3.5231,3.5226,3.5231,3.5166,3.5037,3.4762,3.4662,3.463,3.463,3.4618,3.4623,3.4623,3.4623,3.4878,3.548,3.6506,3.734,3.7932,3.8921,3.9389,3.9259,3.9324,3.9324,3.9259,3.9324,3.935,3.935,3.935,3.935,3.8881,3.8833,3.8785,3.8862,3.8896,3.8896,3.8896,3.8935,3.8993,3.8993,3.8935,0.0,3.8896,3.8803,0.0,0.0,0.0,0.0,4.136,4.2881,4.3995,0.0,4.4101,0.0,4.4173,4.4233,4.4288,0.0,4.4087,4.3983,4.4162,4.4162,4.4177,4.4218,4.4248,4.4306,4.436,4.4477,4.4565,4.4613,4.4712,4.477,4.482,4.4857,4.4893,4.4917,0.0,4.4917,4.4917,4.4917,4.4702,4.4345,4.3905,4.33,4.2561,4.174,4.1179,4.0797,4.0404,4.0177,4.0051,3.997,3.9969,3.9989,4.0051,4.0091,4.0148,4.025,4.0313,4.0347,4.0414,4.0425,4.0444,4.0477,4.018,3.976,3.9369,3.8561,3.7694,3.6942,3.6389,3.5926,3.5501,3.5429,3.5427,3.5388,3.536,3.5266,3.5083,3.4952,3.4889,3.4889,3.4879,3.4851,3.4831,3.522,3.5637,3.6092,3.7268,3.815,3.8593,3.9361,3.9747,3.9658,3.9658,3.9658,3.9658,3.9693,3.9717,3.9717,3.9732,3.9721,3.9021,3.9036,3.9054,3.9021,3.9036,3.9036,3.9036,3.9073,3.9115,3.9115,0.0,3.9007,3.9007,3.8964,3.8921,3.8935,0.0,4.1549,4.1634,4.3141,4.4259,4.4344,4.4411,4.4468,4.4482,4.4605,4.4672,4.468,4.4448,4.4398,4.4537,4.4551,4.4546,4.4546,4.4627,4.4693,4.4757,4.477,4.4789,4.4785,4.4796,4.4813,4.4815,4.4815,4.4847,4.4917,4.4917,4.4917,4.4917,4.4917,4.4498,4.3867,4.3762,4.2861,4.1622,4.1577,4.1075,4.0438,4.0504,4.0519,4.0504,4.0366,4.0334,4.0323,4.0336,4.0378,4.043,4.0446,4.0477,4.0542,4.0617,4.0624,4.0639,4.0635,4.0681,4.0514,3.976,3.9559,3.9021,3.7401,3.7083,3.6847,3.6082,3.5948,3.5938,3.5868,3.5862,3.5836,3.5785,3.5407,3.5149,3.5136,3.5242,3.5274,3.5221,3.6065,3.6644,3.6759,3.8143,3.8983,3.9098,3.9718,4.0048,4.0027,3.9986,3.9986,4.0027,4.0048,4.0029,4.0039,4.0051,4.0051,3.9202,3.9248,3.9288,3.9202,3.9261,3.932,3.932,3.9242,0.0,0.0,3.9129,3.9073,3.9073,3.9073,3.9073,3.9129,4.0565,4.1702,0.0,0.0,4.4426,0.0,0.0,0.0,0.0,0.0,0.0,0.0,4.5052,4.4969,4.4833,4.4833,4.4831,4.4831,4.4938,4.5026,4.5038,4.5137,4.4847,4.415,4.4259,4.3972,4.3291,4.3336,4.3373,4.3382,4.3382,0.0,4.3382,4.3382,4.3295,4.3111,4.2434,4.2016,4.1678,4.1019,4.0694,4.0566,4.064,4.0674,4.0642,4.0512,4.0465,4.0492,4.0523,4.0569,4.0574,4.0636,4.0694,4.0745,4.0761,4.0767,4.0767,4.0779,4.0815,4.0818,4.0662,4.0087,3.9272,3.8268,3.8069,3.7991,3.779,3.7755,3.7749,3.7738,3.7732,3.7752,3.779,3.6357,3.5357,3.535,3.5936,3.6343,3.6316,3.713,3.7943,3.8665,3.8984,3.9445,4.0115,4.0255,4.0289,4.0167,4.0205,4.0205,4.0167,4.0223,4.0248,4.0248,4.0257,4.0274,3.9343,3.9369,3.9439,3.933,3.9369,3.9452,3.9452,0.0,0.0,0.0,3.9283,3.9261,3.9261,3.9269,0.0,3.9304,4.0766,4.1959,0.0,0.0,0.0,0.0,0.0,0.0,0.0,0.0,4.5311,4.5342,4.5381,4.5333,4.5175,4.5159,4.518,4.5211,4.5263,4.5112,4.4691,4.4758,4.4354,4.3527,4.3598,4.3429,4.3065,4.3088,4.3123,4.3173,4.3149,4.3163,4.3163,4.3197,4.2934,4.249,4.2105,4.1686,4.1229,4.0848,4.07,4.07,4.0738,4.0761,4.0798,4.0732,4.0681,4.0655,4.0688,4.0707,4.0732,4.0792,4.0834,4.0856,4.0845,4.0854,4.0859,4.0849,4.0896,4.0945,4.0957,4.0625,4.0075,3.9237,3.9045,3.8867,3.8401,3.8302,3.83,3.8301,3.8297,3.8307,3.8297,3.7484,3.6893,3.6858,3.7198,3.7416,3.7376,3.8187,3.8868,3.9285,3.9723,4.0147,4.053,4.0516,4.0476,4.0403,4.0414,4.0422,4.0465,4.0492,4.0508,4.0508,4.0511,4.0537,3.9539,3.9551,3.9575,3.9514,3.9563,3.9611,3.9611,3.9563,0.0,0.0,3.9477,3.9458,3.9458,0.0,3.9533,0.0,4.1117,4.2277,0.0,0.0,0.0,0.0,0.0,0.0,0.0,4.5447,0.0,4.5556,4.5621,4.5613,4.5494,4.5485,4.5512,4.5556,4.5391,4.5004,4.4375,4.419,4.3705,4.2895,4.2895,4.2816,4.2698,4.2698,4.2718,4.2763,4.2781,4.2794,4.2794,4.2842,4.2466,4.1831,4.1837,4.1415,4.0819,4.0824,4.0824,4.0824,4.0824,4.0878,4.0917,4.0922,4.0883,4.0814,4.0814,4.0819,4.0849,4.0893,4.0922,4.0917,4.0925,4.0918,4.0926,4.0944,4.0987,4.1011,4.1011,4.1022,4.0834,4.0192,4.0043,3.9772,3.9104,3.899,3.8968,3.8964,3.8964,3.8949,3.8881,3.8877,3.884,3.88,3.8611,3.849,3.8433,3.9219,3.9708,3.9708,4.0346,4.0713,4.0713,4.0673,4.0633,4.0641,4.0595,4.0628,4.072,4.0726,4.0713,4.0713,4.0725,4.0732,3.9881,3.9859,3.9848,3.9859,3.9903,3.9954,3.9954,0.0,0.0,3.9781,3.9705,3.967,3.967,3.967,0.0,0.0,0.0,4.2718,0.0,0.0,0.0,0.0,0.0,0.0,0.0,4.5692,0.0,4.5778,4.5828,4.5841,4.5765,4.5758,4.5781,4.5778,4.5052,4.464,4.457,4.386,4.3039,4.2193,4.2193,4.1773,4.1028,4.1028,4.1028,4.1034,4.11,4.113,0.0,4.1121,4.1073,4.1019,4.1003,4.0954,4.0881,4.0898,4.0886,4.0886,4.0886,4.0941,4.0999,4.0993,4.0945,4.09,4.09,4.0889,4.091,4.0972,4.0986,4.0984,4.0986,4.0998,4.1011,4.1064,4.1087,4.1094,4.1091,4.1095,4.1076,4.0999,4.0978,4.0953,4.0879,4.0853,4.083,4.0777,4.0755,4.0764,4.075,4.0747,4.0733,4.0668,3.9947,3.9474,3.9451,4.0211,4.0679,4.0679,4.0757,4.0796,4.0796,4.0781,4.0782,4.0782,4.0782,4.0782,4.0788,4.0779,4.0796,4.0796,4.0801,4.0828,4.005,4.007,4.0129,4.009,4.012,4.0177,4.0177,0.0,4.007,3.9981,3.9929,3.9889,3.9939,3.997,4.0288,0.0,0.0,0.0,4.4057,0.0,0.0,0.0,0.0,0.0,0.0,0.0,4.5874,4.5923,4.595,4.5972,4.5972,4.5943,4.5705,4.521,4.4891,4.4222,4.317,4.283,4.2233,4.1383,4.1383,4.1193,4.0863,4.0863,4.0863,4.0863,4.0928,4.0956,0.0,4.0956,4.0967,4.097,4.0968,4.0955,4.0955,4.0961,4.097,4.0959,4.0959,4.0991,4.1068,4.1053,4.1035,4.1009,4.097,4.0958,4.0967,4.1042,4.1069,4.1057,4.1056,4.1067,4.1074,4.1081,4.1104,4.1108,4.1093,4.1094,4.1094,4.1094,4.1093,4.1093,4.1091,4.1108,4.1086,4.106,4.1059,4.1054,4.1056,4.1053,4.1051,4.1022,4.0648,4.0382,4.0371,4.0684,4.0864,4.0864,4.0869,4.0859,4.0859,4.0863,4.0873,4.0927,4.0927,4.0921,4.0928,4.0917,4.0925,4.0925,4.0925,4.0933,4.0269,4.0295,4.0349,4.0332,4.0356,4.0397,0.0,0.0,4.0295,4.0223,4.0186,4.0157,4.0204,4.0269,4.0649,0.0,0.0,4.3453,4.458,4.5283,0.0,0.0,0.0,4.5887,0.0,4.5953,4.5982,4.6056,4.6059,4.5971,4.5751,4.5698,4.5414,4.4848,4.4327,4.3459,4.2248,4.1976,4.1532,4.0932,4.0932,4.0932,4.0932,4.0932,4.0932,4.0932,4.0997,4.1025,0.0,4.1037,4.1027,4.1029,4.1037,4.1021,4.1021,4.1025,4.103,4.1035,4.1035,4.1061,4.1067,4.0814,4.0759,4.0682,4.0374,4.0638,4.1046,4.1093,4.1095,4.1099,4.1108,4.1091,4.1093,4.1094,4.1094,4.1093,4.1091,4.1109,4.1107,4.1107,4.1109,4.1091,4.1091,4.1092,4.1093,4.1094,4.1094,4.1093,4.1108,4.1108,4.1108,4.1106,4.1014,4.097,4.0951,4.0935,4.0921,4.0933,4.0937,4.0929,4.0929,4.0929,4.0941,4.1009,4.1009,4.1003,4.1006,4.1006,4.1006,4.1006,4.1006,4.0992,4.0573,4.0558,4.0504,4.0573,4.0607,4.0607,0.0,0.0,4.0573,4.0516,4.0489,4.0489,4.0489,4.0496,4.1062,4.2795,0.0,0.0,4.5548,4.5848,0.0,0.0,0.0,4.6008,4.5997,4.6069,4.6126,4.618,4.6198,0.0,4.4955,4.4916,4.4904,4.4893,4.3228,4.232,4.23,4.1442,4.1015,4.0996,4.0996,4.0996,4.0996,4.0996,4.0996,4.0996,4.106,4.1108,0.0,4.1103,4.1107,4.1107,4.1091,4.1092,4.1092,4.1093,4.1094,4.1094,4.1094,4.1094,4.0976,4.0175,3.9901,3.9744,3.8883,3.9784,4.1094,4.1094,4.1093,4.1092,4.1108,4.1108,4.1108,4.1108,4.1108,4.1108,4.1107,4.1107,4.1107,4.1107,4.1107,4.1107,4.1107,4.1108,4.1108,4.1108,4.1108,4.1108,4.1092,4.1092,4.1093,4.1094,4.1094,4.1092,4.1091,4.1041,4.1009,4.0996,4.0994,4.0994,4.0994,4.0994,4.0994,4.0996,4.0996,4.0996,4.0996,4.0996,4.0996,4.0996,4.0996,4.0994,4.0612,4.0619,4.064,4.0655,4.0701,4.0733,4.0733,0.0,4.072,4.064,4.0646,4.064,4.0648,4.1112,4.1924,4.3105,4.3814,0.0,0.0,0.0,0.0,4.6063,4.6115,4.6134,0.0,0.0,4.6175,4.6197,4.6246,4.5885,4.5015,4.4392,4.3802,4.3209,4.2666,4.2085,4.1486,4.1214,4.1077,4.1077,4.1077,4.1078,4.1062,4.1062,4.1065,4.1069,4.109,4.1091,0.0,4.1094,4.1094,4.1094,4.1093,4.1092,4.1092,4.1091,4.1109,4.1106,4.1106,4.1104,4.1062,4.0807,4.0318,3.977,3.9496,3.9406,3.9529,4.0114,4.0289,4.0405,4.0951,4.1107,4.1106,4.1102,4.1101,4.11,4.1097,4.1097,4.1097,4.1097,4.1097,4.1097,4.1097,4.1097,4.1097,4.1097,4.1097,4.1097,4.1099,4.1099,4.11,4.1101,4.1098,4.1106,4.1092,4.1088,4.1064,4.1062,4.1078,4.1077,4.1077,4.1077,4.1061,4.1068,4.1068,4.1071,4.1074,4.1074,4.1074,4.1074,4.1074,4.1074,0.0,4.0732,4.0745,4.0781,4.0818,0.0,0.0,0.0,4.0834,4.0782,4.0776,4.0879,4.1219,4.1703,4.2476,4.3685,4.4369,0.0,0.0,0.0,0.0,4.6123,0.0,0.0,0.0,4.6248,4.6238,4.6246,4.5975,4.543,4.4569,4.3689,4.2812,4.1931,4.1911,4.1658,4.1113,4.1093,4.1093,4.1093,4.1093,4.1094,4.1094,4.1094,4.1094,4.1093,4.1092,4.1092,0.0,4.1108,4.1106,4.1105,4.1103,4.1101,4.1101,4.1101,4.1099,4.1095,4.1095,4.1093,4.1051,4.0717,3.9818,3.88,3.8465,3.8475,3.8701,3.9267,3.9403,3.9598,4.0398,4.0613,4.069,4.1019,4.1095,4.1094,4.109,4.1109,4.1109,4.1109,4.1109,4.1109,4.1109,4.1106,4.1103,4.1103,4.1101,4.1097,4.1097,4.1097,4.1097,4.1097,4.1092,4.1099,4.1103,4.1109,4.1092,4.1093,4.1094,4.1094,4.1094,4.1094,4.1093,4.109,4.109,4.1108,4.1101,4.1101,4.1101,4.1101,4.1099,4.1094,0.0,4.0863,0.0,0.0,0.0,0.0,0.0,0.0,0.0,4.1,4.1053,4.1349,4.2155,4.2349,4.2903,4.4458,4.4811,4.518,0.0,4.615,0.0,0.0,4.6203,0.0,4.6288,4.6308,4.6308,4.6306,4.5483,4.4621,4.3741,4.2864,4.2004,4.1126,4.1106,4.1106,4.1107,4.1107,4.1107,4.1107,4.1107,4.1107,4.1107,4.1107,4.1107,0.0,4.11,4.1098,0.0,4.1093,4.1109,4.1109,4.1109,4.1109,4.1109,4.1109,4.1109,4.1109,4.1109,4.1109,4.0953,4.0013,3.864,3.7207,3.6278,3.7131,3.8434,3.8473,3.8492,3.8687,3.9506,3.9719,3.9933,4.0794,4.1008,4.1028,4.1085,4.1085,4.1085,4.1085,4.1085,4.1085,4.1085,4.1097,4.109,4.1092,4.11,4.1093,4.1093,4.1093,4.1093,4.1093,4.1093,4.1093,4.1093,4.1105,4.1099,4.1095,4.1097,4.1097,4.1097,4.1097,4.1094,4.1106,4.1106,4.1104,4.1104,4.1104,4.1104,4.1104,4.1037,4.1005,4.1061,0.0,4.0894,4.0953,4.0988,4.0983,0.0,0.0,0.0,0.0,0.0,4.3035,4.3229,4.3778,4.4331,4.4787,4.5432,4.5938,4.6156,0.0,0.0,4.6289,4.6288,4.6287,4.6306,4.6305,4.6303,4.6297,4.5495,4.4614,4.3749,4.2871,4.2009,4.1124,4.1104,4.1094,4.1107,4.1107,4.1107,4.1107,4.1107,4.1105,4.1101,4.1101,4.1099,4.1094,4.1093,4.1091,4.1091,4.1109,4.1109,4.1109,4.1109,4.1109,4.1109,4.1109,4.1109,4.1109,4.1109,4.1109,4.0852,3.9316,3.8536,3.7932,3.6395,3.6241,3.6735,3.7361,3.7537,3.773,3.858,3.8812,3.9024,3.9892,4.0103,4.0279,4.0897,4.1014,4.1014,4.1014,4.1014,4.1014,4.1014,4.1011,4.1034,4.1083,4.1103,4.1103,4.1093,4.1093,4.1093,4.1093,4.1106,4.11,4.11,4.1091,4.11,4.1107,4.1107,4.1107,4.1107,4.1107,4.1103,4.1091,4.11,4.1092,4.1092,4.1092,4.1092,4.1073,4.0427,4.0112,4.1094,4.102,4.0951,4.1028,4.1059,4.1147,0.0,0.0,0.0,0.0,0.0,4.3714,4.4111,4.456,4.4994,4.5437,4.5916,0.0,0.0,0.0,4.6301,4.6299,4.6294,4.6308,0.0,4.6266,4.6241,4.6257,4.5455,4.4592,4.3749,4.2871,4.2007,4.1137,4.1098,4.1109,4.1109,4.1109,4.1109,4.1109,4.1109,4.1106,4.1101,4.1101,4.1099,4.1095,4.1095,4.1095,4.1095,4.1095,4.1097,4.1103,4.1103,4.1104,4.1109,4.1109,4.1106,4.1103,4.1103,4.1074,4.082,3.9441,3.8731,3.8159,3.6771,3.6102,3.5924,3.6412,3.6559,3.6752,3.762,3.7851,3.8062,3.8906,3.9117,3.9347,4.019,4.0361,4.0478,4.0844,4.0902,4.0902,4.0902,4.0922,4.0964,4.0995,4.1018,4.1002,4.1009,4.1009,4.1009,4.1009,4.1002,4.1018,4.1018,4.1006,4.1029,4.1103,4.1106,4.1106,4.1106,4.1106,4.1098,4.1103,4.0704,4.0481,4.0455,4.0085,3.9883,3.985,3.9383,3.9165,4.1091,4.1059,4.1037,4.1081,4.1202,4.1482,4.2237,0.0,0.0,0.0,0.0,0.0,0.0,4.5108,0.0,0.0,0.0,0.0,4.6301,4.6294,4.6306,4.6298,4.6286,0.0,4.6279,4.6228,4.6201,4.6201,4.5376,4.4593,4.3894,4.3033,4.217,4.1295,4.1253,4.1198,4.105,4.1061,4.1083,4.1061,4.1061,4.1061,4.1061,4.1083,4.1086,4.1086,0.0,0.0,4.1089,4.1089,4.1076,4.1085,4.1085,4.1072,4.1081,4.1081,4.1074,4.1085,4.1061,4.1037,4.0831,3.9878,3.9077,3.8263,3.7193,3.6353,3.5755,3.5732,3.5749,3.5931,3.667,3.6865,3.7055,3.7875,3.8069,3.8313,3.918,3.9369,3.9578,4.0252,4.0485,4.0563,4.0563,4.0738,4.0854,4.0864,4.0864,4.0869,4.0874,4.0878,4.0878,4.0878,4.0878,4.0878,4.0878,4.0878,4.0881,4.0854,4.0997,4.1,4.0886,4.0866,4.0818,4.0685,3.9965,3.9549,3.9496,3.8811,3.8447,3.8377,3.8256,3.8186,4.1091,4.1092,4.1093,4.1091,4.1659,4.2246,4.2363,0.0,0.0,0.0,0.0,0.0,0.0,4.6093,4.6132,0.0,0.0,4.6296,0.0,0.0,4.6286,4.6216,0.0,4.6212,4.6212,4.6216,4.6206,4.6206,4.5351,4.4752,4.4635,4.3802,4.2926,4.2049,4.1969,4.1582,4.0849,4.0964,4.099,4.0933,4.0933,4.0933,4.0937,4.0993,4.102,4.102,0.0,4.1019,4.1019,4.1019,4.1019,4.1022,4.1022,4.1025,4.1025,4.1025,4.1025,4.1019,4.0951,4.091,4.0742,3.9751,3.9336,3.8929,3.7244,3.6646,3.6375,3.5663,3.5535,3.5644,3.5734,3.5748,3.5955,3.6835,3.7023,3.7274,3.8143,3.8337,3.8375,3.8491,3.9065,3.9522,3.9522,4.0159,4.0662,4.0718,4.0724,4.0748,4.0812,4.0823,4.0823,4.0823,4.0823,4.0823,4.0823,4.0823,4.0504,3.9791,4.0489,4.0609,3.9855,3.9835,3.9505,3.8824,3.8688,3.8606,3.8606,3.8425,3.8335,3.8306,3.7565,3.7206,4.1108,4.1105,4.1202,4.1677,4.2106,4.265,4.3582,0.0,0.0,0.0,0.0,0.0,0.0,0.0,4.6309,4.6306,0.0,4.624,4.6255,4.6215,4.6177,0.0,0.0,4.6087,4.6087,4.6056,4.6032,4.6032,4.5648,4.5191,4.472,4.4302,4.3698,4.2812,4.2757,4.2534,4.2099,4.1737,4.1315,4.0844,4.0844,4.0844,4.0844,4.0878,4.0882,4.0882,0.0,4.0896,4.0896,4.0896,4.0885,4.0898,4.0898,4.0882,4.089,4.0882,4.087,4.0829,4.0801,4.0762,4.066,4.0153,3.968,3.9133,3.827,3.7667,3.7114,3.6247,3.5743,3.5489,3.5451,3.5451,3.5554,3.5938,3.6047,3.6278,3.711,3.7284,3.7437,3.7899,3.8296,3.8546,3.8546,3.8869,3.9148,3.9184,3.9224,3.9251,3.929,3.929,3.9264,3.9251,3.9226,3.9219,3.9186,3.9604,3.9779,3.9527,3.95,3.9321,3.8913,3.9301,3.9379,3.8991,3.8952,3.8937,3.894,3.8407,3.8129,3.8079,3.763,3.743,4.1104,4.1256,4.1604,4.2483,0.0,4.3109,4.4658,0.0,0.0,0.0,0.0,0.0,0.0,4.6282,0.0,4.6277,4.6217,4.6174,4.6164,4.6111,4.6063,4.6026,4.5982,4.5958,4.5927,4.588,4.5841,4.5841,4.5835,4.5538,4.4873,4.4828,4.4421,4.3555,4.3522,4.3397,4.3153,4.2521,4.1807,4.1027,4.0833,4.073,4.0724,4.073,4.0736,4.0736,4.0742,4.0748,4.0748,4.0748,4.074,4.0749,4.0749,4.0759,4.0751,4.0754,4.0707,4.0647,4.0649,4.0609,4.0537,4.0473,4.0002,3.9416,3.9157,3.8605,3.7908,3.7033,3.6377,3.5842,3.5458,3.5343,3.5355,3.5357,3.535,3.5515,3.6136,3.6281,3.6465,3.7143,3.7403,3.7529,3.7529,3.7688,3.7846,3.7854,3.7913,3.7936,3.7932,3.8105,3.8205,3.8154,3.8319,3.8418,3.8375,3.8807,3.9169,3.9373,3.8998,3.8675,3.8501,3.9081,3.9307,3.9114,3.9039,3.9033,3.9026,3.8296,3.7904,3.7844,3.7797,3.7784,4.1093,4.1695,4.2513,4.3393,4.3601,0.0,4.4781,4.5575,0.0,0.0,0.0,0.0,0.0,4.6209,4.6203,4.6209,4.6154,4.6084,4.6022,0.0,4.5961,4.5835,4.5828,4.5787,4.5733,4.5708,4.5704,4.5704,4.5665,4.5583,4.5525,4.553,4.5131,4.4267,4.4175,4.3773,4.3015,4.2905,4.2458,4.1728,4.0976,4.0576,4.0519,4.0518,4.0526,4.0533,4.0588,4.0609,4.0609,4.0609,4.0609,4.0615,4.0615,4.0615,4.0615,4.0615,4.0568,4.0506,4.0508,4.0462,4.0406,4.0332,4.0258,4.0077,3.9239,3.8954,3.8725,3.7865,3.7568,3.7175,3.5627,3.5207,3.5207,3.5198,3.5218,3.5237,3.5294,3.5299,3.5312,3.5389,3.5945,3.6424,3.6424,3.709,3.7641,3.7706,3.7715,3.7714,3.7728,3.8425,3.8932,3.8913,3.9583,4.0033,4.0024,3.9402,3.901,3.9018,3.9744,3.9816,3.9079,3.9098,3.8745,3.7939,3.7912,3.7931,3.7904,3.7778,3.7715,3.7715,3.771,3.7703,4.1101,4.1739,4.2611,4.347,0.0,0.0,0.0,0.0,0.0,0.0,0.0,0.0,0.0,0.0,4.6119,4.608,4.5979,4.5906,4.5872,4.5796,4.5733,4.5681,4.5637,4.5607,4.5571,4.5547,4.5521,4.5521,4.5484,4.5475,4.5475,4.5475,4.5323,4.4996,4.4959,4.4796,4.4508,4.3972,4.355,4.3223,4.2405,4.2029,4.1974,4.1481,4.1259,4.122,4.0699,4.0476,4.0476,4.0476,4.0476,4.0476,4.0476,4.0476,4.0476,4.0476,4.0425,4.0392,4.0375,4.0351,4.0326,4.0309,4.03,4.0233,3.9909,3.9786,3.9557,3.8679,3.8432,3.8137,3.7039,3.6342,3.5942,3.5888,3.5507,3.5145,3.5145,3.5127,3.5138,3.5138,3.5349,3.572,3.6215,3.6577,3.6986,3.7557,3.7633,3.7642,3.7641,3.7937,3.8109,3.8061,3.8299,3.8669,3.923,3.9002,3.903,3.9533,3.9004,3.8559,3.8244,3.875,3.8884,3.855,3.9039,3.9298,3.9298,3.9176,3.9423,3.9927,3.9896,4.0131,4.1441,4.2156,4.3007,0.0,0.0,0.0,0.0,0.0,0.0,0.0,0.0,0.0,0.0,0.0,0.0,0.0,4.586,4.5768,4.5737,4.5637,4.5565,4.5538,4.5495,4.5467,4.5429,4.54,4.537,4.537,4.537,4.537,4.537,4.537,4.537,4.537,4.537,4.537,4.537,4.4815,4.4527,4.4469,4.3934,4.3388,4.2852,4.2306,4.2057,4.2019,4.1416,4.1167,4.1148,4.0861,4.0593,4.0363,4.0363,4.0363,4.0363,4.0363,4.0345,4.0299,4.0299,4.0291,4.0263,4.0263,4.0253,4.0234,4.0234,4.0196,4.0033,3.9442,3.9242,3.9089,3.8556,3.7614,3.6766,3.671,3.6291,3.5892,3.5892,3.5883,3.5864,3.5864,3.5836,3.5998,3.6549,3.6644,3.6853,3.7443,3.7538,3.7538,3.7538,3.7785,3.8031,3.8238,3.8226,3.8546,3.9429,3.9486,3.9835,4.0639,3.9734,3.8956,3.8423,3.9233,3.969,3.969,4.0479,4.0897,4.0897,4.0805,4.1065,4.1653,4.159,4.187,4.2154,4.3046,0.0,0.0,0.0,0.0,0.0,0.0,0.0,0.0,0.0,0.0,0.0,0.0,0.0,4.5906,4.5773,4.5673,4.5613,4.5538,4.5457,4.5418,4.5408,4.5359,4.5307,4.5307,4.5307,4.5307,4.5307,4.5307,4.5307,4.5307,4.5307,4.5307,4.5307,4.5307,4.5307,4.5307,4.5307,4.5307,4.5307,4.4418,4.2813,4.2813,4.2813,4.2813,4.2794,4.2794,4.2737,4.1858,4.1036,4.032,4.032,4.032,4.0301,4.0301,4.0301,4.0301,4.0301,4.0253,4.0196,4.0196,4.0157,4.0106,4.0106,4.0106,4.0106,4.0106,4.0106,4.0077,4.0026,3.8821,3.7614,3.7614,3.7595,3.7595,3.7595,3.7547,3.7508,3.7508,3.745,3.7401,3.742,3.742,3.742,3.7438,3.7438,3.7438,3.7457,3.8197,3.905,3.9843,3.9919,4.0279,4.1132,4.1207,4.1548,4.2344,4.2401,4.1662,3.9995,4.0753,4.1207,4.1207,4.1984,4.2401,4.2401,4.2401,4.2401,4.2401,4.2401,4.2431,4.2156,0.0,0.0,4.4692,0.0,0.0,0.0,0.0,0.0,0.0,0.0,0.0,0.0,0.0,0.0,4.5703,4.5582,4.5475,4.5467,4.54,4.535,4.5328,4.5328,4.5317,4.5307,4.5307,4.5307,4.5307,4.5307,4.5307,4.5307,4.5307,4.5307,4.5307,4.5307,4.5307,4.5307,4.5307,4.5307,4.5307,4.5307,4.5029,4.4532,4.3921,4.3643,4.3605,4.3061,4.2794,4.2775,4.2526,4.2278,4.2068,4.2068,4.1686,4.1151,4.1083,4.0711,4.0215,4.0166,4.0147,4.0137,4.0137,4.0127,4.0106,4.0106,4.0067,4.0036,4.0036,4.0005,3.9943,3.9933,3.9583,3.9081,3.8503,3.7915,3.746,3.746,3.745,3.744,3.744,3.7411,3.759,3.8216,3.831,3.8709,3.9892,4.0081,4.029,4.084,4.1143,4.1389,4.1624,4.1662,4.1757,4.2022,4.2041,4.2155,4.2382,4.2401,4.2174,4.1681,4.1908,4.2041,4.2041,4.2268,4.2401,4.2401,4.2401,4.2716,4.3322,4.3322,4.3625,4.2637,0.0,0.0,4.5191,4.5796,4.6156,0.0,0.0,0.0,0.0,0.0,4.5848,4.5681,4.5629,0.0,4.5531,4.5448,4.54,4.5389,4.5338,4.5307,4.5307,4.5307,4.5307,4.5307,4.5307,4.5307,4.5307,4.5307,4.5307,4.5307,4.5307,4.5307,4.5307,4.5307,4.5307,4.5307,4.5256,4.5265,4.5265,4.5224,4.5213,4.5194,4.4722,4.4532,4.4494,4.3997,4.3586,4.3231,4.3231,4.303,4.2723,4.2723,4.2399,4.1941,4.1881,4.1566,4.1147,4.1106,4.1085,4.1045,4.1045,4.1035,4.1013,4.1013,4.0992,4.094,4.094,4.0919,4.0885,4.0885,4.0885,4.0601,3.9456,3.9039,3.8906,3.8906,3.9153,3.938,3.938,3.938,3.9551,4.0081,4.0157,4.0498,4.151,4.1681,4.1851,4.2337,4.2401,4.2401,4.2401,4.2401,4.2545,4.2886,4.2889,4.301,4.3331,4.3326,4.3314,4.3314,4.3059,4.2924,4.2924,4.3192,4.335,4.335,4.3326,4.3579,4.4089,4.4089,4.4354,4.3354,0.0,0.0,4.5959,4.6119,0.0,4.5911,0.0,0.0,4.588,0.0,4.5665,4.5588,4.5521,4.5467,4.539,4.538,4.5359,4.5359,4.5317,4.5286,4.5286,4.5286,4.5286,4.5286,4.5286,4.5286,4.5286,4.5286,4.5286,4.5286,4.5286,4.5286,4.5286,4.5286,4.5286,4.5286,4.5213,4.5192,4.5192,4.5136,4.5103,4.5095,4.5243,4.5286,4.5286,4.5286,4.4796,4.4007,4.4007,4.3537,4.2827,4.2827,4.2789,4.2713,4.2702,4.2664,4.2588,4.2577,4.2536,4.2492,4.2492,4.2458,4.2401,4.2401,4.2401,4.2401,4.2401,4.2401,4.2401,4.2401,4.2401,4.2022,4.0487,4.0734,4.1302,4.1302,4.187,4.2401,4.2401,4.2401,4.2401,4.2401,4.2401,4.242,4.2507,4.2583,4.2628,4.2628,4.2628,4.2628,4.2617,4.2617,4.2939,4.3715,4.3742,4.4008,4.4745,4.4719,4.4712,4.4712,4.4108,4.3791,4.3791,4.4449,4.4783,4.4783,4.4738,4.4712,4.4712,4.4712,4.4712,4.3282,4.4113,0.0,0.0,4.5949,4.5841,4.5757,0.0,4.5613,4.5661,4.564,4.5566,4.5409,4.535,4.5309,4.5184,4.5151,4.517,4.517,4.5159,4.5148,4.5148,4.5148,4.5148,4.5148,4.5148,4.5148,4.5148,4.5148,4.5148,4.5148,4.5148,4.5148,4.5148,4.5148,4.5148,4.5148,4.5125,4.5125,4.5125,4.5114,4.5103,4.5103,4.5136,4.5148,4.5148,4.5148,4.5022,4.484,4.484,4.4733,4.457,4.457,4.4151,4.3531,4.3544,4.3114,4.2514,4.2458,4.2435,4.2424,4.2424,4.2412,4.2401,4.2401,4.2401,4.2401,4.2401,4.2401,4.2401,4.2401,4.2401,4.2306,4.1946,4.2003,4.2136,4.2136,4.2268,4.2401,4.2401,4.2401,4.2401,4.2401,4.2401,4.264,4.3322,4.3966,4.434,4.4291,4.4279,4.4266,4.4203,4.4203,4.4279,4.4467,4.4473,4.4536,4.4706,4.4712,4.4712,4.4712,4.4568,4.4486,4.4486,4.4643,4.4706,4.4706,4.4712,4.4712,4.4712,4.4712,4.4712,4.379,0.0,0.0,4.5664,0.0,0.0,4.5528,4.5429,4.537,4.54,4.541,4.538,4.5267,4.5243,4.5181,4.5114,4.5103,4.5103,4.5103,4.5103,4.5103,4.5103,4.5103,4.5103,4.5103,4.5103,4.5103,4.5103,4.5103,4.5103,4.5103,4.5103,4.5103,4.5103,4.5103,4.5103,4.5103,4.508,4.5038,4.5038,4.5014,4.4991,4.5022,4.508,4.5103,4.5103,4.5103,4.5091,4.5038,4.5038,4.5026,4.4991,4.4991,4.4725,4.4326,4.4329,4.4033,4.3653,4.3618,4.3606,4.3606,4.3606,4.3606,4.3606,4.3606,4.3606,4.3606,4.3606,4.3583,4.3558,4.3558,4.3534,4.351,4.351,4.3256,4.3019,4.3019,4.3298,4.3558,4.3558,4.3522,4.351,4.351,4.351,4.3661,4.4115,4.4531,4.4783,4.4764,4.4745,4.4751,4.4712,4.4712,4.4712,4.4712,4.4672,4.4632,4.4605,4.4578,4.4551,4.451,4.451,4.4578,4.4699,4.4672,4.4632,4.4605,4.4578,4.4537,4.451,4.451,4.451,4.429,0.0,4.5599,4.549,4.5456,0.0,4.5321,4.5227,4.517,4.517,4.517,4.5181,4.517,4.5125,4.5091,4.508,4.5068,4.5068,4.5068,4.5068,4.5068,4.5068,4.5068,4.5068,4.5068,4.5068,4.5068,4.5068,4.5068,4.5068,4.5068,4.5068,4.5068,4.5068,4.5049,4.5057,4.5057,4.4967,4.4919,4.4919,4.4858,4.4821,4.4852,4.4955,4.5026,4.5068,4.5068,4.5026,4.4979,4.4979,4.4943,4.4895,4.4895,4.4895,4.4895,4.4895,4.4895,4.4895,4.4895,4.4883,4.487,4.487,4.487,4.4877,4.4877,4.4877,4.4877,4.4877,4.484,4.477,4.477,4.4732,4.4712,4.4712,4.4279,4.3874,4.3874,4.4348,4.477,4.477,4.4751,4.4712,4.4712,4.4712,4.4712,4.4712,4.4712,4.4699,4.4667,4.4672,4.4659,4.4659,4.4646,4.4632,4.4632,4.4578,4.4524,4.4473,4.4397,4.4373,4.43,4.43,4.4397,4.4632,4.4578,4.451,4.4473,4.4416,4.434,4.43,4.43,4.4285,0.0,0.0,4.5342,0.0,4.5281,4.5235,0.0,0.0,4.5033,0.0,4.5061,4.5103,4.5045,4.5014,4.4991,4.495,4.4919,4.4919,4.4919,4.4919,4.4919,4.4919,4.4919,4.4919,4.4919,4.4919,4.4919,4.4919,4.4919,4.4919,4.4919,4.4919,4.4919,4.4919,4.4858,4.4833,4.4833,4.4725,4.4659,4.4659,4.4578,4.4551,4.457,4.4632,4.4757,4.4919,4.4919,4.4919,4.4907,4.4907,4.4907,4.4895,4.4895,4.4895,4.4895,4.4895,4.4895,4.4895,4.4895,4.4858,4.4808,4.4808,4.477,4.4738,4.4738,4.4738,4.4738,4.4738,4.4725,4.4725,4.4725,4.4712,4.4712,4.4712,4.463,4.4568,4.4568,4.463,4.4725,4.4725,4.4712,4.4712,4.4712,4.4712,4.4712,4.4712,4.4712,4.4685,4.4619,4.4551,4.4496,4.444,4.4401,4.4358,4.4358,4.4344,4.4344,4.4329,4.4314,4.4314,4.43,4.43,4.4314,4.4358,4.4344,4.4344,4.4329,4.4314,4.4314,4.43,4.43,4.4237,4.4372,4.4963,4.5237,0.0,4.5117,4.508,4.5045,0.0,4.4943,4.4943,4.4955,4.4967,4.4943,4.4943,4.4931,4.4895,4.4895,4.4895,4.4895,4.4895,4.4895,4.4895,4.4895,4.4895,4.4895,4.4895,4.4895,4.4895,4.4895,4.4895,4.4895,4.4895,4.4895,4.4895,4.4833,4.477,4.4732,4.4619,4.4491,4.4374,4.4345,4.4331,4.4331,4.436,4.45,4.4738,4.4808,4.4833,4.4846,4.4883,4.4895,4.4895,4.4895,4.487,4.4833,4.4833,4.4808,4.4802,4.4802,4.4776,4.4751,4.4712,4.4672,4.4632,4.4592,4.4619,4.4646,4.4646,4.4646,4.4632,4.4592,4.4565,4.4491,4.4388,4.4374,4.436,4.4321,4.4477,4.4619,4.4551,4.4496,4.4468,4.4468,4.4468,4.4468,4.4468,4.4468,4.4468,4.4444,4.4416,4.4373,4.4358,4.4314,4.43,4.43,4.43,4.4285,4.4259,4.4244,4.4211,4.4147,4.4131,4.4131,4.4131,4.4237,4.427,4.4244,4.4244,4.4211,4.4131,4.4085,4.4023,0.0,0.0,4.5103,4.4991,4.4967,4.4955,0.0,0.0,4.4895,0.0,4.4895,4.4895,4.4895,4.4895,4.4895,4.4895,4.4895,4.4895,4.4895,4.4895,4.4895,4.4895,4.4895,4.4895,4.4895,4.4895,4.4895,4.4895,4.4895,4.4895,4.4895,4.4895,4.4883,4.4889,4.4783,4.4712,4.4613,4.4421,4.4196,4.4011,4.4011,4.4011,4.4011,4.4042,4.4166,4.4374,4.4581,4.4687,4.4745,4.4796,4.4833,4.4846,4.4846,4.4827,4.477,4.477,4.4732,4.4712,4.4712,4.4685,4.4646,4.4565,4.4505,4.4449,4.4397,4.4411,4.4435,4.4435,4.4435,4.444,4.4383,4.434,4.4248,4.4079,4.4048,4.4033,4.402,4.4248,4.4421,4.4335,4.4281,4.4252,4.43,4.43,4.43,4.43,4.43,4.43,4.43,4.4304,4.427,4.427,4.424,4.4222,4.4222,4.4222,4.4211,4.415,4.4135,4.4101,4.4005,4.4005,4.3989,4.3974,4.4116,4.418,4.4104,4.4104,4.4058,4.3961,4.3846,4.3767,0.0,4.4926,0.0,4.4907,0.0,0.0,0.0,0.0,0.0,4.4895,4.4895,4.4895,4.4895,4.4895,4.4895,4.4895,4.4895,4.4895,4.4895,4.4895,4.4895,4.4895,4.4895,4.4895,4.4895,4.4895,4.4895,4.4895,4.4895,4.4895,4.4895,4.4895,4.4858,4.4815,4.4685,4.4551,4.4411,4.3971,4.3681,4.3531,4.3531,4.3531,4.3531,4.3597,4.3662,4.3761,4.4162,4.4426,4.4605,4.4619,4.4659,4.4712,4.4712,4.4712,4.4712,4.4712,4.4712,4.4712,4.4712,4.4619,4.4501,4.4426,4.4277,4.4106,4.4051,4.4036,4.4036,4.4036,4.4036,4.4036,4.4036,4.402,4.4005,4.3929,4.3913,4.3929,4.3989,4.402,4.4051,4.4091,4.4106,4.414,4.4285,4.43,4.43,4.43,4.43,4.43,4.43,4.4244,4.4199,4.4199,4.4085,4.402,4.402,4.402,4.402,4.4005,4.4005,4.4005,4.4005,4.4005,4.3958,4.3897,4.3931,4.3913,4.3931,4.3931,4.3883,4.3804,4.3682,4.3511,0.0,0.0,0.0,4.4895,4.4895,4.4895,4.4895,4.4895,4.4895,4.4895,4.4895,4.4895,4.4895,4.4895,4.4895,4.4895,4.4895,4.4895,4.4895,4.4895,4.4895,4.4895,4.4895,4.4895,4.4895,4.4895,4.4895,4.4895,4.4858,4.4852,4.4852,4.4802,4.4751,4.4672,4.4537,4.4277,4.3892,4.3595,4.3409,4.3304,4.3304,4.3286,4.3251,4.3269,4.3268,4.3267,4.3406,4.3772,4.4288,4.4331,4.4383,4.4439,4.4398,4.443,4.451,4.4416,4.4421,4.444,4.444,4.4368,4.4214,4.4173,4.4002,4.3825,4.3744,4.3747,4.3747,4.3747,4.3761,4.3812,4.3763,4.3679,4.356,4.3355,4.3286,4.3268,4.3285,4.3528,4.3744,4.3825,4.3809,4.3828,4.3963,4.4011,4.4039,4.4039,4.4085,4.4116,4.4116,4.4085,4.407,4.407,4.402,4.4005,4.4005,4.4005,4.4005,4.4005,4.4005,4.3974,4.3945,4.3945,4.3862,4.3697,4.3666,4.3666,4.3716,4.3716,4.3632,4.3479,4.3392,4.3196,4.4833,0.0,0.0,0.0,0.0,4.4783,4.4757,0.0,4.4757,4.4783,4.4827,4.4833,4.4858,4.4883,4.4895,4.4895,4.4895,4.4883,4.4858,4.4858,4.4846,4.4796,4.4796,4.4783,4.4776,4.4776,4.4776,4.4776,4.4719,0.0,4.4712,4.4608,4.45,4.4345,4.4199,4.3923,4.3478,4.3286,4.3124,4.3068,4.3013,4.2975,4.2936,4.2936,4.2918,4.292,4.292,4.3267,4.3841,4.3899,4.3977,4.4053,4.4042,4.4075,4.4173,4.4124,4.4128,4.418,4.4192,4.4147,4.4017,4.3892,4.3747,4.3545,4.3461,4.3409,4.3374,4.3374,4.339,4.3425,4.3373,4.3285,4.316,4.2994,4.2862,4.2805,4.2805,4.3105,4.3373,4.346,4.3478,4.3495,4.3617,4.3734,4.3798,4.3798,4.3881,4.3929,4.3929,4.3929,4.3929,4.3929,4.3942,4.3958,4.3958,4.3989,4.4005,4.4005,4.4005,4.3958,4.3897,4.3897,4.3781,4.3563,4.3479,4.3409,4.3374,4.339,4.332,4.316,4.305,4.2806,0.0,0.0,0.0,0.0,0.0,0.0,4.4496,0.0,4.4496,4.4578,4.4646,4.4706,4.477,4.4833,4.4883,4.4883,4.4883,4.487,4.4808,4.4815,4.4751,4.4605,4.4592,4.4565,4.4501,4.4501,4.4501,4.4501,4.4501,4.4487,4.4487,4.4355,4.4129,4.3807,4.3662,4.3461,4.3178,4.2994,4.2862,4.2783,4.2649,4.2609,4.2609,4.2609,4.2686,4.2783,4.2783,4.2957,4.3285,4.3354,4.3458,4.3597,4.3646,4.3679,4.3695,4.3832,4.3881,4.3897,4.3958,4.3945,4.3849,4.3647,4.3442,4.3268,4.3123,4.2994,4.2882,4.2882,4.2882,4.2882,4.2882,4.2842,4.2783,4.2783,4.2686,4.2589,4.2589,4.2747,4.2901,4.2995,4.3105,4.3214,4.3286,4.3442,4.3579,4.3597,4.3701,4.3788,4.3788,4.3788,4.3788,4.3788,4.3851,4.3881,4.3897,4.3958,4.4005,4.4005,4.4005,4.3958,4.3897,4.3881,4.3767,4.3497,4.3356,4.3142,4.2882,4.2939,4.2957,4.2881,4.267,4.2391,4.4439,0.0,0.0,0.0,0.0,0.0,0.0,0.0,4.4369,4.4383,4.4458,4.4551,4.4578,4.4592,4.4605,4.4605,4.4757,4.487,4.4808,4.4764,4.4685,4.4532,4.4444,4.4355,4.4283,4.4269,4.4269,0.0,4.4244,4.4185,4.4143,4.3921,4.3677,4.3441,4.3267,4.3087,4.2918,4.2765,4.2688,4.2649,4.2629,4.257,4.2526,4.2526,4.2488,4.243,4.243,4.2472,4.2593,4.2902,4.3087,4.316,4.3124,4.3214,4.3321,4.3268,4.3356,4.3478,4.3477,4.3443,4.3375,4.3322,4.3142,4.2937,4.2899,4.2785,4.267,4.267,4.267,4.2688,4.2607,4.2586,4.2546,4.2468,4.2409,4.2389,4.2389,4.243,4.2532,4.2804,4.2899,4.2937,4.2995,4.3105,4.3214,4.3304,4.3374,4.3479,4.3566,4.3583,4.36,4.3649,4.3664,4.3749,4.3881,4.3913,4.3961,4.4005,4.4005,4.3961,4.3818,4.3732,4.3565,4.3286,4.3068,4.2805,4.2534,4.265,4.2631,4.2452,4.2145,4.1973,0.0,0.0,0.0,0.0,0.0,0.0,4.3744,4.3807,4.3881,0.0,4.4057,4.417,4.4199,4.4229,4.4258,4.4258,4.4379,4.4503,4.4535,4.4513,4.4416,4.4199,4.4072,4.3946,4.3839,4.3807,4.3775,4.3775,4.3744,4.3679,4.3579,4.3442,4.3267,4.3105,4.2975,4.2843,4.2725,4.2607,4.2548,4.2548,4.249,4.245,4.2425,4.2425,4.2366,4.2308,4.2308,4.2308,4.2328,4.2552,4.2709,4.2804,4.2786,4.2843,4.2938,4.2919,4.2994,4.3105,4.3124,4.3105,4.3068,4.305,4.288,4.2706,4.2685,4.2588,4.247,4.247,4.247,4.247,4.2445,4.2425,4.2405,4.2308,4.2308,4.2308,4.2308,4.2308,4.2348,4.255,4.2645,4.2704,4.2745,4.2842,4.2938,4.3031,4.3105,4.316,4.325,4.325,4.3304,4.3409,4.3461,4.358,4.3835,4.3881,4.3929,4.4005,4.3974,4.3913,4.3804,4.3632,4.3427,4.316,4.2879,4.253,4.2145,4.231,4.2308,4.2079,4.1888,4.1758,0.0,0.0,0.0,0.0,0.0,0.0,4.316,4.3214,4.3303,0.0,4.3526,4.3677,4.3726,4.3788,4.3818,4.3818,4.3818,4.3915,4.4132,4.4147,4.4026,4.3695,4.3614,4.3495,4.3267,4.3196,4.3178,4.3178,4.316,4.3105,4.2995,4.2976,4.29,4.2764,4.2782,4.2706,4.257,4.2506,4.2483,4.2483,4.2366,4.2308,4.2308,4.2308,4.2308,4.2308,4.2308,4.2308,4.2308,4.2308,4.2366,4.2465,4.253,4.257,4.2589,4.2706,4.2745,4.2764,4.2824,4.2862,4.2843,4.2783,4.2686,4.255,4.2486,4.2387,4.2308,4.2308,4.2308,4.2308,4.2308,4.2308,4.2308,4.2308,4.2308,4.2308,4.2308,4.2308,4.2308,4.2308,4.2405,4.2483,4.2483,4.2625,4.2745,4.2764,4.2823,4.2862,4.2881,4.2881,4.2957,4.316,4.3214,4.3391,4.3754,4.3818,4.3881,4.3958,4.3878,4.3818,4.3738,4.3532,4.3304,4.3049,4.2688,4.2249,4.1758,4.1934,4.1934,4.1758,4.1736,4.167,0.0,0.0,0.0,0.0,0.0,0.0,4.288,4.305,4.3178,0.0,4.3249,4.3373,4.3321,4.3321,4.3339,4.3339,4.3339,4.346,4.3839,4.382,4.3693,4.3425,4.3321,4.3196,4.2995,4.2957,4.2975,4.2975,4.2918,4.2879,4.2841,4.2746,4.2629,4.2564,4.2564,4.2486,4.2369,4.2346,4.2346,4.2346,4.2308,4.2308,4.2308,4.2308,4.2308,4.2308,4.2308,4.2308,4.2308,4.2308,4.2325,4.2346,4.2348,4.2369,4.2369,4.2389,4.2468,4.2564,4.2566,4.2566,4.2566,4.2564,4.2486,4.2348,4.2328,4.2308,4.2308,4.2308,4.2308,4.2308,4.2308,4.2308,4.2308,4.2308,4.2308,4.2308,4.2308,4.2308,4.2308,4.2308,4.2308,4.2346,4.2346,4.2369,4.2447,4.2526,4.2566,4.2606,4.2649,4.265,4.2728,4.2938,4.2957,4.3124,4.3532,4.3461,4.3477,4.3681,4.3615,4.3515,4.3322,4.3123,4.2919,4.2707,4.2225,4.1801,4.1493,4.1626,4.1626,4.1471,4.1386,4.13,0.0,0.0,0.0,4.2665,0.0,0.0,0.0,4.2725,4.2841,4.2765,4.2862,4.2939,4.29,4.29,4.29,4.29,4.29,4.2957,4.3178,4.3284,4.3285,4.3069,4.2957,4.2861,4.2707,4.2649,4.2611,4.2611,4.257,4.255,4.255,4.249,4.243,4.2405,4.2405,4.2366,4.2308,4.2308,4.2308,4.2308,4.2308,4.2308,4.2308,4.2308,4.2308,4.2308,4.2308,4.2308,4.2308,4.2308,4.2267,4.2205,4.2267,4.2308,4.2308,4.2308,4.2346,4.2405,4.2405,4.2405,4.2405,4.2325,4.2264,4.2187,4.216,4.2163,4.2205,4.2205,4.2205,4.2205,4.216,4.2139,4.2139,4.2139,4.2139,4.2139,4.2139,4.2139,4.2139,4.2139,4.2139,4.2181,4.2287,4.2308,4.2308,4.2387,4.2346,4.2346,4.245,4.2371,4.2452,4.2728,4.2747,4.29,4.3214,4.3196,4.3196,4.3284,4.325,4.3142,4.2957,4.2692,4.2416,4.2103,4.1762,4.1498,4.1295,4.1335,4.1335,4.1295,4.1232,4.1209,0.0,0.0,0.0,0.0,0.0,4.2308,0.0,0.0,0.0,4.2463,4.2546,0.0,0.0,0.0,0.0,0.0,0.0,0.0,0.0,4.2729,0.0,4.2745,4.2647,4.2548,4.2465,4.2366,4.2308,4.2308,4.2308,4.2308,4.2308,4.2308,4.2308,4.2308,4.2308,4.2308,4.2308,4.2308,4.2308,4.2308,4.2308,4.2308,4.2308,4.2267,4.2267,4.2267,4.2246,4.2225,4.2225,4.2225,4.2184,4.21,4.2225,4.2246,4.2225,4.2225,4.2225,4.2225,4.2225,4.2225,4.2225,4.2121,4.2079,4.2058,4.2009,4.2051,4.2079,4.2079,4.2079,4.2058,4.2009,4.2005,4.2005,4.2005,4.2005,4.2005,4.2005,4.2005,4.2005,4.2005,4.2005,4.2051,4.2222,4.2225,4.2225,4.2225,4.2142,4.2121,4.2243,4.2142,4.2205,4.2472,4.2492,4.2611,4.2864,4.2845,4.2845,4.2847,4.2769,4.2653,4.2518,4.2216,4.1878,4.1515,4.1403,4.129,4.114,4.1099,4.1099,4.118,4.114,4.114,0.0,0.0,0.0,0.0,4.2308,0.0,0.0,0.0,4.2463,4.2346,0.0,0.0,0.0,0.0,0.0,0.0,0.0,0.0,4.2328,4.2369,4.2409,4.2524,4.2524,4.2465,4.2328,4.2308,4.2308,4.2308,4.2308,4.2308,4.2308,4.2308,4.2308,4.2308,4.2308,4.2308,4.2308,4.2308,4.2308,4.2308,4.2308,4.2308,4.2287,4.2184,4.2124,4.2103,4.2072,4.203,4.203,4.203,4.2026,4.2009,4.21,4.2097,4.203,4.203,4.203,4.203,4.203,4.203,4.203,4.2026,4.2009,4.2026,4.2005,4.2005,4.2009,4.2009,4.2009,4.2026,4.2005,4.2005,4.2005,4.2005,4.2005,4.2005,4.2005,4.2005,4.2005,4.2005,4.2005,4.2005,4.2026,4.203,4.203,4.203,4.2026,4.2026,4.203,4.2026,4.2051,4.2163,4.2145,4.2231,4.2456,4.2313,4.2231,4.2279,4.2133,4.1945,4.1839,4.1613,4.138,4.1163,4.114,4.107,4.0918,4.0935,4.0982,4.1117,4.0982,4.0918,0.0,0.0,0.0,0.0,0.0,0.0,4.2308,0.0,4.2366,0.0,0.0,0.0,0.0,0.0,0.0,0.0,4.2308,0.0,0.0,0.0,4.2308,0.0,0.0,0.0,4.2308,4.2308,4.2308,4.2308,4.2308,4.2308,4.2308,4.2308,4.2308,4.2308,4.2308,4.2308,4.2308,4.2308,4.2308,4.2308,4.2225,4.2166,4.2166,4.2097,4.2034,4.2034,4.2009,4.2005,4.2005,4.2005,4.1945,4.1862,4.1823,4.1884,4.2005,4.2005,4.2005,4.2005,4.2005,4.2005,4.1984,4.1902,4.1819,4.1776,4.1862,4.1884,4.1884,4.1884,4.1819,4.1754,4.1666,4.1582,4.1538,4.1538,4.1538,4.1538,4.1538,4.1538,4.1538,4.1538,4.1538,4.1538,4.1538,4.1797,4.2005,4.2005,4.1923,4.1884,4.1884,4.1819,4.1776,4.1823,4.1805,4.1849,4.1938,4.187,4.1784,4.1744,4.1574,4.144,4.1363,4.1284,4.1146,4.1,4.0982,4.0959,4.0912,4.0912,4.0935,4.0982,4.0935,4.0912,4.2308,0.0,0.0,0.0,0.0,0.0,0.0,0.0,0.0,0.0,0.0,0.0,0.0,0.0,0.0,0.0,0.0,4.2246,0.0,4.2225,0.0,0.0,0.0,0.0,0.0,4.2308,4.2308,4.2308,4.2308,4.2308,4.2308,4.2308,4.2308,4.2308,4.2308,4.2287,4.2246,4.2246,4.2225,4.2222,4.2121,4.2079,4.2058,4.197,4.1923,4.188,4.1858,4.1797,4.1776,4.1776,4.1714,4.1648,4.152,4.1604,4.1776,4.1776,4.1776,4.1776,4.1776,4.1776,4.1754,4.167,4.1565,4.1498,4.1626,4.1648,4.1648,4.1648,4.1582,4.1453,4.1363,4.1255,4.1209,4.1209,4.1209,4.1209,4.1209,4.1209,4.1209,4.1209,4.1209,4.1209,4.1209,4.152,4.1776,4.1776,4.1692,4.1648,4.1648,4.1542,4.1475,4.1475,4.1475,4.1475,4.1475,4.1471,4.142,4.1267,4.118,4.1105,4.1047,4.1047,4.1,4.0912,4.0912,4.0912,4.0912,4.0912,4.0912,4.0912,4.0912,4.0912,0.0,0.0,0.0,4.203,0.0,0.0,0.0,0.0,4.2005,0.0,0.0,0.0,0.0,0.0,0.0,0.0,0.0,0.0,0.0,0.0,0.0,0.0,0.0,0.0,0.0,4.2308,4.2308,4.2308,4.2308,4.2308,4.2308,4.2308,4.2308,4.2308,4.2308,4.2246,4.2103,4.2103,4.2058,4.2005,4.2005,4.2005,4.2005,4.1862,4.1736,4.1604,4.1471,4.134,4.1232,4.1232,4.1232,4.1232,4.1192,4.1232,4.1232,4.1232,4.1232,4.1232,4.1232,4.1232,4.1232,4.1232,4.1232,4.1209,4.1232,4.1232,4.1232,4.1232,4.1232,4.1209,4.1209,4.1209,4.1209,4.1209,4.1209,4.1209,4.1209,4.1209,4.1209,4.1209,4.1209,4.1209,4.1209,4.1209,4.1232,4.1232,4.1232,4.1232,4.1232,4.1232,4.1209,4.1209,4.1209,4.1209,4.1209,4.1169,4.107,4.0935,4.0894,4.0912,4.0912,4.0912,4.0894,4.0912,4.0912,4.0912,4.0912,4.0912,4.0912,4.0912,4.0912,4.0912,0.0,0.0,4.203,4.2005,0.0,0.0,0.0,0.0,0.0,0.0,0.0,0.0,0.0,0.0,0.0,0.0,0.0,0.0,0.0,0.0,0.0,0.0,0.0,0.0,0.0,0.0,4.2094,4.2094,4.2142,4.2142,4.2115,4.2142,4.2142,4.2115,4.2094,4.2094,4.2012,4.2012,4.203,4.2005,4.1923,4.1819,4.1732,4.1582,4.1453,4.1323,4.1295,4.1232,4.1209,4.1209,4.1209,4.1209,4.1152,4.1146,4.1146,4.1163,4.1209,4.1209,4.1209,4.1209,4.1209,4.1209,4.1209,4.1209,4.1209,4.1209,4.1209,4.1209,4.1157,4.1146,4.1146,4.1059,4.0995,4.0995,4.0995,4.0995,4.0995,4.0995,4.0995,4.0995,4.0995,4.0995,4.0995,4.0995,4.1041,4.1186,4.1209,4.1186,4.1146,4.1146,4.1099,4.1012,4.0995,4.0995,4.0995,4.0982,4.0959,4.0912,4.0912,4.0912,4.0912,4.0912,4.0912,4.0912,4.0912,4.0912,4.0912,4.0912,4.0912,4.0912,4.0912,4.0912,4.2009,4.1902,0.0,4.1793,4.1754,0.0,4.171,0.0,0.0,0.0,0.0,0.0,0.0,0.0,0.0,0.0,0.0,0.0,0.0,4.1815,0.0,0.0,0.0,0.0,0.0,4.2005,4.2005,4.2005,4.2034,4.2034,4.2005,4.2034,4.2034,4.2005,4.2005,4.1984,4.1923,4.188,4.1837,4.1793,4.1648,4.1542,4.1453,4.1363,4.1272,4.1157,4.1157,4.1134,4.1071,4.1071,4.1071,4.1088,4.1053,4.1023,4.1029,4.1065,4.1071,4.1071,4.1071,4.1071,4.1071,4.1071,4.1071,4.1071,4.1071,4.1071,4.1071,4.1071,4.1059,4.1023,4.1023,4.0959,4.0912,4.0912,4.0912,4.0912,4.0912,4.0912,4.0912,4.0912,4.0912,4.0912,4.0912,4.0912,4.0942,4.1088,4.1071,4.1065,4.1029,4.1023,4.1,4.0912,4.0912,4.0912,4.0912,4.0912,4.0912,4.0912,4.0912,4.0912,4.0912,4.0912,4.0912,4.0912,4.0912,4.0912,4.0912,4.0912,4.0912,4.0912,4.0912,4.0912]}]]